Date StartTime U_cm/s V_cm/s W_cm/s Ustd_cm/s Vstd_cm/s Wstd_cm/s Uvar_(cm/s)^2 Vvar_(cm/s)^2 Wvar_(cm/s)^2 KE_(m/s)^2 TurbulentKE_(m/s)^2 HorizWindSpeed_cm/s FrictionSpeec_cm/s DragCoef SpeedOfSound_m/s SonicTemperature_C Pressure_mb 
10/02/2014  00:00:00      -97.388      -51.254      -11.108       16.450       19.068       15.753      270.616      363.582      248.155        0.656        0.044      110.052        8.297        0.006      337.172        8.966      865.990
10/02/2014  00:01:00      -94.582      -51.060       -5.007       36.727       25.660       15.470     1348.837      658.452      239.318        0.691        0.112      107.484       12.445        0.013      337.105        8.854      865.992
10/02/2014  00:02:00      -42.783      -28.320        6.563       34.763       23.633       18.543     1208.449      558.528      343.839        0.239        0.106       51.307       17.342        0.114      336.944        8.584      865.989
10/02/2014  00:03:00      -91.462      -56.137       -4.511       28.623       21.463       15.714      819.258      460.680      246.930        0.653        0.076      107.316       13.387        0.016      336.992        8.664      865.985
10/02/2014  00:04:00      -86.305      -58.003       -0.811       32.131       23.423       17.707     1032.417      548.625      313.528        0.635        0.095      103.985       18.065        0.030      336.972        8.631      865.984
10/02/2014  00:05:00      -69.326      -48.400       -4.534       22.536       22.946       15.204      507.858      526.513      231.160        0.422        0.063       84.549       13.745        0.026      336.997        8.674      865.993
10/02/2014  00:06:00      -84.413      -46.299       -5.089       22.115       17.827       16.610      489.053      317.809      275.878        0.519        0.054       96.276       11.577        0.014      336.992        8.666      865.984
10/02/2014  00:07:00     -111.653      -39.881      -10.361       15.896       16.218       12.235      252.667      263.037      149.689        0.741        0.033      118.562        5.365        0.002      336.967        8.622      865.975
10/02/2014  00:08:00     -110.037      -37.765       -7.394       19.098       19.421       11.848      364.733      377.175      140.364        0.724        0.044      116.337        9.385        0.007      336.966        8.621      865.982
10/02/2014  00:09:00     -126.885      -37.651      -10.325       13.848       17.304       11.722      191.759      299.429      137.395        0.913        0.031      132.353        7.981        0.004      336.888        8.494      865.991
10/02/2014  00:10:00     -123.428      -41.130      -13.509       14.258       24.007       12.966      203.286      576.323      168.106        0.903        0.047      130.100       11.238        0.007      336.887        8.490      865.997
10/02/2014  00:11:00     -101.040      -34.993      -13.913       16.892       21.768       14.243      285.325      473.859      202.874        0.629        0.048      106.928       10.741        0.010      336.865        8.453      866.003
10/02/2014  00:12:00     -111.968      -22.910      -12.319       22.858       21.888       15.467      522.509      479.097      239.237        0.723        0.062      114.288       11.481        0.010      336.836        8.405      866.025
10/02/2014  00:13:00     -115.766      -30.712      -11.496       19.942       23.248       16.563      397.686      540.455      274.320        0.784        0.061      119.771       10.659        0.008      336.828        8.392      866.035
10/02/2014  00:14:00     -102.287      -29.683       -8.453       22.253       30.300       16.762      495.184      918.085      280.969        0.655        0.085      106.507       13.877        0.017      336.881        8.480      866.037
10/02/2014  00:15:00     -107.177      -20.916      -14.190       22.111       16.360       12.888      488.916      267.660      166.090        0.652        0.046      109.199        5.334        0.002      336.794        8.337      866.031
10/02/2014  00:16:00     -112.755      -38.678      -13.012       24.698       23.201       13.531      610.013      538.278      183.095        0.785        0.067      119.205        8.619        0.005      336.763        8.284      866.026
10/02/2014  00:17:00     -112.767      -52.119      -16.276        8.474       18.119        7.904       71.811      328.291       62.466        0.808        0.023      124.229        4.277        0.001      336.713        8.199      866.026
10/02/2014  00:18:00      -91.026      -63.843      -14.558       17.575       19.941       13.587      308.866      397.648      184.615        0.673        0.045      111.183        7.656        0.005      336.706        8.187      866.017
10/02/2014  00:19:00      -38.621      -32.223       -0.530       29.471       32.189       17.094      868.542     1036.140      292.216        0.236        0.110       50.298       14.825        0.087      336.685        8.153      866.019
10/02/2014  00:20:00      -12.616      -21.234       13.600       24.549       28.001       19.804      602.645      784.051      392.215        0.129        0.089       24.699       18.046        0.534      336.641        8.081      866.028
10/02/2014  00:21:00      -54.057      -40.233       -6.545       30.426       24.260       24.171      925.720      588.555      584.239        0.334        0.105       67.386       19.601        0.085      336.734        8.236      866.020
10/02/2014  00:22:00      -31.117      -23.368        2.114       47.819       25.338       19.138     2286.660      642.011      366.268        0.241        0.165       38.914       14.572        0.140      336.669        8.128      866.018
10/02/2014  00:23:00       -0.977      -17.083        1.934       28.836       17.602       17.323      831.521      309.838      300.091        0.087        0.072       17.111       16.906        0.976      336.693        8.167      866.028
10/02/2014  00:24:00      -74.619      -50.219       -8.498       30.842       36.962       15.740      951.237     1366.185      247.748        0.536        0.128       89.944       12.977        0.021      336.634        8.069      866.028
10/02/2014  00:25:00      -84.883      -46.899      -14.812       29.638       19.530       13.329      878.395      381.437      177.667        0.553        0.072       96.978       11.695        0.015      336.672        8.133      866.022
10/02/2014  00:26:00      -65.708      -38.650      -10.428       20.995       17.313       13.457      440.769      299.756      181.101        0.342        0.046       76.232        9.852        0.017      336.716        8.206      866.015
10/02/2014  00:27:00      -96.526      -34.817       -9.592       16.869       30.831       14.426      284.559      950.528      208.106        0.603        0.072      102.613       15.356        0.022      336.788        8.325      866.025
10/02/2014  00:28:00     -114.224      -14.051      -18.192       18.433       20.691       10.806      339.768      428.106      116.759        0.723        0.044      115.085        7.051        0.004      336.733        8.234      866.021
10/02/2014  00:29:00      -91.020      -35.806      -11.658       12.130       10.656        9.352      147.138      113.559       87.460        0.503        0.017       97.810        3.608        0.001      336.659        8.110      866.028
10/02/2014  00:30:00      -83.212      -37.708      -16.150       13.130       12.457        8.406      172.393      155.165       70.657        0.450        0.020       91.357        6.528        0.005      336.678        8.143      866.049
10/02/2014  00:31:00     -112.619      -45.481      -12.127       15.582       22.328       13.883      242.802      498.552      192.748        0.792        0.047      121.456        4.992        0.002      336.748        8.258      866.062
10/02/2014  00:32:00     -134.789      -42.181      -20.132       22.365       15.396       10.797      500.185      237.029      116.573        1.060        0.043      141.235        6.689        0.002      336.780        8.313      866.063
10/02/2014  00:33:00      -84.191      -38.480       -8.395       21.320       17.871       12.811      454.550      319.356      164.129        0.479        0.047       92.568        4.297        0.002      336.763        8.284      866.067
10/02/2014  00:34:00      -72.333      -30.905       -7.249       30.188       11.906       10.819      911.323      141.751      117.050        0.370        0.059       78.659       10.598        0.018      336.821        8.381      866.076
10/02/2014  00:35:00     -108.896      -40.223       -7.818       11.661       16.218       12.378      135.975      263.018      153.223        0.704        0.028      116.087        6.220        0.003      336.753        8.268      866.070
10/02/2014  00:36:00     -109.028      -33.863       -9.351       13.952       18.135        9.249      194.651      328.869       85.544        0.687        0.030      114.166        5.285        0.002      336.746        8.255      866.061
10/02/2014  00:37:00     -116.819      -60.953      -12.658       11.880       15.924       11.194      141.133      253.564      125.315        0.902        0.026      131.765        7.781        0.003      336.691        8.163      866.066
10/02/2014  00:38:00     -105.305      -55.313      -11.244       11.849       14.403       13.009      140.393      207.437      169.239        0.740        0.026      118.948        5.149        0.002      336.638        8.075      866.070
10/02/2014  00:39:00      -88.659      -44.238       -3.406       15.544       12.817       12.536      241.621      164.272      157.150        0.520        0.028       99.083        8.088        0.007      336.661        8.113      866.074
10/02/2014  00:40:00      -58.979      -35.416       -4.262       18.305       19.408       12.133      335.077      376.683      147.218        0.280        0.043       68.796        7.314        0.011      336.708        8.191      866.085
10/02/2014  00:41:00      -70.467      -31.351       -7.221       24.690       14.097       15.180      609.586      198.724      230.423        0.352        0.052       77.126       16.071        0.043      336.695        8.170      866.093
10/02/2014  00:42:00     -107.375      -33.841      -14.628       11.067       14.074        9.531      122.486      198.064       90.834        0.665        0.021      112.581        3.800        0.001      336.765        8.288      866.076
10/02/2014  00:43:00      -92.659      -26.444      -13.103       10.158       12.682        8.369      103.191      160.827       70.040        0.490        0.017       96.359        1.760        0.000      336.743        8.252      866.067
10/02/2014  00:44:00      -77.929      -26.549       -9.489        9.301       11.356       10.757       86.514      128.963      115.708        0.360        0.017       82.328        5.302        0.004      336.709        8.194      866.063
10/02/2014  00:45:00      -55.298      -36.019       -6.430       20.281       15.452       15.165      411.319      238.756      229.969        0.264        0.044       65.994        9.384        0.020      336.681        8.147      866.050
10/02/2014  00:46:00      -41.933      -28.932        3.012       37.219       17.949       16.294     1385.273      322.155      265.495        0.229        0.099       50.945       17.024        0.112      336.602        8.015      866.029
10/02/2014  00:47:00     -104.645      -51.268       -9.112       18.150       13.262       10.004      329.404      175.882      100.082        0.713        0.030      116.529        1.951        0.000      336.582        7.982      866.021
10/02/2014  00:48:00     -107.848      -48.035      -12.068       11.959       10.200        8.385      143.027      104.044       70.302        0.720        0.016      118.062        4.932        0.002      336.567        7.956      866.017
10/02/2014  00:49:00      -67.729      -34.870       -4.525       23.066       17.411       10.579      532.055      303.159      111.921        0.339        0.047       76.178       13.341        0.031      336.563        7.949      866.016
10/02/2014  00:50:00      -74.595      -37.010       -2.646       18.109       13.149       11.083      327.943      172.890      122.829        0.378        0.031       83.272        9.829        0.014      336.524        7.884      866.019
10/02/2014  00:51:00      -48.790      -39.073       -2.511       25.850       22.675       15.678      668.246      514.158      245.791        0.267        0.071       62.507       12.351        0.039      336.476        7.804      866.028
10/02/2014  00:52:00      -52.440      -39.877        3.260       38.306       34.759       22.336     1467.356     1208.171      498.878        0.376        0.159       65.879       22.897        0.121      336.486        7.819      866.031
10/02/2014  00:53:00      -62.162      -45.168        1.616       26.561       22.638       16.743      705.469      512.494      280.316        0.370        0.075       76.839       14.040        0.033      336.351        7.594      866.029
10/02/2014  00:54:00      -51.729      -33.154       -5.643       31.639       22.406       17.745     1001.048      502.039      314.876        0.281        0.091       61.441       11.301        0.034      336.400        7.676      866.031
10/02/2014  00:55:00      -71.711      -42.734       -4.661       27.328       22.749       15.998      746.793      517.531      255.948        0.426        0.076       83.478       11.966        0.021      336.377        7.638      866.046
10/02/2014  00:56:00      -64.110      -42.021        4.928       41.808       19.446       20.387     1747.869      378.146      415.634        0.422        0.127       76.654       18.581        0.059      336.374        7.633      866.048
10/02/2014  00:57:00      -60.888      -36.289        4.246       48.653       30.144       19.198     2367.084      908.683      368.549        0.434        0.182       70.882       24.971        0.124      336.310        7.525      866.053
10/02/2014  00:58:00      -80.637      -51.771       -1.639       38.639       28.824       21.242     1492.941      830.838      451.216        0.598        0.139       95.826       16.939        0.031      336.300        7.508      866.055
10/02/2014  00:59:00     -114.593      -69.351       -6.768       28.699       19.851       20.863      823.634      394.055      435.260        0.982        0.083      133.944       17.565        0.017      336.307        7.521      866.059
10/02/2014  01:00:00      -92.866      -58.707       -0.864       43.511       35.412       22.834     1893.189     1253.977      521.383        0.787        0.183      109.866       23.112        0.044      336.274        7.466      866.070
10/02/2014  01:01:00      -72.406      -40.504        6.511       43.139       30.809       25.012     1860.979      949.194      625.610        0.518        0.172       82.965       20.887        0.063      336.281        7.477      866.080
10/02/2014  01:02:00      -71.822      -54.338        3.702       56.727       28.180       22.899     3217.964      794.139      524.365        0.633        0.227       90.061       24.520        0.074      336.308        7.523      866.080
10/02/2014  01:03:00     -101.198      -69.839       -2.659       36.872       31.549       22.922     1359.568      995.313      525.410        0.900        0.144      122.958       18.819        0.023      336.278        7.473      866.086
10/02/2014  01:04:00      -75.117      -60.567       -1.510       44.255       32.071       19.277     1958.493     1028.560      371.600        0.634        0.168       96.493       16.869        0.031      336.241        7.410      866.081
10/02/2014  01:05:00      -99.288      -61.028       -3.461       29.843       31.027       22.188      890.593      962.647      492.318        0.797        0.117      116.545       18.526        0.025      336.268        7.455      866.076
10/02/2014  01:06:00      -98.049      -60.497       -0.151       37.343       26.160       21.821     1394.531      684.352      476.143        0.791        0.128      115.211       20.204        0.031      336.258        7.438      866.076
10/02/2014  01:07:00      -51.801      -44.810       -2.994       45.418       26.265       18.650     2062.782      689.833      347.841        0.390        0.155       68.492       14.447        0.044      336.258        7.439      866.081
10/02/2014  01:08:00     -115.620      -62.193       -4.180       29.935       32.002       21.747      896.080     1024.132      472.953        0.982        0.120      131.286       17.522        0.018      336.257        7.437      866.077
10/02/2014  01:09:00     -110.286      -70.653       -3.096       46.970       29.810       24.330     2206.192      888.612      591.936        1.042        0.184      130.976       23.540        0.032      336.217        7.369      866.073
10/02/2014  01:10:00      -91.669      -70.337       -0.758       48.952       29.210       23.517     2396.342      853.225      553.049        0.858        0.190      115.544       15.769        0.019      336.202        7.345      866.075
10/02/2014  01:11:00     -106.141      -81.062       -6.252       38.703       23.741       22.633     1497.928      563.636      512.252        1.022        0.129      133.555       20.400        0.023      336.172        7.295      866.091
10/02/2014  01:12:00      -74.015      -64.816        2.647       47.463       30.376       23.462     2252.767      922.706      550.485        0.671        0.186       98.384       24.354        0.061      336.183        7.312      866.111
10/02/2014  01:13:00      -45.226      -34.182        5.632       44.780       30.299       18.966     2005.267      918.045      359.725        0.326        0.164       56.690       18.330        0.105      336.197        7.336      866.121
10/02/2014  01:14:00      -84.631      -42.778       -0.927       40.872       20.883       19.175     1670.561      436.091      367.694        0.573        0.124       94.828       19.404        0.042      336.230        7.392      866.130
10/02/2014  01:15:00     -114.237      -50.522       -6.954       20.908       17.566        9.757      437.134      308.570       95.206        0.825        0.042      124.910        5.880        0.002      336.203        7.347      866.149
10/02/2014  01:16:00     -111.833      -53.449      -14.084       16.101       14.809       11.985      259.242      219.297      143.643        0.809        0.031      123.950       10.141        0.007      336.244        7.416      866.154
10/02/2014  01:17:00     -111.541      -33.930      -12.235       13.579       15.202       12.981      184.385      231.098      168.497        0.716        0.029      116.587        4.535        0.002      336.230        7.392      866.158
10/02/2014  01:18:00     -136.983      -45.085      -18.787       23.465       23.525       12.782      550.600      553.430      163.385        1.121        0.063      144.211        5.967        0.002      336.235        7.401      866.169
10/02/2014  01:19:00     -125.767      -58.769       -6.636       27.421       17.573       15.324      751.931      308.798      234.829        1.031        0.065      138.820       14.284        0.011      336.148        7.254      866.180
10/02/2014  01:20:00      -95.980      -62.598       -4.677       25.528       17.338       17.028      651.700      300.603      289.963        0.720        0.062      114.589       13.091        0.013      336.099        7.173      866.196
10/02/2014  01:21:00      -53.563      -37.923       -1.468       36.008       32.584       22.297     1296.579     1061.734      497.156        0.358        0.143       65.629       21.886        0.111      336.078        7.137      866.208
10/02/2014  01:22:00      -72.536      -30.488      -11.081       24.824       29.252       15.505      616.249      855.669      240.410        0.401        0.086       78.683       16.017        0.041      336.089        7.156      866.211
10/02/2014  01:23:00      -67.761      -41.807       -6.397       30.333       23.526       16.549      920.099      553.456      273.878        0.406        0.087       79.620       18.264        0.053      336.125        7.216      866.218
10/02/2014  01:24:00      -30.306      -15.201        0.403       27.862       16.138       19.324      776.269      260.443      373.416        0.128        0.071       33.904       13.853        0.167      336.142        7.244      866.217
10/02/2014  01:25:00      -63.689        1.912      -18.408       41.028       30.021       15.205     1683.269      901.280      231.185        0.361        0.141       63.717       10.991        0.030      336.171        7.294      866.212
10/02/2014  01:26:00      -51.724      -30.365      -11.829       19.690       14.771       13.620      387.715      218.179      185.508        0.226        0.040       59.979        4.581        0.006      336.277        7.470      866.209
10/02/2014  01:27:00      -39.705      -24.770       -4.058       26.442       16.111       12.149      699.167      259.570      147.592        0.166        0.055       46.798        8.761        0.035      336.290        7.494      866.219
10/02/2014  01:28:00      -64.564      -10.676      -13.820       21.101       19.393       11.968      445.255      376.089      143.237        0.272        0.048       65.440       11.167        0.029      336.380        7.645      866.217
10/02/2014  01:29:00      -74.817       -6.708      -13.499       17.088       15.971       10.847      291.994      255.058      117.651        0.324        0.033       75.118        5.494        0.005      336.346        7.586      866.215
10/02/2014  01:30:00      -71.801      -11.626      -17.543       12.347       16.809       10.999      152.449      282.553      120.981        0.308        0.028       72.736       11.906        0.027      336.424        7.717      866.227
10/02/2014  01:31:00      -72.095      -25.480      -18.121       17.597       16.097       13.574      309.652      259.101      184.245        0.346        0.038       76.466        5.154        0.005      336.313        7.530      866.245
10/02/2014  01:32:00      -75.698      -16.178       -6.933       17.477       17.750       11.021      305.443      315.068      121.468        0.339        0.037       77.407        6.276        0.007      336.339        7.575      866.252
10/02/2014  01:33:00      -66.447      -28.467      -18.169       23.912       20.385       13.825      571.789      415.534      191.143        0.337        0.059       72.288        9.200        0.016      336.287        7.488      866.253
10/02/2014  01:34:00      -95.359      -16.687      -16.604       14.791       13.151       12.113      218.768      172.938      146.728        0.509        0.027       96.808        8.243        0.007      336.217        7.370      866.264
10/02/2014  01:35:00      -73.191      -36.405      -14.284       25.199       26.760       15.476      634.997      716.078      239.518        0.424        0.080       81.745        9.947        0.015      336.377        7.638      866.277
10/02/2014  01:36:00     -115.900      -44.533      -20.696       18.398       16.199       13.002      338.498      262.418      169.064        0.831        0.038      124.162        3.600        0.001      336.171        7.292      866.287
10/02/2014  01:37:00     -122.685      -32.976      -14.279       13.318       19.255       11.019      177.358      370.752      121.421        0.851        0.033      127.039        5.472        0.002      336.148        7.254      866.298
10/02/2014  01:38:00     -105.093      -62.929      -11.782       26.351       24.266       17.270      694.397      588.848      298.263        0.836        0.079      122.493       11.982        0.010      336.204        7.350      866.318
10/02/2014  01:39:00     -102.268      -47.968      -11.097       41.133       18.781       15.910     1691.909      352.728      253.118        0.759        0.115      112.959       11.487        0.010      336.230        7.392      866.341
10/02/2014  01:40:00      -82.367      -67.321        4.365       56.748       40.706       24.705     3220.332     1656.984      610.327        0.841        0.274      106.379       27.031        0.065      336.170        7.292      866.344
10/02/2014  01:41:00      -74.063      -71.575        3.797       51.329       55.087       27.190     2634.634     3034.623      739.312        0.851        0.320      102.997       28.532        0.077      336.125        7.216      866.345
10/02/2014  01:42:00     -104.845     -100.757       -7.949       30.591       41.641       18.000      935.829     1733.948      323.995        1.210        0.150      145.412       13.917        0.009      336.111        7.192      866.346
10/02/2014  01:43:00      -97.300      -57.709       -1.662       33.715       40.860       20.131     1136.694     1669.543      405.249        0.801        0.161      113.126       15.042        0.018      336.119        7.205      866.356
10/02/2014  01:44:00     -121.980      -65.556        0.571       37.989       26.271       21.681     1443.136      690.160      470.083        1.089        0.130      138.480       18.429        0.018      336.078        7.136      866.366
10/02/2014  01:45:00     -101.945      -67.197        1.888       34.945       27.402       23.340     1221.129      750.886      544.764        0.871        0.126      122.100       15.608        0.016      336.040        7.074      866.369
10/02/2014  01:46:00      -91.612      -59.900        5.234       47.186       35.650       22.383     2226.549     1270.899      500.980        0.800        0.200      109.457       27.720        0.064      336.017        7.036      866.363
10/02/2014  01:47:00      -50.270      -34.024        3.881       41.977       19.232       17.603     1762.054      369.873      309.869        0.307        0.122       60.702       20.156        0.110      335.997        7.003      866.367
10/02/2014  01:48:00      -66.944      -28.998        4.674       35.412       23.053       18.242     1253.977      531.454      332.759        0.373        0.106       72.954       15.735        0.047      336.024        7.048      866.358
10/02/2014  01:49:00      -69.076      -55.501       -3.665       45.808       31.619       19.539     2098.386      999.775      381.762        0.567        0.174       88.610       26.540        0.090      336.072        7.129      866.343
10/02/2014  01:50:00      -76.079      -51.601        1.687       38.575       22.826       18.757     1488.004      521.038      351.838        0.541        0.118       91.927       21.790        0.056      336.096        7.168      866.333
10/02/2014  01:51:00      -87.502      -54.294        5.598       43.499       29.127       17.499     1892.186      848.354      306.206        0.684        0.152      102.978       16.174        0.025      336.063        7.113      866.330
10/02/2014  01:52:00      -75.552      -66.007        1.575       19.819       30.192       17.319      392.778      911.546      299.963        0.584        0.080      100.325       10.385        0.011      336.038        7.072      866.336
10/02/2014  01:53:00      -99.947      -74.100      -13.919       34.066       29.862       22.190     1160.478      891.758      492.377        0.911        0.127      124.420       17.442        0.020      336.020        7.041      866.339
10/02/2014  01:54:00      -71.566      -77.585       -6.997       37.605       44.781       21.746     1414.112     2005.355      472.906        0.754        0.195      105.551       21.065        0.040      335.967        6.952      866.348
10/02/2014  01:55:00      -96.914      -67.672       -1.657       30.143       36.556       24.212      908.606     1336.305      586.245        0.840        0.142      118.203       14.463        0.015      335.933        6.896      866.362
10/02/2014  01:56:00     -122.946      -51.311       -5.145       32.029       23.085       18.382     1025.826      532.917      337.891        0.984        0.095      133.224       17.688        0.018      335.932        6.895      866.392
10/02/2014  01:57:00     -121.197      -63.924      -12.724       23.370       23.443       16.037      546.168      549.586      257.199        1.014        0.068      137.022        8.536        0.004      335.909        6.857      866.411
10/02/2014  01:58:00     -107.892      -56.039      -11.775       19.571       15.750       11.236      383.043      248.052      126.258        0.784        0.038      121.577        9.884        0.007      335.893        6.830      866.421
10/02/2014  01:59:00     -121.944      -44.915       -8.426       18.286       25.600       14.196      334.395      655.350      201.524        0.907        0.060      129.953       12.328        0.009      335.884        6.814      866.433
10/02/2014  02:00:00      -98.286      -42.742       -5.536       24.027       22.109       14.473      577.277      488.802      209.472        0.640        0.064      107.177        8.924        0.007      335.881        6.809      866.443
10/02/2014  02:01:00     -113.002      -53.644      -10.764       19.250       25.856       15.404      370.550      668.519      237.278        0.852        0.064      125.089       12.297        0.010      335.960        6.942      866.436
10/02/2014  02:02:00      -90.492      -53.449       -1.113       32.201       20.195       16.960     1036.918      407.834      287.638        0.639        0.087      105.098       16.571        0.025      335.883        6.813      866.425
10/02/2014  02:03:00     -102.377      -54.687       -1.413       27.093       24.759       17.334      734.018      612.991      300.472        0.756        0.082      116.068        7.580        0.004      335.908        6.856      866.421
10/02/2014  02:04:00      -92.530      -55.585       -9.342       25.368       24.853       16.318      643.527      617.694      266.289        0.663        0.076      107.942        9.339        0.007      335.981        6.976      866.433
10/02/2014  02:05:00      -91.991      -58.041       -5.680       28.572       18.641       16.983      816.379      347.474      288.408        0.666        0.073      108.771        7.192        0.004      335.930        6.891      866.436
10/02/2014  02:06:00      -96.514      -53.845       -7.917       23.095       18.127       15.683      533.396      328.577      245.951        0.669        0.055      110.518       10.095        0.008      335.918        6.870      866.439
10/02/2014  02:07:00      -81.430      -56.012       -6.300       25.091       23.691       13.754      629.580      561.255      189.177        0.559        0.069       98.834        9.090        0.008      335.892        6.828      866.449
10/02/2014  02:08:00      -84.028      -51.934      -10.279       21.811       18.207       12.555      475.704      331.510      157.629        0.541        0.048       98.781        6.132        0.004      335.916        6.867      866.442
10/02/2014  02:09:00      -92.627      -49.854      -13.484       17.474       18.626       12.436      305.348      346.941      154.655        0.603        0.040      105.191        5.724        0.003      335.920        6.874      866.428
10/02/2014  02:10:00      -69.493      -46.577       -5.253       29.772       17.495       15.408      886.385      306.059      237.398        0.423        0.071       83.659       10.701        0.016      335.861        6.777      866.424
10/02/2014  02:11:00      -89.866      -45.990      -10.123       22.917       16.325       15.576      525.183      266.516      242.603        0.566        0.052      100.951       10.910        0.012      335.869        6.791      866.425
10/02/2014  02:12:00      -60.296      -45.195       -6.457       42.951       20.805       16.558     1844.763      432.862      274.174        0.414        0.128       75.354       18.923        0.063      335.889        6.825      866.424
10/02/2014  02:13:00      -81.612      -29.745       -9.955       10.856       19.211        8.967      117.856      369.055       80.399        0.411        0.028       86.863        3.070        0.001      335.861        6.776      866.421
10/02/2014  02:14:00      -78.812      -26.570      -12.904       11.814       11.701        6.802      139.570      136.903       46.262        0.370        0.016       83.170        3.701        0.002      335.811        6.695      866.419
10/02/2014  02:15:00      -68.178      -40.817      -12.121       18.999       14.091       10.083      360.946      198.557      101.675        0.356        0.033       79.462        7.696        0.009      335.824        6.716      866.436
10/02/2014  02:16:00      -35.034      -24.919        3.621       37.851       23.686       18.054     1432.665      561.012      325.944        0.209        0.116       42.993       20.003        0.216      335.762        6.613      866.460
10/02/2014  02:17:00      -29.404      -33.958        2.450       23.405       26.142       16.695      547.796      683.391      278.724        0.177        0.075       44.919       13.903        0.096      335.776        6.635      866.461
10/02/2014  02:18:00      -53.936      -38.411       -2.665       25.227       19.833       18.080      636.389      393.349      326.900        0.287        0.068       66.216       17.733        0.072      335.816        6.702      866.458
10/02/2014  02:19:00      -81.045      -41.324       -7.774       28.626       15.604       13.535      819.433      243.486      183.191        0.479        0.062       90.972        8.324        0.008      335.809        6.691      866.461
10/02/2014  02:20:00      -70.633      -39.334       -1.132       28.622       13.707       16.602      819.232      187.870      275.643        0.391        0.064       80.847       12.956        0.026      335.748        6.588      866.465
10/02/2014  02:21:00      -51.656      -35.827        5.438       30.735       16.708       15.069      944.652      279.160      227.074        0.272        0.073       62.864       15.010        0.057      335.690        6.491      866.458
10/02/2014  02:22:00      -53.728      -31.448       -3.232       26.878       16.083       14.172      722.450      258.666      200.857        0.253        0.059       62.255       10.377        0.028      335.770        6.625      866.449
10/02/2014  02:23:00      -56.675      -29.515       -2.547       26.387       19.068       14.835      696.255      363.594      220.064        0.268        0.064       63.900        7.497        0.014      335.760        6.609      866.441
10/02/2014  02:24:00      -56.641      -29.119       -1.729       40.482       23.456       18.527     1638.813      550.164      343.231        0.330        0.127       63.687       22.047        0.120      335.757        6.604      866.446
10/02/2014  02:25:00      -79.440      -59.502       -0.968       38.039       23.502       15.448     1446.990      552.349      238.634        0.604        0.112       99.254       16.298        0.027      335.700        6.509      866.444
10/02/2014  02:26:00     -114.443      -56.939      -10.041       27.452       23.951       21.829      753.605      573.672      476.488        0.912        0.090      127.825       14.440        0.013      335.709        6.523      866.444
10/02/2014  02:27:00     -125.867      -76.721       -5.622       45.409       29.333       21.869     2061.942      860.404      478.233        1.258        0.170      147.406       16.748        0.013      335.694        6.500      866.449
10/02/2014  02:28:00     -107.252      -76.569        0.461       46.992       39.028       28.803     2208.266     1523.183      829.585        1.096        0.228      131.779       20.816        0.025      335.692        6.495      866.459
10/02/2014  02:29:00     -100.888      -77.386      -10.082       34.700       44.628       22.452     1204.078     1991.619      504.070        0.998        0.185      127.150       14.952        0.014      335.660        6.442      866.464
10/02/2014  02:30:00     -148.617     -140.376      -17.419       38.782       35.718       23.793     1504.020     1275.785      566.123        2.272        0.167      204.432       19.410        0.009      335.585        6.317      866.445
10/02/2014  02:31:00     -130.763     -118.402      -12.932       32.684       38.083       22.586     1068.235     1450.283      510.149        1.716        0.151      176.403       14.659        0.007      335.612        6.361      866.434
10/02/2014  02:32:00     -115.166      -80.465       -3.527       42.142       32.244       23.470     1775.908     1039.704      550.836        1.156        0.168      140.491       20.655        0.022      335.610        6.358      866.426
10/02/2014  02:33:00     -132.075     -118.475       -6.933       46.445       41.731       28.375     2157.176     1741.450      805.152        1.812        0.235      177.426       24.108        0.018      335.547        6.253      866.440
10/02/2014  02:34:00     -128.774      -93.357      -19.796       41.392       39.880       23.642     1713.302     1590.445      558.927        1.478        0.193      159.054       22.334        0.020      335.470        6.125      866.452
10/02/2014  02:35:00     -135.143      -81.432       -8.635       37.746       29.014       22.047     1424.754      841.810      486.055        1.386        0.138      157.781       13.863        0.008      335.554        6.266      866.458
10/02/2014  02:36:00      -86.543      -59.043        3.855       39.583       39.074       22.775     1566.776     1526.746      518.679        0.730        0.181      104.765       23.248        0.049      335.520        6.208      866.466
10/02/2014  02:37:00      -86.973      -49.461       -1.871       44.585       34.644       24.777     1987.842     1200.217      613.878        0.691        0.190      100.054       16.197        0.026      335.566        6.285      866.471
10/02/2014  02:38:00     -114.345      -68.766        2.964       37.472       27.386       26.343     1404.166      749.997      693.960        1.033        0.142      133.430       16.957        0.016      335.530        6.224      866.479
10/02/2014  02:39:00      -76.589      -56.510        5.842       53.556       32.293       24.139     2868.195     1042.846      582.713        0.679        0.225       95.180       25.918        0.074      335.529        6.224      866.477
10/02/2014  02:40:00      -99.180      -72.495        4.203       47.593       31.948       27.261     2265.052     1020.697      743.139        0.957        0.201      122.851       27.270        0.049      335.514        6.198      866.468
10/02/2014  02:41:00      -98.301      -50.788        2.840       51.032       44.381       26.177     2604.241     1969.656      685.215        0.875        0.263      110.646       25.587        0.053      335.501        6.176      866.457
10/02/2014  02:42:00     -133.489      -76.213        2.717       40.336       35.506       25.632     1626.987     1260.668      657.002        1.359        0.177      153.713       23.934        0.024      335.498        6.173      866.454
10/02/2014  02:43:00     -130.130      -70.315        6.426       51.694       35.397       29.541     2672.250     1252.973      872.667        1.336        0.240      147.912       27.233        0.034      335.457        6.104      866.433
10/02/2014  02:44:00      -95.020      -58.395        5.071       49.197       40.573       26.597     2420.351     1646.159      707.403        0.862        0.239      111.530       27.533        0.061      335.448        6.087      866.418
10/02/2014  02:45:00      -99.964      -54.640        6.122       49.288       41.887       27.807     2429.286     1754.493      773.202        0.899        0.248      113.922       30.449        0.071      335.435        6.065      866.414
10/02/2014  02:46:00      -91.647      -61.928        2.196       46.970       38.841       22.468     2206.204     1508.662      504.820        0.823        0.211      110.609       23.508        0.045      335.455        6.101      866.404
10/02/2014  02:47:00     -121.586      -71.949       -1.694       47.660       27.635       18.733     2271.436      763.712      350.939        1.167        0.169      141.279       20.554        0.021      335.485        6.151      866.391
10/02/2014  02:48:00      -93.954      -56.201        5.177       47.828       31.455       19.260     2287.540      989.393      370.957        0.783        0.182      109.480       14.712        0.018      335.465        6.118      866.399
10/02/2014  02:49:00      -95.901      -54.547        3.209       47.841       36.914       27.795     2288.758     1362.628      772.590        0.830        0.221      110.328       25.837        0.055      335.437        6.069      866.405
10/02/2014  02:50:00     -149.078      -58.827       -4.328       27.492       34.732       18.096      755.808     1206.293      327.451        1.400        0.114      160.265       19.173        0.014      335.496        6.169      866.406
10/02/2014  02:51:00     -115.139      -67.096        1.242       37.414       30.826       22.327     1399.798      950.233      498.515        1.030        0.142      133.262       20.617        0.024      335.436        6.067      866.405
10/02/2014  02:52:00     -100.040      -67.893        1.490       35.095       25.692       21.050     1231.654      660.093      443.121        0.848        0.117      120.903       18.153        0.023      335.446        6.084      866.392
10/02/2014  02:53:00      -97.235      -66.869        3.909       44.770       28.622       26.709     2004.324      819.197      713.366        0.874        0.177      118.009       22.408        0.036      335.434        6.064      866.381
10/02/2014  02:54:00     -115.923      -76.419       -6.428       35.953       28.547       20.127     1292.654      814.940      405.112        1.092        0.126      138.845       13.609        0.010      335.449        6.089      866.369
10/02/2014  02:55:00      -65.495      -49.967        5.734       44.682       39.153       24.472     1996.498     1532.983      598.885        0.547        0.206       82.379       20.812        0.064      335.427        6.052      866.358
10/02/2014  02:56:00      -80.983      -55.220        6.042       60.534       33.228       28.709     3664.317     1104.132      824.208        0.762        0.280       98.018       27.760        0.080      335.390        5.991      866.357
10/02/2014  02:57:00      -93.584      -72.419        2.546       55.321       36.202       27.201     3060.456     1310.588      739.870        0.956        0.256      118.332       25.162        0.045      335.383        5.980      866.374
10/02/2014  02:58:00      -66.723      -50.613        6.688       66.817       31.695       29.639     4464.565     1004.587      878.452        0.670        0.317       83.747       31.935        0.145      335.372        5.960      866.380
10/02/2014  02:59:00      -96.553      -62.260        8.768       45.880       37.371       26.656     2104.989     1396.582      710.522        0.874        0.211      114.886       26.890        0.055      335.328        5.888      866.381
10/02/2014  03:00:00      -87.941      -55.506        2.380       53.012       38.215       25.131     2810.291     1460.381      631.591        0.786        0.245      103.993       23.731        0.052      335.312        5.860      866.377
10/02/2014  03:01:00     -115.394      -58.985       -0.567       44.437       29.242       21.855     1974.612      855.091      477.625        1.005        0.165      129.595       18.716        0.021      335.339        5.908      866.387
10/02/2014  03:02:00     -146.654      -59.004       -3.888       38.467       33.115       21.535     1479.674     1096.602      463.749        1.402        0.152      158.078       17.523        0.012      335.339        5.906      866.380
10/02/2014  03:03:00     -120.120      -67.541       -4.516       43.670       32.399       21.113     1907.055     1049.713      445.775        1.121        0.170      137.806       16.392        0.014      335.338        5.906      866.368
10/02/2014  03:04:00     -140.146      -53.640      -13.266       24.510       27.932       17.584      600.742      780.208      309.192        1.219        0.085      150.061       11.971        0.006      335.341        5.908      866.365
10/02/2014  03:05:00     -128.932      -38.148       -9.328       33.667       24.648       18.959     1133.494      607.505      359.460        1.013        0.105      134.457       17.417        0.017      335.357        5.936      866.372
10/02/2014  03:06:00     -140.143      -25.750       -0.956       28.799       19.933       22.826      829.377      397.311      521.009        1.103        0.087      142.489       19.758        0.019      335.290        5.823      866.378
10/02/2014  03:07:00     -132.316      -55.488       -6.359       32.199       21.607       18.762     1036.776      466.881      352.006        1.124        0.093      143.480       18.438        0.017      335.267        5.786      866.384
10/02/2014  03:08:00     -109.205      -49.904       -3.658       33.803       22.155       16.265     1142.662      490.866      264.539        0.816        0.095      120.067       12.079        0.010      335.284        5.815      866.399
10/02/2014  03:09:00      -77.516      -63.265       -5.944       37.708       26.132       20.824     1421.881      682.858      433.658        0.629        0.127      100.055       20.327        0.041      335.308        5.854      866.404
10/02/2014  03:10:00      -93.781      -31.137       -1.969       23.199       17.511       10.446      538.179      306.619      109.116        0.536        0.048       98.815        7.212        0.005      335.363        5.945      866.407
10/02/2014  03:11:00      -72.887      -35.673        3.249       37.793       22.524       17.146     1428.298      507.327      294.002        0.441        0.111       81.148       18.362        0.051      335.286        5.817      866.407
10/02/2014  03:12:00      -96.160      -35.466      -10.664       16.705       18.477       12.888      279.049      341.418      166.098        0.570        0.039      102.492        7.813        0.006      335.289        5.823      866.408
10/02/2014  03:13:00      -96.026      -44.035       -4.327       19.400       13.874       13.619      376.350      192.487      185.464        0.597        0.038      105.642       13.847        0.017      335.299        5.840      866.396
10/02/2014  03:14:00      -98.716      -46.891       -6.644       13.373       17.082       10.141      178.831      291.778      102.847        0.628        0.029      109.287        5.659        0.003      335.269        5.789      866.382
10/02/2014  03:15:00      -62.692      -42.797       -0.481       28.432       23.949       19.111      808.376      573.573      365.214        0.375        0.087       75.907       14.938        0.039      335.247        5.753      866.375
10/02/2014  03:16:00      -41.677      -29.193        6.337       37.038       24.210       18.206     1371.812      586.116      331.450        0.246        0.114       50.884       15.822        0.097      335.216        5.703      866.377
10/02/2014  03:17:00      -44.580      -71.023        4.341       28.429       30.451       20.460      808.224      927.250      418.622        0.460        0.108       83.855       19.745        0.055      335.277        5.803      866.390
10/02/2014  03:18:00      -95.969      -58.846       -0.415       37.861       27.961       22.255     1433.452      781.804      495.285        0.769        0.136      112.574       20.091        0.032      335.313        5.862      866.389
10/02/2014  03:19:00      -88.403      -62.686        8.092       43.617       34.605       25.571     1902.477     1197.486      653.892        0.778        0.188      108.373       24.308        0.050      335.312        5.860      866.387
10/02/2014  03:20:00     -106.336      -84.812       -7.961       29.442       32.389       21.851      866.831     1049.046      477.449        1.048        0.120      136.016       16.504        0.015      335.271        5.793      866.387
10/02/2014  03:21:00     -102.959      -51.072       -0.259       35.881       21.241       21.055     1287.450      451.188      443.322        0.770        0.109      114.930       19.895        0.030      335.285        5.815      866.384
10/02/2014  03:22:00      -80.115      -54.641       -1.874       55.458       34.551       18.723     3075.597     1193.784      350.562        0.701        0.231       96.974       25.375        0.068      335.272        5.794      866.382
10/02/2014  03:23:00      -94.033      -67.056        6.558       46.201       35.394       22.209     2134.508     1252.749      493.224        0.863        0.194      115.494       21.379        0.034      335.289        5.822      866.375
10/02/2014  03:24:00     -113.686      -86.997       -0.362       39.035       51.987       30.110     1523.712     2702.632      906.586        1.281        0.257      143.154       29.229        0.042      335.227        5.720      866.370
10/02/2014  03:25:00     -136.535      -68.177       -4.869       30.028       28.323       21.971      901.702      802.181      482.707        1.275        0.109      152.610       12.431        0.007      335.256        5.767      866.370
10/02/2014  03:26:00      -65.225      -57.580        3.610       48.818       33.131       22.966     2383.220     1097.649      527.418        0.579        0.200       87.004       19.300        0.049      335.197        5.671      866.388
10/02/2014  03:27:00      -89.458      -55.048       -3.283       39.576       27.105       25.258     1566.240      734.662      637.989        0.699        0.147      105.038       26.140        0.062      335.198        5.670      866.389
10/02/2014  03:28:00      -82.848      -64.447        2.243       39.495       26.431       21.169     1559.858      698.619      448.132        0.686        0.135      104.963       21.673        0.043      335.214        5.698      866.391
10/02/2014  03:29:00      -56.042      -44.671        6.344       43.141       31.449       19.716     1861.108      989.061      388.708        0.421        0.162       71.667       17.836        0.062      335.261        5.777      866.394
10/02/2014  03:30:00      -60.244      -44.180        3.760       33.410       25.621       17.539     1116.247      656.437      307.631        0.384        0.104       74.708       15.326        0.042      335.230        5.725      866.405
10/02/2014  03:31:00      -82.176      -74.797       -1.467       36.864       34.020       24.039     1358.977     1157.365      577.881        0.772        0.155      111.119       20.625        0.034      335.203        5.680      866.415
10/02/2014  03:32:00      -91.357     -105.448       -8.270       26.224       31.736       22.147      687.693     1007.198      490.497        1.086        0.109      139.518       17.401        0.016      335.181        5.644      866.420
10/02/2014  03:33:00      -84.423      -37.810        1.335       42.944       30.513       24.094     1844.157      931.062      580.501        0.596        0.168       92.503       19.082        0.043      335.153        5.598      866.423
10/02/2014  03:34:00     -121.987      -90.656       -2.356       42.878       37.520       26.605     1838.490     1407.776      707.833        1.353        0.198      151.985       20.760        0.019      335.150        5.594      866.436
10/02/2014  03:35:00     -133.501      -59.318       -8.047       35.374       29.293       20.361     1251.290      858.109      414.591        1.196        0.126      146.086       14.527        0.010      335.134        5.567      866.443
10/02/2014  03:36:00     -101.106      -69.854       -0.187       49.210       33.439       23.262     2421.601     1118.197      541.125        0.959        0.204      122.891       23.782        0.037      335.118        5.540      866.448
10/02/2014  03:37:00      -77.807      -44.238        2.419       43.810       27.858       20.366     1919.348      776.046      414.760        0.556        0.156       89.504       20.889        0.054      335.117        5.538      866.450
10/02/2014  03:38:00      -37.910      -28.912       15.246       48.638       29.471       26.850     2365.625      868.529      720.941        0.323        0.198       47.677       28.786        0.365      335.132        5.563      866.452
10/02/2014  03:39:00      -82.106      -67.594       -4.483       40.048       40.414       21.851     1603.880     1633.298      477.467        0.752        0.186      106.350       19.224        0.033      335.149        5.592      866.447
10/02/2014  03:40:00      -99.573      -60.956       -3.796       30.023       29.732       17.246      901.378      883.969      297.416        0.786        0.104      116.750        7.766        0.004      335.125        5.553      866.462
10/02/2014  03:41:00      -91.897      -46.603       -0.105       38.889       26.850       18.025     1512.373      720.914      324.912        0.659        0.128      103.039       16.272        0.025      335.082        5.482      866.467
10/02/2014  03:42:00      -96.790      -58.759       -2.816       39.150       20.177       16.411     1532.757      407.115      269.336        0.752        0.110      113.230       10.163        0.008      335.072        5.465      866.465
10/02/2014  03:43:00      -72.309      -47.855        1.722       39.732       32.507       23.677     1578.630     1056.680      560.589        0.536        0.160       86.710       20.526        0.056      335.036        5.405      866.467
10/02/2014  03:44:00      -98.615      -60.810       -4.294       41.274       27.450       20.373     1703.515      753.504      415.057        0.816        0.144      115.857       18.076        0.024      335.030        5.393      866.476
10/02/2014  03:45:00      -60.985      -48.295       -7.106       27.632       20.137       15.936      763.548      405.505      253.957        0.376        0.071       77.792       11.565        0.022      335.091        5.496      866.479
10/02/2014  03:46:00      -64.423      -41.472       -3.743       25.267       14.388       15.615      638.415      207.007      243.836        0.349        0.054       76.618       14.810        0.037      335.129        5.558      866.489
10/02/2014  03:47:00      -49.489      -31.424       -0.390       24.026       17.038       17.077      577.250      290.299      291.637        0.230        0.058       58.623       12.166        0.043      335.143        5.582      866.496
10/02/2014  03:48:00      -49.744      -34.052        2.921       34.815       24.759       17.119     1212.054      613.008      293.067        0.288        0.106       60.283       16.680        0.077      335.038        5.408      866.516
10/02/2014  03:49:00      -76.454      -43.312        3.842       38.103       28.768       21.993     1451.812      827.587      483.709        0.525        0.138       87.870       22.606        0.066      334.963        5.284      866.535
10/02/2014  03:50:00      -72.894      -45.043        3.582       34.093       24.915       17.308     1162.366      620.736      299.553        0.472        0.104       85.688       12.333        0.021      334.994        5.333      866.542
10/02/2014  03:51:00      -99.501      -47.513        1.271       37.717       28.095       19.366     1422.552      789.322      375.029        0.737        0.129      110.263       18.811        0.029      334.991        5.330      866.533
10/02/2014  03:52:00     -100.668      -51.981       -1.447       40.067       27.745       20.188     1605.353      769.813      407.543        0.781        0.139      113.296       21.990        0.038      334.960        5.279      866.520
10/02/2014  03:53:00      -59.658      -39.850        2.401       50.787       28.226       17.968     2579.320      796.699      322.850        0.443        0.185       71.744       22.067        0.095      334.953        5.265      866.513
10/02/2014  03:54:00      -50.517      -49.817       -0.627       34.757       20.996       18.816     1208.033      440.831      354.049        0.352        0.100       70.948       19.313        0.074      335.061        5.446      866.507
10/02/2014  03:55:00      -64.478      -53.770       -6.028       32.473       18.991       14.363     1054.466      360.669      206.282        0.435        0.081       83.957        5.890        0.005      335.048        5.424      866.497
10/02/2014  03:56:00      -42.720      -46.955        5.446       39.574       26.268       19.518     1566.085      690.030      380.945        0.335        0.132       63.480       19.060        0.090      334.996        5.338      866.496
10/02/2014  03:57:00      -62.266      -32.771        4.712       34.523       28.422       20.604     1191.866      807.820      424.541        0.370        0.121       70.364       20.065        0.081      334.944        5.250      866.510
10/02/2014  03:58:00      -73.505      -55.463        2.307       39.718       31.176       21.072     1577.537      971.927      444.023        0.574        0.150       92.082       18.701        0.041      334.959        5.276      866.524
10/02/2014  03:59:00      -90.153      -56.513       -0.956       42.279       22.714       18.917     1787.472      515.914      357.835        0.699        0.133      106.402       21.885        0.042      334.923        5.216      866.546
10/02/2014  04:00:00      -97.373      -47.816       -8.893       29.349       24.775       13.986      861.377      613.818      195.616        0.676        0.084      108.480        9.613        0.008      334.955        5.269      866.568
10/02/2014  04:01:00     -125.410      -34.126       -7.442       25.361       26.712       13.166      643.175      713.509      173.344        0.924        0.077      129.970        6.320        0.002      334.951        5.263      866.586
10/02/2014  04:02:00     -122.514      -60.065       -8.342       26.748       20.136       15.042      715.456      405.468      226.270        1.002        0.067      136.446       13.098        0.009      334.877        5.139      866.604
10/02/2014  04:03:00     -117.089      -58.952        1.378       45.219       29.568       23.997     2044.801      874.252      575.861        1.034        0.175      131.092       26.459        0.041      334.871        5.130      866.630
10/02/2014  04:04:00     -117.963      -62.377        3.745       42.079       37.482       26.646     1770.619     1404.925      710.023        1.085        0.194      133.440       25.693        0.037      334.882        5.149      866.641
10/02/2014  04:05:00     -105.829      -70.082        2.658       42.739       34.162       26.465     1826.636     1167.069      700.406        0.991        0.185      126.930       23.171        0.033      334.896        5.171      866.648
10/02/2014  04:06:00      -82.521      -50.758       -0.428       36.795       33.492       21.379     1353.877     1121.720      457.071        0.616        0.147       96.881       20.802        0.046      334.888        5.157      866.656
10/02/2014  04:07:00     -104.676      -37.834       -7.469       27.192       22.625       15.748      739.384      511.907      248.012        0.697        0.075      111.303       12.781        0.013      334.872        5.132      866.661
10/02/2014  04:08:00      -60.679      -46.005        6.557       36.290       24.204       22.543     1316.990      585.841      508.182        0.413        0.121       76.148       20.475        0.072      334.947        5.256      866.664
10/02/2014  04:09:00      -63.909      -45.878        0.054       37.825       28.387       18.726     1430.732      805.819      350.663        0.439        0.129       78.671       21.189        0.073      334.966        5.287      866.658
10/02/2014  04:10:00      -56.870      -44.138        1.972       36.224       25.791       19.903     1312.157      665.196      396.112        0.378        0.119       71.989       20.650        0.082      335.029        5.394      866.649
10/02/2014  04:11:00      -99.478      -33.665       -2.063       20.064       17.714       12.824      402.558      313.786      164.449        0.596        0.044      105.020        6.216        0.004      335.024        5.384      866.651
10/02/2014  04:12:00      -98.677      -47.747       -4.757       14.874       18.126       12.222      221.248      328.558      149.385        0.637        0.035      109.622        2.269        0.000      335.021        5.380      866.656
10/02/2014  04:13:00      -96.290      -56.918       -4.175       22.596       16.409       12.512      510.572      269.260      156.562        0.673        0.047      111.855       11.073        0.010      334.964        5.285      866.656
10/02/2014  04:14:00     -104.011      -53.451      -11.101       15.956       20.259       12.864      254.590      410.440      165.484        0.731        0.042      116.942        9.330        0.006      334.923        5.215      866.666
10/02/2014  04:15:00      -96.531      -41.892       -4.215       17.051       20.741       18.421      290.746      430.197      339.351        0.608        0.053      105.229       13.845        0.017      334.957        5.273      866.678
10/02/2014  04:16:00      -97.921      -57.793       -6.227       12.833       15.072       12.771      164.697      227.150      163.110        0.676        0.028      113.704        7.275        0.004      334.903        5.182      866.702
10/02/2014  04:17:00      -83.107      -47.034       -1.678       26.147       23.617       12.771      683.679      557.776      163.106        0.526        0.070       95.494       13.871        0.021      334.944        5.252      866.733
10/02/2014  04:18:00     -101.940      -30.901      -18.112       14.256       18.506       10.523      203.246      342.465      110.732        0.617        0.033      106.520        8.488        0.006      334.945        5.251      866.749
10/02/2014  04:19:00      -55.728      -43.352       -3.985       36.065       21.843       16.306     1300.667      477.102      265.885        0.352        0.102       70.604       16.226        0.053      334.950        5.261      866.768
10/02/2014  04:20:00      -83.972      -47.826       -8.946       14.196       11.211       11.809      201.527      125.679      139.447        0.494        0.023       96.636        5.840        0.004      334.958        5.275      866.793
10/02/2014  04:21:00      -61.034      -42.598       -2.668       19.325       16.534       13.919      373.460      273.378      193.735        0.319        0.042       74.429        6.549        0.008      334.978        5.308      866.804
10/02/2014  04:22:00      -38.914      -23.423       -0.692       27.561       12.339       10.176      759.599      152.249      103.542        0.154        0.051       45.420        6.277        0.019      334.930        5.230      866.812
10/02/2014  04:23:00      -32.312      -25.380        2.641       34.341       18.395       13.600     1179.285      338.391      184.952        0.170        0.085       41.088       12.687        0.095      335.012        5.366      866.820
10/02/2014  04:24:00      -54.820      -33.293       -0.595       28.587       28.775       17.857      817.236      828.023      318.870        0.304        0.098       64.137       13.120        0.042      334.957        5.273      866.821
10/02/2014  04:25:00      -48.266      -37.874        1.818       33.721       24.198       18.600     1137.092      585.523      345.948        0.292        0.103       61.352       11.547        0.035      334.916        5.205      866.824
10/02/2014  04:26:00      -30.845      -28.640        4.906       35.300       24.931       17.582     1246.105      621.555      309.115        0.199        0.109       42.091       16.444        0.153      334.856        5.104      866.832
10/02/2014  04:27:00      -79.945      -47.911        0.120       17.161       20.322       15.529      294.498      412.982      241.161        0.482        0.047       93.202        9.605        0.011      334.874        5.134      866.827
10/02/2014  04:28:00      -58.228      -37.257        5.369       39.651       19.028       16.487     1572.206      362.076      271.811        0.351        0.110       69.127       21.805        0.099      334.876        5.136      866.828
10/02/2014  04:29:00      -64.796      -51.374        0.183       38.564       28.355       14.466     1487.216      804.012      209.274        0.467        0.125       82.691       17.327        0.044      334.890        5.161      866.828
10/02/2014  04:30:00      -69.243      -49.166       -6.413       16.483       22.327       13.156      271.700      498.485      173.091        0.410        0.047       84.923        9.705        0.013      334.969        5.292      866.829
10/02/2014  04:31:00      -60.454      -30.296       -1.340       21.313       16.465       13.463      454.237      271.099      181.254        0.274        0.045       67.621       12.666        0.035      334.958        5.275      866.832
10/02/2014  04:32:00      -63.699      -63.168       -6.352       30.664       31.243       16.847      940.266      976.131      283.806        0.514        0.110       89.709       16.144        0.032      334.971        5.296      866.836
10/02/2014  04:33:00      -82.091      -55.343      -14.328       36.937       32.746       19.395     1364.360     1072.284      376.184        0.641        0.141       99.004       16.357        0.027      334.963        5.282      866.834
10/02/2014  04:34:00      -70.676      -34.961       -0.322       42.416       33.399       24.763     1799.111     1115.511      613.221        0.487        0.176       78.850       18.701        0.056      334.920        5.211      866.828
10/02/2014  04:35:00      -80.848      -80.519      -14.420       32.489       28.121       19.203     1055.558      790.818      368.759        0.772        0.111      114.104        9.021        0.006      334.960        5.277      866.819
10/02/2014  04:36:00      -76.861      -59.536       -7.007       42.844       24.356       23.449     1835.580      593.195      549.851        0.624        0.149       97.222       23.729        0.060      334.910        5.194      866.814
10/02/2014  04:37:00      -68.360      -55.087       -6.299       30.953       25.600       17.041      958.086      655.383      290.392        0.483        0.095       87.793       13.790        0.025      334.927        5.222      866.822
10/02/2014  04:38:00      -90.099      -67.109      -15.670       17.325       21.251       12.595      300.162      451.623      158.637        0.689        0.046      112.345        9.426        0.007      334.894        5.167      866.832
10/02/2014  04:39:00      -60.199      -47.866        3.825       34.290       25.768       19.437     1175.803      664.012      377.800        0.407        0.111       76.909       17.489        0.052      334.900        5.178      866.849
10/02/2014  04:40:00      -93.508      -41.669       -1.629       29.867       33.607       22.056      892.016     1129.443      486.486        0.649        0.125      102.372       18.648        0.033      334.905        5.187      866.860
10/02/2014  04:41:00     -100.954      -58.445       -1.962       29.044       22.131       19.690      843.564      489.787      387.705        0.767        0.086      116.651       16.443        0.020      334.914        5.201      866.865
10/02/2014  04:42:00      -69.170      -37.343       -0.864       38.325       28.063       16.592     1468.794      787.531      275.294        0.436        0.127       78.606       15.001        0.036      334.840        5.079      866.893
10/02/2014  04:43:00      -62.274      -39.282        3.340       43.524       27.351       18.611     1894.324      748.093      346.388        0.421        0.149       73.628       20.517        0.078      334.838        5.074      866.893
10/02/2014  04:44:00      -63.435      -38.059        5.382       45.284       18.417       19.073     2050.648      339.204      363.781        0.413        0.138       73.976       14.009        0.036      334.864        5.117      866.896
10/02/2014  04:45:00      -97.894      -22.600      -10.868       19.243       17.360       11.836      370.276      301.363      140.084        0.551        0.041      100.468        7.398        0.005      334.890        5.160      866.890
10/02/2014  04:46:00     -110.005      -18.812      -14.909       14.234       16.253       11.353      202.594      264.168      128.889        0.664        0.030      111.602        5.131        0.002      334.855        5.103      866.883
10/02/2014  04:47:00      -88.113      -14.674       -5.127       28.732       15.719       14.902      825.510      247.092      222.084        0.465        0.065       89.326       16.176        0.033      334.775        4.971      866.884
10/02/2014  04:48:00      -99.297      -19.577       -7.936       16.233       17.392       13.645      263.517      302.473      186.173        0.553        0.038      101.209        8.771        0.008      334.775        4.970      866.898
10/02/2014  04:49:00      -96.609      -22.081       -8.135       16.941       14.935       11.705      287.013      223.041      137.013        0.527        0.032       99.100        8.862        0.008      334.742        4.914      866.921
10/02/2014  04:50:00     -100.964      -19.320      -13.628       17.110       14.611       13.563      292.737      213.475      183.944        0.572        0.035      102.795        8.614        0.007      334.706        4.855      866.950
10/02/2014  04:51:00      -90.262      -41.473       -6.263       26.512       25.277       17.258      702.883      638.950      297.826        0.577        0.082       99.334       13.759        0.019      334.756        4.939      866.978
10/02/2014  04:52:00      -88.736      -45.494       -1.563       32.010       25.230       14.530     1024.647      636.539      211.135        0.591        0.094       99.719       13.057        0.017      334.770        4.961      866.986
10/02/2014  04:53:00      -98.786      -38.460       -4.037       26.818       18.666       16.717      719.216      348.417      279.448        0.630        0.067      106.009       17.490        0.027      334.694        4.835      866.986
10/02/2014  04:54:00      -68.504      -29.304       -2.239       23.259       24.218       13.674      540.995      586.500      186.975        0.344        0.066       74.509        9.433        0.016      334.719        4.875      866.977
10/02/2014  04:55:00      -64.310      -47.240       -9.719       31.497       18.286       13.561      992.034      334.360      183.908        0.399        0.076       79.796        9.790        0.015      334.720        4.878      866.976
10/02/2014  04:56:00      -62.955      -38.618       -3.843       37.679       18.705       14.419     1419.718      349.862      207.902        0.372        0.099       73.856       13.795        0.035      334.716        4.873      866.974
10/02/2014  04:57:00      -77.906      -43.383       -2.285       27.565       16.667       14.112      759.808      277.781      199.152        0.460        0.062       89.171       10.119        0.013      334.677        4.808      866.981
10/02/2014  04:58:00      -79.749      -44.080       -2.973       22.550       17.366       14.855      508.518      301.586      220.666        0.467        0.052       91.121       12.357        0.018      334.628        4.726      866.994
10/02/2014  04:59:00      -56.987      -33.869       -0.255       32.469       20.572       14.113     1054.228      423.191      199.169        0.304        0.084       66.292       16.941        0.065      334.604        4.684      867.009
10/02/2014  05:00:00      -85.057      -29.964       -8.438       15.353       18.241       12.286      235.716      332.733      150.935        0.446        0.036       90.180        9.180        0.010      334.644        4.753      867.014
10/02/2014  05:01:00      -73.449      -19.353       -5.958       26.713       17.596       11.770      713.611      309.622      138.528        0.348        0.058       75.956       11.236        0.022      334.684        4.820      867.023
10/02/2014  05:02:00      -88.525      -18.778      -10.053       32.812       13.867       15.273     1076.655      192.299      233.269        0.490        0.075       90.494       18.215        0.041      334.649        4.760      867.041
10/02/2014  05:03:00      -76.774      -13.942       -3.164       20.343       20.101       15.515      413.854      404.035      240.704        0.358        0.053       78.029       13.171        0.028      334.602        4.682      867.059
10/02/2014  05:04:00      -73.981      -21.455      -10.627       14.621       13.450       13.197      213.760      180.892      174.163        0.331        0.028       77.030       10.674        0.019      334.597        4.674      867.080
10/02/2014  05:05:00      -69.308      -33.799       -6.463       12.766       14.050       12.210      162.960      197.400      149.078        0.325        0.025       77.110        5.637        0.005      334.699        4.845      867.089
10/02/2014  05:06:00      -75.818      -37.774       -3.541       15.803       21.787       10.384      249.734      474.654      107.835        0.401        0.042       84.707        7.191        0.007      334.747        4.925      867.102
10/02/2014  05:07:00      -94.719      -40.286       -7.613       13.187       19.528       10.276      173.889      381.360      105.604        0.566        0.033      102.930        6.517        0.004      334.722        4.881      867.106
10/02/2014  05:08:00      -96.971      -24.355       -9.640       18.801       20.948       12.579      353.495      438.828      158.219        0.552        0.048       99.983        8.227        0.007      334.683        4.817      867.113
10/02/2014  05:09:00      -95.554      -17.083       -8.212       24.436       20.043       12.539      597.139      401.726      157.229        0.532        0.058       97.069        9.793        0.010      334.551        4.598      867.126
10/02/2014  05:10:00      -91.128      -14.796       -7.500       26.622       21.855       15.962      708.715      477.642      254.788        0.501        0.072       92.321       13.630        0.022      334.517        4.541      867.148
10/02/2014  05:11:00      -91.182      -20.854      -10.998       16.890       20.358       12.685      285.257      414.428      160.903        0.487        0.043       93.536        9.894        0.011      334.519        4.545      867.164
10/02/2014  05:12:00      -69.685      -28.189       -6.258       16.015       17.847       12.593      256.495      318.533      158.572        0.321        0.037       75.171       10.665        0.020      334.562        4.616      867.176
10/02/2014  05:13:00      -54.836      -10.459       -6.534       25.095       21.406       16.416      629.771      458.197      269.491        0.226        0.068       55.824       16.567        0.088      334.548        4.592      867.176
10/02/2014  05:14:00      -35.703      -13.215       -8.702       19.213       20.636       12.775      369.141      425.847      163.202        0.124        0.048       38.070        9.139        0.058      334.564        4.620      867.178
10/02/2014  05:15:00      -47.627      -20.440       -7.491       17.596       14.120        9.338      309.611      199.387       87.190        0.167        0.030       51.828        4.752        0.008      334.596        4.673      867.189
10/02/2014  05:16:00      -48.031      -17.781       -9.621       14.655       10.900       11.059      214.755      118.799      122.309        0.159        0.023       51.217        7.734        0.023      334.569        4.628      867.189
10/02/2014  05:17:00      -67.468      -19.041      -11.592       16.234       16.173       14.106      263.544      261.581      198.970        0.289        0.036       70.103        6.306        0.008      334.639        4.744      867.186
10/02/2014  05:18:00      -74.001      -25.089      -15.525       13.111       18.595       13.009      171.902      345.788      169.233        0.352        0.034       78.138        9.615        0.015      334.582        4.649      867.178
10/02/2014  05:19:00      -67.290      -20.810       -6.826       24.200       24.189       13.401      585.662      585.131      179.576        0.318        0.068       70.435        8.638        0.015      334.624        4.720      867.178
10/02/2014  05:20:00      -24.436      -24.953       -0.736       19.078       20.473       17.780      363.984      419.158      316.115        0.116        0.055       34.925       14.092        0.163      334.531        4.564      867.174
10/02/2014  05:21:00      -56.976      -44.208       -8.750       27.175       23.162       23.333      738.472      536.466      544.449        0.355        0.091       72.116       21.005        0.085      334.645        4.755      867.173
10/02/2014  05:22:00      -59.271      -35.500      -14.537       16.790       11.078        8.401      281.914      122.729       70.570        0.273        0.024       69.089        3.936        0.003      334.591        4.664      867.171
10/02/2014  05:23:00      -83.796      -24.114      -16.197       10.179        8.191        8.507      103.613       67.087       72.369        0.405        0.012       87.197        3.507        0.002      334.599        4.678      867.159
10/02/2014  05:24:00      -64.521      -27.519      -11.883       14.193       12.030        7.845      201.444      144.733       61.544        0.273        0.020       70.144        5.355        0.006      334.648        4.761      867.162
10/02/2014  05:25:00      -55.599      -10.060       -6.905       18.849       14.558        7.964      355.295      211.943       63.425        0.194        0.032       56.502        7.427        0.017      334.705        4.855      867.177
10/02/2014  05:26:00      -81.652      -24.044       -9.136       13.323       13.433       11.760      177.494      180.445      138.293        0.391        0.025       85.119        7.542        0.008      334.761        4.948      867.188
10/02/2014  05:27:00      -92.628      -24.787      -12.456       17.839       19.891       12.553      318.242      395.660      157.569        0.511        0.044       95.887        6.730        0.005      334.719        4.876      867.197
10/02/2014  05:28:00     -106.848      -15.989      -13.937       19.408       10.403        9.483      376.655      108.216       89.923        0.622        0.029      108.038        7.267        0.005      334.642        4.751      867.209
10/02/2014  05:29:00     -109.983      -19.790      -15.712       14.279       12.641        7.885      203.902      159.806       62.180        0.658        0.021      111.749        4.218        0.001      334.669        4.794      867.226
10/02/2014  05:30:00     -102.903      -18.188       -7.287       18.055       13.885       11.006      325.993      192.787      121.134        0.581        0.032      104.498        4.663        0.002      334.680        4.811      867.249
10/02/2014  05:31:00      -94.268      -23.645       -6.553       17.532       13.472       10.275      307.360      181.503      105.574        0.504        0.030       97.188        6.547        0.005      334.705        4.854      867.278
10/02/2014  05:32:00      -89.275      -23.497       -8.220       14.322       17.731       12.421      205.110      314.397      154.285        0.463        0.034       92.315        6.222        0.005      334.745        4.920      867.300
10/02/2014  05:33:00      -91.037      -42.812       -9.469       12.280       12.848        9.652      150.797      165.073       93.154        0.531        0.020      100.602        7.300        0.005      334.778        4.975      867.322
10/02/2014  05:34:00      -58.346      -31.100       -7.808       23.155       14.892       11.958      536.172      221.776      143.002        0.267        0.045       66.117        7.201        0.012      334.756        4.940      867.325
10/02/2014  05:35:00      -60.295      -31.246       -2.082       20.762       14.579       11.700      431.071      212.540      136.897        0.270        0.039       67.910        7.807        0.013      334.744        4.918      867.326
10/02/2014  05:36:00      -69.586      -38.412      -13.319       14.867       10.796        9.748      221.013      116.562       95.022        0.346        0.022       79.484        3.219        0.002      334.717        4.875      867.334
10/02/2014  05:37:00      -65.088      -34.150       -6.255       20.905       16.834       14.235      437.001      283.377      202.644        0.318        0.046       73.503        9.269        0.016      334.651        4.765      867.351
10/02/2014  05:38:00      -62.941      -41.735       -2.155       26.197       19.537       16.766      686.262      381.706      281.095        0.353        0.067       75.521       14.230        0.036      334.601        4.683      867.362
10/02/2014  05:39:00     -103.666      -84.701      -15.428       18.688       20.688       19.582      349.258      427.986      383.460        0.966        0.058      133.869       14.631        0.012      334.637        4.739      867.375
10/02/2014  05:40:00      -98.586      -70.669       -3.594       34.455       29.461       25.337     1187.171      867.951      641.960        0.871        0.135      121.298       24.935        0.042      334.627        4.724      867.392
10/02/2014  05:41:00     -111.330      -68.537       -9.119       28.311       34.222       21.866      801.506     1171.165      478.120        0.981        0.123      130.735        5.760        0.002      334.751        4.929      867.403
10/02/2014  05:42:00      -53.564      -71.108       -7.573       42.601       36.014       26.880     1814.826     1297.037      722.561        0.591        0.192       89.025       11.513        0.017      334.704        4.853      867.413
10/02/2014  05:43:00      -67.129     -101.317       -3.213       36.732       36.934       26.938     1349.274     1364.095      725.667        0.911        0.172      121.538       19.686        0.026      334.673        4.801      867.436
10/02/2014  05:44:00      -84.221      -46.523        4.025       50.963       45.775       28.136     2597.210     2095.354      791.659        0.738        0.274       96.216       15.351        0.025      334.561        4.613      867.458
10/02/2014  05:45:00     -118.849      -90.093       -3.285       45.014       46.821       29.306     2026.251     2192.246      858.836        1.366        0.254      149.137       27.600        0.034      334.510        4.530      867.479
10/02/2014  05:46:00     -124.176      -99.810       -4.891       44.633       33.341       31.657     1992.063     1111.629     1002.183        1.476        0.205      159.316       24.015        0.023      334.441        4.416      867.496
10/02/2014  05:47:00     -129.042     -105.270       -1.801       64.610       60.659       29.937     4174.515     3679.556      896.200        1.824        0.438      166.534       29.262        0.031      334.452        4.432      867.514
10/02/2014  05:48:00     -128.714      -97.058       -2.407       62.009       44.966       29.978     3845.101     2021.917      898.698        1.638        0.338      161.207       31.775        0.039      334.477        4.474      867.535
10/02/2014  05:49:00     -146.686     -106.116      -13.038       26.275       31.464       22.381      690.390      989.969      500.895        1.756        0.109      181.045       14.426        0.006      334.509        4.528      867.565
10/02/2014  05:50:00     -136.596      -67.827       -3.678       40.630       31.495       22.037     1650.786      991.942      485.608        1.320        0.156      152.509       19.908        0.017      334.505        4.523      867.583
10/02/2014  05:51:00     -117.177      -77.503       -3.988       36.081       24.793       17.572     1301.857      614.716      308.767        1.099        0.111      140.489       10.461        0.006      334.517        4.540      867.600
10/02/2014  05:52:00      -86.777      -71.004       -0.638       39.759       33.284       21.838     1580.815     1107.847      476.917        0.787        0.158      112.124       23.830        0.045      334.577        4.641      867.610
10/02/2014  05:53:00     -107.330      -58.779        1.399       55.164       28.564       19.670     3043.043      815.904      386.907        0.961        0.212      122.371       22.856        0.035      334.590        4.662      867.618
10/02/2014  05:54:00      -99.361      -51.558        0.418       53.806       31.315       23.103     2895.136      980.607      533.737        0.847        0.220      111.941       17.241        0.024      334.519        4.544      867.632
10/02/2014  05:55:00     -123.342      -46.466        5.294       43.139       28.165       20.496     1860.974      793.268      420.085        1.024        0.154      131.804       24.450        0.034      334.579        4.644      867.648
10/02/2014  05:56:00     -116.487      -74.341       -7.439       43.389       29.150       24.707     1882.614      849.707      610.421        1.125        0.167      138.188       26.030        0.035      334.593        4.667      867.664
10/02/2014  05:57:00     -102.453      -40.458       -1.688       32.634       34.939       18.212     1065.009     1220.703      331.661        0.738        0.131      110.152       13.326        0.015      334.611        4.696      867.675
10/02/2014  05:58:00     -130.917      -27.839       -4.594       28.613       25.330       18.391      818.713      641.596      338.235        0.987        0.090      133.844       13.782        0.011      334.573        4.634      867.676
10/02/2014  05:59:00     -112.399      -33.092       -4.133       34.741       21.923       20.249     1206.925      480.599      410.022        0.792        0.105      117.169       18.186        0.024      334.563        4.618      867.675
10/02/2014  06:00:00     -120.634      -48.281       -1.079       29.122       28.611       16.251      848.105      818.579      264.086        0.941        0.097      129.937       16.421        0.016      334.575        4.638      867.679
10/02/2014  06:01:00     -102.137      -51.028        2.514       30.128       24.269       16.796      907.678      588.973      282.095        0.741        0.089      114.175       15.051        0.017      334.595        4.671      867.674
10/02/2014  06:02:00     -103.951      -47.947       -2.280       24.926       24.391       15.789      621.296      594.897      249.284        0.729        0.073      114.476       12.535        0.012      334.559        4.612      867.674
10/02/2014  06:03:00     -118.643      -58.419       -9.836       21.821       19.702       16.581      476.176      388.159      274.941        0.936        0.057      132.246        9.853        0.006      334.552        4.599      867.676
10/02/2014  06:04:00     -118.904      -60.884       -7.248       18.371       19.748       13.628      337.484      389.979      185.725        0.941        0.046      133.585        6.496        0.002      334.523        4.552      867.682
10/02/2014  06:05:00     -131.154      -46.403       -8.150       18.825       20.281       11.540      354.366      411.326      133.178        1.016        0.045      139.121        5.920        0.002      334.484        4.485      867.682
10/02/2014  06:06:00     -127.774      -52.724       -6.753       23.443       22.394       18.021      549.579      501.486      324.767        1.026        0.069      138.225       15.312        0.012      334.491        4.500      867.695
10/02/2014  06:07:00     -117.434      -30.364       -8.471       28.145       21.373       16.085      792.121      456.822      258.734        0.815        0.075      121.296       10.274        0.007      334.452        4.434      867.710
10/02/2014  06:08:00     -109.096      -41.060       -5.213       22.849       21.456       15.258      522.076      460.344      232.795        0.741        0.061      116.567       13.688        0.014      334.493        4.503      867.737
10/02/2014  06:09:00     -114.148      -37.628      -12.316       19.442       18.403       11.788      378.004      338.662      138.953        0.773        0.043      120.190        5.282        0.002      334.511        4.532      867.751
10/02/2014  06:10:00      -89.176      -30.963       -0.867       30.282       25.204       16.719      917.029      635.258      279.528        0.537        0.092       94.398       19.055        0.041      334.503        4.518      867.754
10/02/2014  06:11:00      -87.147      -45.220       -1.821       25.750       17.620       12.129      663.044      310.472      147.115        0.538        0.056       98.181       10.867        0.012      334.480        4.480      867.748
10/02/2014  06:12:00      -79.190      -43.372       -0.883       36.831       21.765       17.281     1356.554      473.699      298.647        0.514        0.106       90.289       19.527        0.047      334.474        4.469      867.747
10/02/2014  06:13:00      -89.484      -57.905       -5.547       34.720       18.799       17.146     1205.513      353.390      293.980        0.662        0.093      106.585        7.844        0.005      334.428        4.394      867.747
10/02/2014  06:14:00      -59.976      -47.320        7.013       44.703       31.812       19.033     1998.323     1012.006      362.266        0.463        0.169       76.396       21.434        0.079      334.391        4.334      867.739
10/02/2014  06:15:00      -94.638      -59.529       -0.373       40.168       36.735       26.449     1613.496     1349.475      699.568        0.808        0.183      111.803       22.723        0.041      334.370        4.298      867.741
10/02/2014  06:16:00     -119.028      -60.793        0.533       32.919       24.854       18.951     1083.666      617.729      359.139        0.996        0.103      133.654       15.366        0.013      334.395        4.339      867.740
10/02/2014  06:17:00      -85.394      -64.376       -3.572       42.091       31.775       22.131     1771.639     1009.644      489.779        0.736        0.164      106.941       19.983        0.035      334.392        4.335      867.747
10/02/2014  06:18:00     -103.760      -54.483       -2.695       38.175       22.406       21.485     1457.358      502.023      461.602        0.808        0.121      117.195       16.570        0.020      334.360        4.283      867.752
10/02/2014  06:19:00      -93.970      -63.071       -5.681       25.849       20.640       13.073      668.162      426.007      170.892        0.705        0.063      113.174        9.683        0.007      334.429        4.395      867.754
10/02/2014  06:20:00      -67.673      -53.182        1.318       32.526       23.082       21.520     1057.918      532.760      463.127        0.473        0.103       86.070       18.000        0.044      334.432        4.402      867.748
10/02/2014  06:21:00      -84.111      -60.205       -0.135       41.696       23.260       23.941     1738.574      541.045      573.173        0.678        0.143      103.437       22.443        0.047      334.375        4.307      867.736
10/02/2014  06:22:00      -51.245      -61.603        5.144       43.083       34.630       23.335     1856.158     1199.214      544.534        0.502        0.180       80.131       22.403        0.078      334.370        4.299      867.719
10/02/2014  06:23:00      -88.775      -69.011        3.013       41.158       32.700       24.811     1694.003     1069.315      615.562        0.802        0.169      112.443       20.306        0.033      334.374        4.306      867.709
10/02/2014  06:24:00      -97.758      -74.150        8.127       40.017       36.153       23.578     1601.377     1307.058      555.919        0.929        0.173      122.698       19.680        0.026      334.373        4.304      867.704
10/02/2014  06:25:00     -101.980     -115.691       -9.281       35.040       31.796       20.083     1227.831     1011.000      403.334        1.326        0.132      154.221       16.377        0.011      334.324        4.222      867.702
10/02/2014  06:26:00     -132.169     -107.727       -9.430       21.770       21.305       18.438      473.944      453.900      339.955        1.522        0.063      170.511        9.336        0.003      334.329        4.230      867.714
10/02/2014  06:27:00     -134.384     -118.205      -11.751       37.792       35.936       28.326     1428.270     1291.399      802.354        1.785        0.176      178.974       21.994        0.015      334.305        4.189      867.731
10/02/2014  06:28:00     -122.107      -88.225       -5.229       37.349       39.453       27.938     1394.970     1556.541      780.510        1.323        0.187      150.645       23.493        0.024      334.281        4.150      867.740
10/02/2014  06:29:00     -119.998      -83.114       -8.011       54.897       37.284       24.677     3013.686     1390.088      608.968        1.319        0.251      145.971       26.994        0.034      334.291        4.167      867.749
10/02/2014  06:30:00     -118.328     -117.358      -10.917       39.506       39.586       24.100     1560.725     1567.029      580.820        1.580        0.185      166.656       23.457        0.020      334.273        4.136      867.750
10/02/2014  06:31:00     -130.851      -91.079      -22.102       44.252       48.133       25.728     1958.261     2316.832      661.917        1.542        0.247      159.428       19.882        0.016      334.264        4.121      867.745
10/02/2014  06:32:00     -123.170      -93.771      -14.109       45.216       43.100       19.920     2044.452     1857.610      396.822        1.423        0.215      154.802        9.581        0.004      334.255        4.108      867.735
10/02/2014  06:33:00     -127.259      -93.582      -10.037       57.293       54.015       33.302     3282.473     2917.643     1109.019        1.618        0.365      157.963       31.765        0.040      334.204        4.021      867.726
10/02/2014  06:34:00     -164.078     -126.968      -13.023       46.883       42.156       33.393     2198.015     1777.102     1115.091        2.415        0.255      207.467       29.114        0.020      334.178        3.978      867.726
10/02/2014  06:35:00     -135.444     -109.651       -2.494       67.796       53.749       25.504     4596.287     2888.951      650.447        1.925        0.407      174.266       26.902        0.024      334.184        3.987      867.728
10/02/2014  06:36:00     -152.076      -97.903      -11.425       48.185       53.893       23.067     2321.800     2904.433      532.109        1.930        0.288      180.864       16.158        0.008      334.207        4.026      867.719
10/02/2014  06:37:00     -136.105      -62.945       -0.274       47.380       43.059       24.700     2244.842     1854.058      610.074        1.360        0.235      149.956       21.733        0.021      334.189        3.996      867.720
10/02/2014  06:38:00     -126.787      -54.883       -0.244       53.565       41.824       24.182     2869.192     1749.253      584.756        1.214        0.260      138.156       23.238        0.028      334.196        4.008      867.714
10/02/2014  06:39:00     -105.986      -63.202        3.895       47.599       40.164       28.661     2265.706     1613.173      821.481        0.997        0.235      123.400       26.205        0.045      334.243        4.087      867.723
10/02/2014  06:40:00      -80.542      -66.371       -3.431       45.882       29.669       18.158     2105.164      880.240      329.725        0.711        0.166      104.366       16.368        0.025      334.298        4.178      867.725
10/02/2014  06:41:00     -104.437     -104.766      -13.639       44.642       35.664       23.986     1992.919     1271.952      575.321        1.295        0.192      147.929       25.171        0.029      334.229        4.064      867.725
10/02/2014  06:42:00     -141.083     -114.064       -7.893       39.661       47.907       29.213     1572.966     2295.128      853.402        1.885        0.236      181.425       24.374        0.018      334.155        3.939      867.730
10/02/2014  06:43:00     -155.581     -101.438      -15.128       29.132       51.953       24.019      848.681     2699.125      576.916        1.942        0.206      185.729       16.951        0.008      334.164        3.955      867.737
10/02/2014  06:44:00     -140.163      -81.112       -1.920       45.951       51.631       29.734     2111.468     2665.749      884.098        1.594        0.283      161.940       26.168        0.026      334.179        3.979      867.745
10/02/2014  06:45:00     -124.831      -84.842       -3.232       43.765       43.145       30.846     1915.393     1861.457      951.502        1.376        0.236      150.934       21.780        0.021      334.137        3.911      867.766
10/02/2014  06:46:00     -120.209      -39.760       -6.432       47.690       31.453       31.433     2274.317      989.267      988.050        1.016        0.213      126.613       28.034        0.049      334.164        3.956      867.770
10/02/2014  06:47:00      -89.835      -51.698       -7.646       39.437       26.734       18.946     1555.245      714.703      358.938        0.671        0.131      103.648       17.560        0.029      334.205        4.025      867.767
10/02/2014  06:48:00     -118.465      -58.570       -9.094       39.359       33.315       25.304     1549.136     1109.894      640.293        1.042        0.165      132.153       18.280        0.019      334.222        4.052      867.758
10/02/2014  06:49:00     -107.266      -57.679       -1.208       38.088       30.105       26.824     1450.718      906.327      719.527        0.895        0.154      121.790       24.535        0.041      334.183        3.987      867.743
10/02/2014  06:50:00      -81.446      -80.168       -0.715       45.172       45.707       22.191     2040.485     2089.148      492.453        0.884        0.231      114.282       26.037        0.052      334.187        3.994      867.725
10/02/2014  06:51:00     -102.086      -69.516        2.121       55.097       39.730       27.195     3035.709     1578.460      739.579        1.031        0.268      123.507       32.632        0.070      334.202        4.019      867.720
10/02/2014  06:52:00      -79.648      -66.929       -2.575       46.231       30.972       23.487     2137.305      959.242      551.653        0.724        0.182      104.035       25.964        0.062      334.221        4.051      867.724
10/02/2014  06:53:00      -71.071      -70.337       -4.130       26.206       27.565       16.268      686.729      759.838      264.651        0.586        0.086       99.992       15.302        0.023      334.224        4.056      867.725
10/02/2014  06:54:00      -71.523      -53.572       -3.700       25.118       20.619       21.698      630.890      425.124      470.807        0.476        0.076       89.362        8.127        0.008      334.250        4.099      867.725
10/02/2014  06:55:00      -59.274      -40.098      -11.995       21.569       24.850       15.430      465.206      617.543      238.077        0.329        0.066       71.562       11.221        0.025      334.272        4.135      867.735
10/02/2014  06:56:00      -61.772      -35.394        0.025       26.819       22.373       19.362      719.243      500.558      374.870        0.333        0.080       71.193       15.006        0.044      334.234        4.072      867.741
10/02/2014  06:57:00      -45.130      -28.984        0.656       21.236       15.853       13.943      450.969      251.314      194.410        0.189        0.045       53.636       13.540        0.064      334.319        4.215      867.748
10/02/2014  06:58:00      -48.114      -29.493       -1.576       20.576       17.565       11.921      423.380      308.515      142.108        0.203        0.044       56.434        8.630        0.023      334.308        4.197      867.753
10/02/2014  06:59:00      -41.024      -32.349        3.243       36.671       26.581       14.376     1344.735      706.574      206.659        0.250        0.113       52.244       11.150        0.046      334.352        4.270      867.749
10/02/2014  07:00:00      -47.127      -40.754       -2.284       44.533       21.263       19.549     1983.173      452.129      382.160        0.335        0.141       62.304       15.795        0.064      334.392        4.335      867.744
10/02/2014  07:01:00      -34.849      -50.604        2.074       24.997       29.050       15.407      624.871      843.874      237.365        0.274        0.085       61.443       16.553        0.073      334.340        4.248      867.742
10/02/2014  07:02:00      -72.764      -46.979       -2.304       31.627       23.599       14.920     1000.251      556.924      222.598        0.464        0.089       86.612       11.737        0.018      334.304        4.187      867.748
10/02/2014  07:03:00      -79.492      -34.231        0.037       19.135       24.049       16.484      366.148      578.340      271.722        0.435        0.061       86.549       14.108        0.027      334.308        4.195      867.751
10/02/2014  07:04:00      -72.364      -36.234       -7.945       25.052       23.309       13.687      627.601      543.330      187.329        0.399        0.068       80.928        7.729        0.009      334.303        4.187      867.751
10/02/2014  07:05:00      -52.550      -33.203        3.319       32.321       53.531       20.208     1044.646     2865.621      408.358        0.410        0.216       62.161       18.562        0.089      334.339        4.246      867.751
10/02/2014  07:06:00      -86.981      -46.467       -1.858       36.580       24.565       18.982     1338.102      603.438      360.312        0.601        0.115       98.615       16.572        0.028      334.234        4.072      867.756
10/02/2014  07:07:00      -68.260      -36.856       -9.295       29.067       27.120       18.852      844.894      735.518      355.384        0.402        0.097       77.574        9.019        0.014      334.267        4.129      867.764
10/02/2014  07:08:00      -49.380      -33.227       -1.229       25.071       24.515       18.404      628.569      600.971      338.715        0.256        0.078       59.519       11.978        0.041      334.308        4.196      867.773
10/02/2014  07:09:00      -40.401       -7.791        2.658       27.009       21.107       17.234      729.498      445.517      297.024        0.159        0.074       41.145       16.695        0.165      334.303        4.187      867.792
10/02/2014  07:10:00      -21.487       -4.540        4.198       28.906       13.771       12.801      835.572      189.650      163.860        0.084        0.059       21.962       16.220        0.545      334.380        4.316      867.814
10/02/2014  07:11:00      -60.727      -37.004       -3.070       23.722       23.221       19.590      562.736      539.225      383.785        0.328        0.074       71.112        6.668        0.009      334.469        4.462      867.830
10/02/2014  07:12:00      -67.391      -27.001        4.107       46.829       24.784       16.809     2192.971      614.230      282.556        0.419        0.154       72.599       16.336        0.051      334.370        4.299      867.841
10/02/2014  07:13:00       -0.677      -26.691       11.939       31.374       24.648       18.576      984.297      607.502      345.068        0.140        0.097       26.700       20.033        0.563      334.507        4.525      867.856
10/02/2014  07:14:00       -6.902      -32.295       12.684       39.796       21.478       20.190     1583.734      461.300      407.639        0.185        0.123       33.025       17.338        0.276      334.491        4.498      867.858
10/02/2014  07:15:00      -44.420      -31.292        4.666       30.975       17.864       17.486      959.421      319.119      305.765        0.228        0.079       54.335       15.925        0.086      334.401        4.349      867.849
10/02/2014  07:16:00      -64.188      -17.477       -3.011       32.389       24.875       13.337     1049.020      618.770      177.875        0.314        0.092       66.525       17.579        0.070      334.353        4.270      867.841
10/02/2014  07:17:00      -71.888      -48.255       -3.780       30.898       24.126       18.320      954.670      582.071      335.616        0.469        0.094       86.582       16.354        0.036      334.396        4.341      867.832
10/02/2014  07:18:00     -109.498      -48.116       -0.488       27.237       23.894       16.623      741.846      570.900      276.315        0.795        0.079      119.604       13.959        0.014      334.296        4.175      867.809
10/02/2014  07:19:00     -102.723      -28.083       -0.329       27.215       27.856       16.978      740.681      775.949      288.257        0.657        0.090      106.493       10.895        0.010      334.306        4.191      867.797
10/02/2014  07:20:00      -55.563      -45.843        6.253       39.303       36.636       20.696     1544.726     1342.211      428.305        0.427        0.166       72.033       17.971        0.062      334.394        4.337      867.803
10/02/2014  07:21:00      -98.423      -67.589       -2.413       32.713       32.831       15.346     1070.115     1077.875      235.493        0.832        0.119      119.396       10.683        0.008      334.365        4.292      867.797
10/02/2014  07:22:00     -114.382      -59.437       -2.150       37.224       32.672       18.353     1385.622     1067.435      336.819        0.970        0.139      128.903       17.438        0.018      334.370        4.297      867.812
10/02/2014  07:23:00      -57.991      -21.453       10.519       42.985       34.982       20.702     1847.744     1223.747      428.590        0.372        0.175       61.832       21.013        0.115      334.414        4.371      867.813
10/02/2014  07:24:00     -127.926      -52.539       -5.157       37.486       33.600       21.738     1405.217     1128.962      472.530        1.108        0.150      138.295       15.285        0.012      334.321        4.216      867.831
10/02/2014  07:25:00     -106.038      -50.441        0.306       51.434       26.122       22.667     2645.461      682.358      513.792        0.881        0.192      117.423       24.728        0.044      334.309        4.196      867.844
10/02/2014  07:26:00      -32.406      -32.779       13.830       31.987       40.605       23.559     1023.158     1648.756      555.018        0.277        0.161       46.094       24.593        0.285      334.517        4.543      867.853
10/02/2014  07:27:00      -61.395      -28.468        9.390       38.568       30.903       22.157     1487.472      954.969      490.915        0.380        0.147       67.674       20.436        0.091      334.445        4.423      867.859
10/02/2014  07:28:00      -32.166      -88.973        1.787       40.155       57.285       19.009     1612.429     3281.585      361.352        0.710        0.263       94.609       17.976        0.036      334.340        4.249      867.872
10/02/2014  07:29:00      -23.228      -77.680        7.782       35.400       36.508       24.044     1253.177     1332.803      578.096        0.490        0.158       81.079       21.314        0.069      334.386        4.325      867.885
10/02/2014  07:30:00      -52.062      -48.003       -3.347       32.545       38.869       17.623     1059.170     1510.778      310.570        0.395        0.144       70.815       19.216        0.074      334.431        4.399      867.893
10/02/2014  07:31:00      -55.193      -22.829        4.955       29.025       28.796       19.967      842.440      829.197      398.677        0.283        0.104       59.728       20.220        0.115      334.458        4.446      867.895
10/02/2014  07:32:00      -48.868       -2.575       -5.455       21.269       13.147       10.918      452.353      172.838      119.198        0.158        0.037       48.936        5.602        0.013      334.431        4.399      867.905
10/02/2014  07:33:00      -65.178      -30.075       -5.245       17.882       18.992       11.747      319.770      360.702      137.986        0.300        0.041       71.782        6.674        0.009      334.463        4.452      867.911
10/02/2014  07:34:00      -38.974      -27.840       -0.714       12.756       12.996       10.588      162.706      168.896      112.108        0.137        0.022       47.896        6.251        0.017      334.512        4.533      867.918
10/02/2014  07:35:00      -49.339       -1.394       -1.175       23.907       26.453       11.516      571.523      699.768      132.619        0.192        0.070       49.358       10.412        0.045      334.486        4.491      867.927
10/02/2014  07:36:00      -73.791        2.575       -9.517       17.610       11.341        8.060      310.128      128.607       64.967        0.302        0.025       73.835        6.585        0.008      334.371        4.299      867.925
10/02/2014  07:37:00      -67.645        1.066      -10.147       16.951       12.056        8.483      287.338      145.354       71.959        0.259        0.025       67.654        3.988        0.003      334.436        4.408      867.937
10/02/2014  07:38:00      -44.895        3.823        1.817       15.448       17.925       11.937      238.654      321.314      142.487        0.137        0.035       45.057        9.029        0.040      334.456        4.441      867.942
10/02/2014  07:39:00      -45.186        1.388       -1.997       20.993       13.130       12.873      440.712      172.384      165.707        0.141        0.039       45.207       13.603        0.091      334.473        4.469      867.951
10/02/2014  07:40:00      -63.748       -4.851       -6.622       19.459       10.646       11.875      378.637      113.334      141.006        0.238        0.032       63.933       11.794        0.034      334.462        4.452      867.950
10/02/2014  07:41:00      -59.970       12.562       -4.040       13.760       11.429        7.899      189.325      130.630       62.397        0.208        0.019       61.271        1.913        0.001      334.465        4.456      867.950
10/02/2014  07:42:00      -60.595        3.521       -4.158       16.521       14.842        8.886      272.929      220.287       78.968        0.214        0.029       60.697        8.350        0.019      334.534        4.571      867.961
10/02/2014  07:43:00      -59.698       11.807       -4.723        9.792        8.387        8.922       95.883       70.336       79.599        0.199        0.012       60.854        1.979        0.001      334.532        4.568      867.966
10/02/2014  07:44:00      -43.205        4.815      -11.197       11.562        7.602        7.837      133.680       57.783       61.418        0.113        0.013       43.473        3.967        0.008      334.607        4.691      867.973
10/02/2014  07:45:00      -17.701        9.112        2.843        8.117       15.333       16.756       65.889      235.112      280.761        0.049        0.029       19.908       12.481        0.393      334.927        5.222      867.990
10/02/2014  07:46:00      -25.377       -5.719       -2.688        9.473        7.944        9.509       89.743       63.105       90.424        0.046        0.012       26.013        7.097        0.074      334.811        5.030      867.995
10/02/2014  07:47:00      -30.841      -14.661       -5.447       12.523       14.417       10.744      156.817      207.862      115.444        0.084        0.024       34.149       10.470        0.094      334.839        5.077      868.012
10/02/2014  07:48:00      -31.934      -10.565       -1.320       16.092       13.319       11.795      258.951      177.392      139.129        0.085        0.029       33.636        8.020        0.057      334.892        5.165      868.026
10/02/2014  07:49:00      -25.889       19.747       -3.124       11.781       12.225       12.862      138.794      149.453      165.430        0.076        0.023       32.560        7.782        0.057      334.995        5.336      868.042
10/02/2014  07:50:00      -10.262       15.899        5.641       18.806       17.809       14.783      353.650      317.176      218.550        0.064        0.044       18.923        9.667        0.261      335.063        5.449      868.062
10/02/2014  07:51:00       -1.783       28.121       10.792       12.779       17.424       13.311      163.292      303.610      177.191        0.078        0.032       28.177       12.434        0.195      335.237        5.738      868.092
10/02/2014  07:52:00       13.310        9.567       14.257       13.316       12.800        8.931      177.314      163.842       79.771        0.045        0.021       16.392        8.084        0.243      335.291        5.828      868.114
10/02/2014  07:53:00       17.326       23.102       10.352       14.968       10.822       13.971      224.033      117.113      195.177        0.074        0.027       28.877        8.842        0.094      335.165        5.617      868.127
10/02/2014  07:54:00       28.951        3.977        4.864       18.429       12.950       15.769      339.623      167.700      248.668        0.082        0.038       29.223       10.442        0.128      335.258        5.774      868.140
10/02/2014  07:55:00       40.643       -9.509        6.492        9.026        8.612       14.319       81.464       74.160      205.023        0.107        0.018       41.741        6.868        0.027      335.109        5.526      868.139
10/02/2014  07:56:00       37.281        1.815        3.021       13.221       16.416       18.561      174.790      269.485      344.506        0.110        0.039       37.325        4.894        0.017      335.267        5.788      868.143
10/02/2014  07:57:00       33.102       14.209       -1.974       13.545       16.508       17.118      183.470      272.512      293.033        0.103        0.037       36.023        4.587        0.016      335.220        5.709      868.143
10/02/2014  07:58:00       54.401       24.423        8.172       17.791       15.460       17.850      316.504      239.018      318.630        0.225        0.044       59.631       11.535        0.037      335.200        5.676      868.148
10/02/2014  07:59:00       49.139       29.314        3.356       18.464       17.191       13.486      340.913      295.532      181.881        0.205        0.041       57.218        4.972        0.008      335.182        5.647      868.153
10/02/2014  08:00:00       34.239        6.990        7.191       22.588       21.550       27.589      510.216      464.412      761.167        0.150        0.087       34.945       17.470        0.250      335.512        6.195      868.159
10/02/2014  08:01:00       60.478       43.344        3.692       15.275       16.046       16.819      233.316      257.470      282.888        0.316        0.039       74.406       12.221        0.027      335.277        5.802      868.164
10/02/2014  08:02:00       53.424       39.369        7.622       14.828       18.853       16.103      219.882      355.443      259.322        0.265        0.042       66.363        9.417        0.020      335.354        5.931      868.168
10/02/2014  08:03:00       37.392       35.247       -1.056       14.845       15.461       13.381      220.367      239.030      179.055        0.164        0.032       51.386        8.388        0.027      335.379        5.972      868.179
10/02/2014  08:04:00       15.144       37.592        3.646       18.809       22.492       17.691      353.794      505.903      312.983        0.141        0.059       40.528        9.084        0.050      335.592        6.328      868.197
10/02/2014  08:05:00       33.130       23.786        3.351       15.023       19.062       14.363      225.702      363.346      206.304        0.123        0.040       40.785       13.559        0.111      335.675        6.466      868.219
10/02/2014  08:06:00       20.877       -4.162       18.928       19.192       19.262       15.039      368.345      371.015      226.159        0.089        0.048       21.288        5.504        0.067      335.900        6.842      868.244
10/02/2014  08:07:00       24.075       27.283       26.149       29.897       38.356       24.291      893.801     1471.163      590.044        0.248        0.148       36.386       21.662        0.354      335.870        6.792      868.264
10/02/2014  08:08:00       74.042       55.650       15.964       39.392       23.265       34.265     1551.762      541.245     1174.114        0.605        0.163       92.624       21.161        0.052      335.621        6.378      868.291
10/02/2014  08:09:00       91.998       79.908       16.562       20.165       26.751       26.036      406.645      715.601      677.895        0.846        0.090      121.856       13.997        0.013      335.512        6.194      868.308
10/02/2014  08:10:00       79.354       67.408       15.012       29.663       18.258       22.124      879.922      333.364      489.472        0.638        0.085      104.120       15.369        0.022      335.584        6.314      868.317
10/02/2014  08:11:00       64.738       53.478       14.827       19.725       16.131       19.998      389.062      260.212      399.934        0.416        0.052       83.969       10.495        0.016      335.619        6.375      868.330
10/02/2014  08:12:00       26.883       52.531       53.976       28.670       26.580       20.609      821.965      706.503      424.724        0.417        0.098       59.010       16.221        0.076      335.853        6.763      868.327
10/02/2014  08:13:00       38.826       52.041       50.146       36.167       24.860       28.976     1308.055      618.009      839.596        0.475        0.138       64.929       24.828        0.146      335.807        6.686      868.330
10/02/2014  08:14:00       52.932       50.306       16.022       17.345       18.136       24.019      300.855      328.903      576.894        0.340        0.060       73.024       16.025        0.048      335.648        6.422      868.331
10/02/2014  08:15:00       85.881       58.740       21.675       29.896       20.643       27.958      893.788      426.137      781.674        0.670        0.105      104.048       13.731        0.017      335.761        6.611      868.335
10/02/2014  08:16:00       45.179       55.159       32.382       38.370       22.658       34.412     1472.272      513.366     1184.206        0.465        0.158       71.300       12.010        0.028      335.856        6.770      868.357
10/02/2014  08:17:00       85.142       30.109       25.391       30.735       26.896       29.320      944.650      723.380      859.650        0.566        0.126       90.309       22.031        0.060      335.765        6.617      868.386
10/02/2014  08:18:00       74.099       75.718       -1.207       31.433       21.815       32.865      988.044      475.893     1080.106        0.688        0.127      105.943       16.334        0.024      335.783        6.646      868.413
10/02/2014  08:19:00       73.356       45.966        8.449       37.544       29.771       24.492     1409.575      886.286      599.840        0.523        0.145       86.568       21.683        0.063      336.023        7.047      868.425
10/02/2014  08:20:00       81.379       50.188        2.075       23.445       20.837       22.453      549.674      434.182      504.131        0.532        0.074       95.610        9.324        0.010      335.975        6.968      868.436
10/02/2014  08:21:00       84.765       82.378       45.536       38.004       28.274       34.197     1444.311      799.445     1169.442        0.973        0.171      118.200       19.241        0.026      335.989        6.990      868.452
10/02/2014  08:22:00       87.314       58.346        7.727       26.600       35.675       24.100      707.544     1272.682      580.809        0.682        0.128      105.014       11.196        0.011      335.885        6.817      868.466
10/02/2014  08:23:00       89.504       68.872       21.481       34.036       25.176       30.783     1158.421      633.809      947.572        0.798        0.137      112.935       16.317        0.021      336.073        7.128      868.482
10/02/2014  08:24:00      103.243       88.737       11.900       38.838       32.799       34.277     1508.409     1075.806     1174.937        1.122        0.188      136.137       13.552        0.010      335.923        6.880      868.509
10/02/2014  08:25:00       72.310       51.483       11.170       40.762       44.283       32.866     1661.504     1960.956     1080.182        0.635        0.235       88.765       21.229        0.057      336.056        7.102      868.528
10/02/2014  08:26:00      116.273       82.541       21.784       38.337       32.424       29.032     1469.753     1051.284      842.869        1.208        0.168      142.592       16.142        0.013      336.031        7.059      868.551
10/02/2014  08:27:00      106.459       69.763       34.777       39.397       30.608       41.158     1552.139      936.860     1693.967        1.080        0.209      127.281        6.560        0.003      335.882        6.812      868.563
10/02/2014  08:28:00      103.631       83.480       57.051       30.167       28.967       36.496      910.062      839.059     1331.963        1.202        0.154      133.072       22.556        0.029      335.877        6.803      868.572
10/02/2014  08:29:00      134.859       80.471       38.552       30.232       30.579       37.014      914.003      935.100     1370.000        1.468        0.161      157.043       19.543        0.015      335.907        6.852      868.577
10/02/2014  08:30:00      115.630       67.873       -1.073       29.716       40.347       22.530      883.041     1627.860      507.614        1.050        0.151      134.079        8.707        0.004      335.938        6.904      868.584
10/02/2014  08:31:00       81.511       77.765       26.771       32.376       21.705       36.116     1048.220      471.096     1304.338        0.812        0.141      112.656       18.698        0.028      336.157        7.269      868.592
10/02/2014  08:32:00      120.710       43.625       14.550       52.497       27.517       30.919     2755.913      757.163      955.958        1.058        0.223      128.351       22.398        0.030      336.153        7.264      868.596
10/02/2014  08:33:00       50.822       43.840       14.860       43.885       35.583       30.686     1925.908     1266.165      941.644        0.443        0.207       67.117       27.167        0.164      336.478        7.807      868.598
10/02/2014  08:34:00       95.726       71.752        8.461       29.422       28.427       29.917      865.680      808.100      895.002        0.848        0.128      119.632       15.534        0.017      336.264        7.448      868.606
10/02/2014  08:35:00       88.504       62.515       11.466       40.012       29.773       27.765     1600.987      886.410      770.909        0.756        0.163      108.356       11.799        0.012      336.297        7.503      868.606
10/02/2014  08:36:00       91.200       79.738        9.928       30.307       25.829       20.250      918.504      667.119      410.064        0.838        0.100      121.143       15.537        0.016      336.334        7.566      868.602
10/02/2014  08:37:00       72.874       36.150       -3.443       29.931       29.189       28.879      895.886      851.978      834.003        0.461        0.129       81.348        9.651        0.014      336.547        7.921      868.615
10/02/2014  08:38:00       49.698       57.576       50.715       50.745       27.517       35.584     2575.026      757.176     1266.255        0.648        0.230       76.059       32.464        0.182      336.789        8.326      868.627
10/02/2014  08:39:00       53.495       27.899       28.748       42.035       24.389       22.775     1766.916      594.813      518.712        0.367        0.144       60.333       17.178        0.081      336.499        7.841      868.641
10/02/2014  08:40:00       47.613       62.981       58.046       49.918       37.965       41.398     2491.814     1441.378     1713.771        0.762        0.282       78.954       31.577        0.160      336.682        8.148      868.652
10/02/2014  08:41:00      109.590       51.769       -5.438       42.576       35.435       29.738     1812.740     1255.615      884.342        0.934        0.198      121.202       13.437        0.012      336.667        8.123      868.660
10/02/2014  08:42:00      105.993       83.808       14.046       38.994       40.145       29.883     1520.523     1611.652      893.021        1.124        0.201      135.124       16.016        0.014      336.638        8.075      868.673
10/02/2014  08:43:00       80.069       60.731        9.749       33.075       29.291       25.601     1093.951      857.951      655.387        0.640        0.130      100.495       17.284        0.030      336.696        8.172      868.666
10/02/2014  08:44:00       46.020       51.726       60.575       35.602       33.779       25.082     1267.508     1140.996      629.126        0.575        0.152       69.234        9.413        0.018      336.905        8.520      868.665
10/02/2014  08:45:00       78.625       91.326       72.710       37.544       25.822       24.909     1409.548      666.764      620.464        1.125        0.135      120.509       18.007        0.022      336.655        8.105      868.659
10/02/2014  08:46:00       76.936       38.097       25.992       54.358       34.899       35.350     2954.805     1217.947     1249.616        0.673        0.271       85.852       27.761        0.105      336.848        8.425      868.658
10/02/2014  08:47:00       75.554       63.369       17.589       31.750       25.481       25.983     1008.072      649.292      675.140        0.618        0.117       98.611       20.398        0.043      336.714        8.201      868.650
10/02/2014  08:48:00       89.759       58.942       40.641       36.583       34.571       29.610     1338.338     1195.121      876.757        0.830        0.171      107.381       12.792        0.014      337.094        8.837      868.645
10/02/2014  08:49:00       36.731        2.135       19.464       38.037       58.152       30.998     1446.806     3381.693      960.882        0.376        0.289       36.793       31.101        0.715      337.111        8.864      868.652
10/02/2014  08:50:00       34.815      -57.508       30.617       35.894       76.072       43.552     1288.397     5786.998     1896.789        0.721        0.449       67.226       48.058        0.511      337.148        8.926      868.666
10/02/2014  08:51:00       31.206       -9.851       41.239       34.325       72.371       33.599     1178.224     5237.624     1128.891        0.516        0.377       32.724       35.818        1.198      337.005        8.686      868.679
10/02/2014  08:52:00       25.383      -20.046       38.707       23.279       51.084       26.455      541.926     2609.610      699.845        0.320        0.193       32.344       26.565        0.675      337.191        9.000      868.697
10/02/2014  08:53:00       28.284       15.791       31.862       24.867       52.237       27.842      618.392     2728.727      775.160        0.309        0.206       32.393       28.880        0.795      337.274        9.137      868.707
10/02/2014  08:54:00       31.785      -66.853       25.290       44.335       71.699       40.710     1965.568     5140.724     1657.302        0.744        0.438       74.024       47.461        0.411      337.427        9.394      868.709
10/02/2014  08:55:00       74.586      -46.793       23.068       56.869       93.880       45.578     3234.109     8813.468     2077.330        1.120        0.706       88.049       54.442        0.382      337.284        9.155      868.711
10/02/2014  08:56:00        3.604      -14.925       45.736       23.282       46.616       28.718      542.047     2173.073      824.700        0.293        0.177       15.354       27.818        3.282      337.486        9.493      868.709
10/02/2014  08:57:00       22.741      -23.207       17.945       33.545       44.735       32.216     1125.300     2001.260     1037.894        0.277        0.208       32.492       29.919        0.848      337.584        9.658      868.709
10/02/2014  08:58:00       69.880      -40.000       26.120       71.470       77.344       48.713     5107.922     5982.133     2372.985        1.031        0.673       80.518       55.266        0.471      337.443        9.420      868.707
10/02/2014  08:59:00       72.089      -33.491       26.804       60.966       48.855       48.360     3716.848     2386.772     2338.729        0.774        0.422       79.488       43.222        0.296      337.398        9.345      868.702
10/02/2014  09:00:00       61.757      -45.803        3.388       55.530       42.058       37.017     3083.620     1768.860     1370.226        0.607        0.311       76.889       27.954        0.132      337.328        9.228      868.709
10/02/2014  09:01:00      139.130     -118.130      -30.172       71.802       79.933       55.455     5155.544     6389.207     3075.246        2.442        0.731      182.515       50.681        0.077      337.116        8.871      868.715
10/02/2014  09:02:00       79.689      -94.145      -16.010       74.055       58.756       52.325     5484.184     3452.234     2737.892        1.357        0.584      123.343       47.152        0.146      337.120        8.879      868.735
10/02/2014  09:03:00        7.134        4.683       29.929       28.595       45.525       34.629      817.694     2072.506     1199.164        0.253        0.204        8.534       31.752       13.844      337.603        9.690      868.746
10/02/2014  09:04:00       45.784      -14.160       40.801       62.035       52.910       47.059     3848.387     2799.428     2214.571        0.641        0.443       47.924       44.922        0.879      337.511        9.535      868.761
10/02/2014  09:05:00       42.119      -31.282       22.999       58.155       51.808       41.460     3381.951     2684.092     1718.965        0.553        0.389       52.465       41.470        0.625      337.387        9.328      868.780
10/02/2014  09:06:00       29.003      -62.005       29.636       50.769       72.016       49.349     2577.489     5186.297     2435.305        0.788        0.510       68.453       40.684        0.353      337.372        9.302      868.798
10/02/2014  09:07:00       33.525      -25.541       51.191       41.084       54.198       38.953     1687.876     2937.417     1517.357        0.527        0.307       42.146       33.967        0.650      337.738        9.915      868.816
10/02/2014  09:08:00       59.686      -50.934       10.777       48.463       49.173       40.041     2348.656     2418.029     1603.305        0.632        0.318       78.465       37.304        0.226      337.620        9.718      868.839
10/02/2014  09:09:00       17.709       -5.434       30.167       46.126       35.936       35.872     2127.633     1291.388     1286.816        0.298        0.235       18.524       32.855        3.146      337.862       10.123      868.845
10/02/2014  09:10:00       -8.486      -34.869       44.581       31.918       56.332       34.821     1018.761     3173.325     1212.516        0.434        0.270       35.887       24.623        0.471      337.746        9.929      868.852
10/02/2014  09:11:00       31.995       24.016       44.855       33.698       60.304       29.199     1135.537     3636.527      852.572        0.462        0.281       40.006       28.639        0.512      337.502        9.520      868.871
10/02/2014  09:12:00       17.217       23.470       47.820       35.665       42.892       36.032     1271.977     1839.690     1298.279        0.377        0.220       29.108       20.098        0.477      337.766        9.963      868.881
10/02/2014  09:13:00       -8.832       51.941       62.331       23.115       33.992       25.479      534.319     1155.463      649.169        0.450        0.117       52.686       16.838        0.102      337.642        9.753      868.881
10/02/2014  09:14:00       21.791       15.478       47.050       32.182       58.706       33.279     1035.708     3446.400     1107.512        0.426        0.279       26.729       39.439        2.177      337.673        9.805      868.878
10/02/2014  09:15:00       13.666      -76.977        0.636       37.972       36.277       32.955     1441.850     1316.004     1086.002        0.498        0.192       78.181       19.538        0.062      337.720        9.884      868.856
10/02/2014  09:16:00       16.927      -24.641       18.842       51.439       57.388       37.674     2645.949     3293.420     1419.325        0.430        0.368       29.895       40.608        1.845      337.964       10.293      868.853
10/02/2014  09:17:00      -30.079      -58.733        6.690       41.557       43.712       28.704     1727.020     1910.763      823.903        0.443        0.223       65.987       27.057        0.168      337.591        9.668      868.849
10/02/2014  09:18:00       20.663      -71.969       16.805       27.646       62.431       42.304      764.306     3897.593     1789.664        0.617        0.323       74.876       42.001        0.315      337.859       10.118      868.831
10/02/2014  09:19:00       13.890      -46.108       21.303       31.950       51.679       25.590     1020.799     2670.678      654.862        0.356        0.217       48.155       30.015        0.389      337.845       10.094      868.837
10/02/2014  09:20:00        6.054      -30.853       25.116       32.570       46.457       30.973     1060.801     2158.266      959.309        0.290        0.209       31.441       21.928        0.486      338.128       10.568      868.827
10/02/2014  09:21:00        8.403      -41.275       22.935       28.940       36.660       32.858      837.550     1343.991     1079.660        0.278        0.163       42.121       26.494        0.396      338.112       10.542      868.836
10/02/2014  09:22:00        0.070      -14.690       30.043       25.655       47.839       27.606      658.189     2288.544      762.098        0.241        0.185       14.691       28.112        3.662      338.119       10.556      868.841
10/02/2014  09:23:00       10.487      -38.165       20.748       25.225       48.167       32.729      636.300     2320.085     1071.200        0.301        0.201       39.580       32.163        0.660      338.229       10.740      868.839
10/02/2014  09:24:00       -6.268       34.828       52.287       15.622       35.272       33.070      244.045     1244.087     1093.624        0.328        0.129       35.388       25.533        0.521      338.003       10.359      868.854
10/02/2014  09:25:00       17.324       30.586       36.666       34.642       31.932       28.627     1200.045     1019.676      819.503        0.281        0.152       35.152       22.544        0.411      338.275       10.818      868.866
10/02/2014  09:26:00       44.010       37.411       14.123       42.650       26.097       24.720     1819.025      681.035      611.058        0.332        0.156       57.762       25.123        0.189      338.186       10.666      868.873
10/02/2014  09:27:00       70.760       28.652       17.840       44.875       55.508       29.951     2013.777     3081.152      897.090        0.607        0.300       76.341       13.236        0.030      338.038       10.419      868.897
10/02/2014  09:28:00       23.656       38.160       35.394       31.311       32.228       19.999      980.351     1038.638      399.975        0.284        0.121       44.897        7.204        0.026      338.284       10.830      868.899
10/02/2014  09:29:00        3.989       19.309       20.169       26.430       25.973       19.959      698.522      674.573      398.366        0.128        0.089       19.717       16.178        0.673      338.417       11.055      868.898
10/02/2014  09:30:00        4.852       36.980       39.773       22.099       31.677       37.778      488.385     1003.445     1427.195        0.295        0.146       37.297       20.756        0.310      338.460       11.127      868.900
10/02/2014  09:31:00        5.821       51.713       65.656       26.891       36.555       21.810      723.138     1336.237      475.659        0.478        0.127       52.040       14.356        0.076      338.151       10.607      868.888
10/02/2014  09:32:00       64.663       68.808       43.856       53.512       46.660       39.681     2863.516     2177.133     1574.557        0.873        0.331       94.424       32.106        0.116      338.131       10.574      868.879
10/02/2014  09:33:00      107.650       69.729       12.667       38.451       28.895       37.637     1478.452      834.938     1416.567        1.017        0.186      128.260       23.220        0.033      337.870       10.136      868.882
10/02/2014  09:34:00      108.039       71.205       14.943       20.575       21.628       28.153      423.313      467.776      792.584        0.932        0.084      129.393        8.449        0.004      337.836       10.080      868.886
10/02/2014  09:35:00       73.017       64.768       -0.625       45.556       36.865       32.441     2075.304     1359.028     1052.401        0.701        0.224       97.604       20.350        0.043      337.824       10.061      868.888
10/02/2014  09:36:00       54.500       48.801        6.518       27.330       26.824       26.958      746.908      719.529      726.748        0.379        0.110       73.156       17.313        0.056      338.049       10.436      868.895
10/02/2014  09:37:00       21.793       34.143       11.111       25.702       38.811       26.708      660.585     1506.328      713.336        0.232        0.144       40.506       27.607        0.465      338.444       11.100      868.887
10/02/2014  09:38:00       39.609       27.302       25.644       34.669       34.650       28.416     1201.960     1200.621      807.462        0.309        0.161       48.107       25.489        0.281      338.401       11.026      868.869
10/02/2014  09:39:00       70.818       38.900        5.299       35.513       24.610       24.597     1261.175      605.648      605.016        0.451        0.124       80.798       12.476        0.024      338.281       10.827      868.858
10/02/2014  09:40:00       60.965       46.148       13.176       34.602       19.453       27.376     1197.321      378.434      749.472        0.417        0.116       76.462       16.836        0.048      338.130       10.571      868.842
10/02/2014  09:41:00       61.056       55.468       16.224       17.128       19.440       26.469      293.371      377.903      700.628        0.422        0.069       82.490       13.070        0.025      337.937       10.249      868.837
10/02/2014  09:42:00       53.131       48.481        5.155       19.054       20.749       25.835      363.068      430.509      667.435        0.333        0.073       71.926       11.644        0.026      337.957       10.282      868.834
10/02/2014  09:43:00       16.521       35.850       11.605       30.726       35.665       23.529      944.108     1271.972      553.636        0.223        0.138       39.473       13.662        0.120      338.505       11.202      868.833
10/02/2014  09:44:00        4.473        8.262       12.076       36.956       36.374       27.035     1365.719     1323.061      730.914        0.183        0.171        9.395       14.399        2.349      338.766       11.640      868.839
10/02/2014  09:45:00      -38.346      -31.985        0.019       22.735       24.267       14.109      516.895      588.879      199.064        0.190        0.065       49.934       15.737        0.099      338.356       10.952      868.843
10/02/2014  09:46:00      -18.446       -9.024       19.835       18.195       31.339       18.597      331.051      982.105      345.833        0.124        0.083       20.535       17.562        0.731      338.642       11.432      868.834
10/02/2014  09:47:00      -11.379        8.745       22.221       19.773       29.578       21.953      390.984      874.883      481.916        0.122        0.087       14.351       19.475        1.841      338.930       11.917      868.827
10/02/2014  09:48:00      -37.809       -9.837       -2.352       11.970       14.207       10.389      143.291      201.852      107.924        0.099        0.023       39.068        8.389        0.046      338.418       11.057      868.816
10/02/2014  09:49:00        8.544      -24.132        0.622       36.260       32.627       22.628     1314.764     1064.532      512.006        0.177        0.145       25.600       25.223        0.971      338.795       11.690      868.811
10/02/2014  09:50:00        5.500     -105.704      -22.811       36.931       53.682       24.815     1363.867     2881.763      615.777        0.829        0.243      105.847       17.231        0.027      338.654       11.452      868.797
10/02/2014  09:51:00       19.321       -1.788        0.607       25.885       49.902       24.693      670.054     2490.253      609.762        0.207        0.189       19.404       16.849        0.754      338.562       11.299      868.797
10/02/2014  09:52:00       26.319       25.908       24.641       53.007       25.751       22.523     2809.785      663.116      507.308        0.297        0.199       36.931       13.709        0.138      338.610       11.379      868.791
10/02/2014  09:53:00      -61.236       15.639       -3.132       27.071       21.001       15.123      732.866      441.048      228.708        0.270        0.070       63.202        4.899        0.006      338.478       11.158      868.791
10/02/2014  09:54:00       -3.457      -16.925      -10.476       49.659       86.203       39.314     2466.028     7430.912     1545.596        0.592        0.572       17.275       15.846        0.841      338.816       11.723      868.799
10/02/2014  09:55:00       24.578      -38.113       18.211       35.435       60.472       46.419     1255.608     3656.844     2154.723        0.473        0.353       45.350       43.702        0.929      338.871       11.816      868.800
10/02/2014  09:56:00        6.206       34.305       63.883       30.220       44.414       30.045      913.259     1972.595      902.712        0.454        0.189       34.861       19.339        0.308      338.946       11.944      868.792
10/02/2014  09:57:00       10.278       20.394       66.719       34.624       59.224       39.874     1198.798     3507.539     1589.901        0.563        0.315       22.837       39.398        2.976      339.147       12.283      868.790
10/02/2014  09:58:00       -3.057       53.571       55.534       15.542       29.729       26.446      241.565      883.825      699.400        0.389        0.091       53.658       23.160        0.186      338.527       11.239      868.785
10/02/2014  09:59:00       -7.494       31.186       40.093       25.771       25.747       21.965      664.137      662.893      482.450        0.222        0.090       32.074       17.353        0.293      338.843       11.771      868.780
10/02/2014  10:00:00      -40.629       -5.085        5.029       19.258       14.040       15.098      370.886      197.112      227.941        0.125        0.040       40.946       12.648        0.095      338.790       11.681      868.773
10/02/2014  10:01:00      -27.623       -2.955       -1.280       20.033       18.477       15.686      401.319      341.406      246.060        0.088        0.049       27.780        9.100        0.107      338.848       11.779      868.774
10/02/2014  10:02:00      -40.981       -8.381        4.455       32.030       13.996       14.108     1025.917      195.882      199.039        0.159        0.071       41.829        7.977        0.036      338.911       11.883      868.770
10/02/2014  10:03:00      -29.065      -38.064       -1.252       25.742       26.107       18.238      662.636      681.598      332.607        0.199        0.084       47.892        6.631        0.019      338.767       11.641      868.774
10/02/2014  10:04:00       -3.312        8.606       30.780       19.032       10.038       17.911      362.226      100.767      320.805        0.091        0.039        9.221       14.226        2.380      339.778       13.346      868.776
10/02/2014  10:05:00       14.195      -27.477       -7.113       26.441       28.441       36.396      699.102      808.878     1324.653        0.192        0.142       30.927       29.173        0.890      339.333       12.596      868.771
10/02/2014  10:06:00        8.685       38.884       15.714       64.650       43.804       29.895     4179.666     1918.781      893.733        0.441        0.350       39.842       29.192        0.537      339.245       12.446      868.759
10/02/2014  10:07:00       64.564       55.429       40.867       39.982       42.654       41.917     1598.530     1819.395     1757.026        0.704        0.259       85.093       25.156        0.087      339.106       12.212      868.752
10/02/2014  10:08:00        4.102       43.900       48.363       36.667       43.394       43.123     1344.452     1883.036     1859.611        0.468        0.254       44.091        7.102        0.026      339.427       12.755      868.739
10/02/2014  10:09:00       14.880       78.502       88.367       37.374       37.129       26.191     1396.845     1378.544      685.994        0.883        0.173       79.900       20.883        0.068      339.046       12.111      868.728
10/02/2014  10:10:00       77.890       93.406       74.422       57.751       32.252       32.875     3335.174     1040.167     1080.762        1.289        0.273      121.620       30.083        0.061      338.810       11.715      868.729
10/02/2014  10:11:00       83.459      110.856       17.075       42.531       41.068       39.486     1808.903     1686.591     1559.132        1.230        0.253      138.760       32.082        0.053      338.592       11.349      868.740
10/02/2014  10:12:00      103.394       76.965        6.217       43.002       35.971       39.020     1849.141     1293.932     1522.522        1.066        0.233      128.895       26.863        0.043      339.023       12.074      868.747
10/02/2014  10:13:00       53.085       56.767       10.689       45.839       32.172       35.646     2101.256     1035.023     1270.621        0.528        0.220       77.721       18.258        0.055      339.087       12.181      868.747
10/02/2014  10:14:00       36.237       30.828       50.114       43.855       59.046       28.825     1923.239     3486.412      830.899        0.551        0.312       47.576       28.617        0.362      339.569       12.992      868.736
10/02/2014  10:15:00        5.435        8.442       42.377       21.564       30.762       26.493      465.004      946.306      701.857        0.200        0.106       10.040       24.444        5.928      339.622       13.082      868.737
10/02/2014  10:16:00        7.693      -12.616       29.593       31.660       50.271       29.372     1002.335     2527.171      862.727        0.274        0.220       14.776       34.677        5.508      339.909       13.567      868.722
10/02/2014  10:17:00       39.714      -54.094       24.366       48.585       78.473       48.520     2360.483     6158.033     2354.213        0.798        0.544       67.107       56.487        0.709      339.243       12.445      868.711
10/02/2014  10:18:00       39.482       57.424       56.842       41.988       38.892       28.136     1762.957     1512.573      791.649        0.608        0.203       69.687       16.561        0.056      339.501       12.877      868.704
10/02/2014  10:19:00       79.852       80.494       74.929       36.232       25.952       28.245     1312.775      673.483      797.778        1.063        0.139      113.383       16.383        0.021      338.938       11.929      868.706
10/02/2014  10:20:00       25.386       59.029       65.017       39.571       45.298       40.149     1565.835     2051.937     1611.959        0.679        0.261       64.256       33.333        0.269      339.428       12.755      868.702
10/02/2014  10:21:00       52.810       85.738       69.923       37.854       33.425       22.901     1432.937     1117.237      524.454        0.905        0.154      100.697       21.590        0.046      339.034       12.091      868.709
10/02/2014  10:22:00        9.784       17.721       55.129       21.057       27.469       23.269      443.406      754.552      541.452        0.259        0.087       20.242       16.356        0.653      339.701       13.216      868.712
10/02/2014  10:23:00       42.514       28.248       46.859       40.360       21.828       24.240     1628.967      476.471      587.554        0.375        0.135       51.043       17.094        0.112      339.381       12.675      868.711
10/02/2014  10:24:00       59.828       50.034       25.802       26.327       28.665       26.332      693.132      821.709      693.396        0.448        0.110       77.992       18.049        0.054      339.362       12.642      868.721
10/02/2014  10:25:00       33.642       31.303       15.879       41.138       35.772       30.603     1692.346     1279.654      936.527        0.314        0.195       45.953       20.755        0.204      339.814       13.405      868.731
10/02/2014  10:26:00       11.232       16.714       14.512       28.573       31.553       26.998      816.390      995.618      728.914        0.158        0.127       20.137       20.185        1.005      340.174       14.013      868.732
10/02/2014  10:27:00       12.929       28.410       34.417       46.436       38.620       31.628     2156.333     1491.525     1000.318        0.340        0.232       31.213       20.998        0.453      340.057       13.815      868.733
10/02/2014  10:28:00        7.476       58.443       72.402       56.433       46.305       39.549     3184.651     2144.161     1564.096        0.780        0.345       58.920       33.850        0.330      339.689       13.194      868.724
10/02/2014  10:29:00       92.624       63.608       18.351       30.444       19.708       30.754      926.860      388.406      945.794        0.761        0.113      112.362       11.785        0.011      338.987       12.013      868.720
10/02/2014  10:30:00       33.062       31.728       20.061       25.364       47.161       33.393      643.342     2224.173     1115.125        0.324        0.199       45.823       29.888        0.425      339.358       12.637      868.728
10/02/2014  10:31:00       23.628        5.860       -1.016       35.995       34.250       19.021     1295.625     1173.029      361.784        0.171        0.142       24.343       15.399        0.400      339.262       12.476      868.729
10/02/2014  10:32:00      -16.924       29.168       37.894       18.815       18.923       15.063      354.002      358.082      226.902        0.176        0.047       33.722        9.501        0.079      339.901       13.552      868.732
10/02/2014  10:33:00      -19.416       28.580       32.042       16.291       20.998       23.248      265.402      440.897      540.487        0.173        0.062       34.552       13.390        0.150      340.010       13.736      868.737
10/02/2014  10:34:00      -14.150       47.027       22.059       40.639       23.695       24.640     1651.497      561.442      607.129        0.286        0.141       49.110       13.837        0.079      339.858       13.479      868.720
10/02/2014  10:35:00       66.904       37.844       23.641       38.837       23.300       24.868     1508.327      542.895      618.414        0.457        0.133       76.866       14.105        0.034      339.764       13.321      868.706
10/02/2014  10:36:00       50.987       55.859       30.023       60.416       30.006       41.352     3650.061      900.339     1709.975        0.644        0.313       75.630       34.266        0.205      339.850       13.466      868.677
10/02/2014  10:37:00       84.776       62.980       30.210       40.612       36.811       37.879     1649.301     1355.027     1434.797        0.825        0.222      105.610       24.710        0.055      339.692       13.199      868.651
10/02/2014  10:38:00       54.570       28.388        6.374       43.664       34.110       27.139     1906.573     1163.461      736.512        0.381        0.190       61.512       24.975        0.165      339.924       13.591      868.644
10/02/2014  10:39:00      -26.680        0.757       14.261       36.331       35.752       25.808     1319.945     1278.181      666.053        0.209        0.163       26.691       24.148        0.819      340.124       13.928      868.633
10/02/2014  10:40:00       -9.778      -31.771       17.250       28.536       41.949       30.255      814.318     1759.757      915.380        0.245        0.174       33.242       23.246        0.489      340.527       14.610      868.621
10/02/2014  10:41:00       17.864      -21.107       29.658       35.951       28.317       32.928     1292.441      801.856     1084.249        0.241        0.159       27.652       23.441        0.719      340.294       14.216      868.614
10/02/2014  10:42:00       10.734        3.656       19.841       24.173       33.148       16.068      584.347     1098.760      258.174        0.123        0.097       11.340        9.234        0.663      340.467       14.509      868.595
10/02/2014  10:43:00       39.719       33.644       19.403       31.185       33.197       27.869      972.535     1102.056      776.665        0.297        0.143       52.053       17.903        0.118      340.141       13.958      868.582
10/02/2014  10:44:00       12.221       11.132       47.130       33.574       66.479       30.807     1127.220     4419.496      949.094        0.449        0.325       16.531       14.505        0.770      340.443       14.468      868.556
10/02/2014  10:45:00       13.733       -5.364       21.959       37.271       36.837       34.486     1389.141     1356.942     1189.276        0.232        0.197       14.744       14.750        1.001      340.606       14.743      868.537
10/02/2014  10:46:00       24.733      -59.660       23.071       33.623       67.830       34.949     1130.524     4600.926     1221.408        0.583        0.348       64.584       43.395        0.451      340.394       14.384      868.534
10/02/2014  10:47:00       11.364      -48.612      -10.823       30.920       49.220       20.124      956.018     2422.583      404.991        0.320        0.189       49.923       10.606        0.045      340.118       13.918      868.527
10/02/2014  10:48:00        8.068      -11.832       20.878       23.811       23.873       20.115      566.940      569.940      404.620        0.109        0.077       14.321       15.236        1.132      340.420       14.429      868.531
10/02/2014  10:49:00      -35.851       -8.878        8.502       32.376       22.386       25.107     1048.219      501.155      630.352        0.181        0.109       36.934       25.889        0.491      340.211       14.076      868.544
10/02/2014  10:50:00      -13.997      -38.472        7.332       31.500       48.000       18.745      992.232     2303.972      351.373        0.269        0.182       40.939       12.801        0.098      340.191       14.041      868.538
10/02/2014  10:51:00       39.111      -31.298       19.810       47.507       63.453       26.258     2256.881     4026.305      689.476        0.494        0.349       50.092       23.528        0.221      340.015       13.744      868.538
10/02/2014  10:52:00       39.109      -46.683       11.383       55.684       62.819       37.893     3100.760     3946.212     1435.873        0.616        0.424       60.900       25.827        0.180      340.025       13.762      868.527
10/02/2014  10:53:00       78.095      -71.693       13.279       60.850       48.781       37.685     3702.780     2379.608     1420.146        0.946        0.375      106.013       36.733        0.120      339.981       13.687      868.512
10/02/2014  10:54:00       31.279      -69.504       21.385       58.257       61.482       53.522     3393.880     3780.030     2864.579        0.815        0.502       76.218       45.583        0.358      340.271       14.176      868.496
10/02/2014  10:55:00       52.250      -25.829       19.266       64.594       71.724       49.887     4172.440     5144.330     2488.666        0.778        0.590       58.285       48.970        0.706      340.459       14.492      868.498
10/02/2014  10:56:00       56.332        2.205       39.726       40.319       25.480       39.845     1625.606      649.224     1587.641        0.431        0.193       56.375       23.790        0.178      340.203       14.062      868.505
10/02/2014  10:57:00       85.523       70.039       56.518       40.752       56.037       31.805     1660.720     3140.147     1011.538        1.061        0.291      110.543       24.090        0.047      339.867       13.494      868.507
10/02/2014  10:58:00       33.741      -23.283       44.245       32.328       47.640       35.027     1045.081     2269.597     1226.895        0.409        0.227       40.994       32.046        0.611      340.132       13.943      868.515
10/02/2014  10:59:00       11.935       -0.768       39.493       20.601       32.304       26.398      424.401     1043.569      696.848        0.193        0.108       11.959       24.469        4.186      340.378       14.356      868.518
10/02/2014  11:00:00       44.641       21.866       13.666       31.157       23.188       32.015      970.787      537.694     1024.972        0.260        0.127       49.709       13.257        0.071      340.299       14.223      868.532
10/02/2014  11:01:00       -0.312       32.477       20.106       26.798       25.544       20.007      718.123      652.484      400.293        0.161        0.089       32.479       14.477        0.199      340.478       14.527      868.535
10/02/2014  11:02:00      -22.141       20.814       32.266       17.176       21.217       22.875      295.020      450.180      523.262        0.162        0.063       30.388       11.248        0.137      340.900       15.241      868.548
10/02/2014  11:03:00        9.022       44.072       32.620       27.327       25.842       16.677      746.753      667.805      278.117        0.239        0.085       44.986       12.219        0.074      340.901       15.242      868.553
10/02/2014  11:04:00       -0.192       21.510       30.307       17.872       21.708       14.195      319.392      471.259      201.504        0.119        0.050       21.511       10.500        0.238      341.212       15.768      868.559
10/02/2014  11:05:00      -40.113        0.084       10.090       26.736       16.221       21.195      714.840      263.116      449.247        0.157        0.071       40.113       15.366        0.147      340.678       14.865      868.567
10/02/2014  11:06:00      -50.598       36.365        2.261       41.375       50.379       31.019     1711.925     2538.051      962.152        0.455        0.261       62.311       21.045        0.114      340.439       14.460      868.569
10/02/2014  11:07:00      -25.697       25.014       16.246       27.831       27.232       23.525      774.552      741.604      553.406        0.181        0.103       35.861       14.239        0.158      341.001       15.411      868.558
10/02/2014  11:08:00      -19.674       58.862        4.552       29.864       24.057       25.072      891.833      578.724      628.584        0.299        0.105       62.063       20.892        0.113      340.925       15.283      868.544
10/02/2014  11:09:00      -16.130        7.805       20.066       36.124       21.301       29.787     1304.937      453.730      887.237        0.168        0.132       17.919       25.477        2.022      341.072       15.531      868.522
10/02/2014  11:10:00      -19.336       -5.476        6.394       22.429       26.099       21.984      503.076      681.164      483.315        0.106        0.083       20.096       16.023        0.636      340.822       15.108      868.517
10/02/2014  11:11:00      -12.809       -8.026       14.957       24.846       37.769       22.721      617.338     1426.502      516.264        0.151        0.128       15.116       19.463        1.658      341.401       16.090      868.501
10/02/2014  11:12:00      -30.203       -1.294       11.743       43.418       44.271       30.327     1885.127     1959.924      919.711        0.291        0.238       30.230       15.048        0.248      341.003       15.415      868.504
10/02/2014  11:13:00       52.029      -46.271       31.243       56.542       88.789       51.028     3196.973     7883.433     2603.879        0.975        0.684       69.628       64.719        0.864      340.753       14.991      868.500
10/02/2014  11:14:00       74.516      -37.348        4.927       46.901       50.150       27.682     2199.699     2515.072      766.320        0.623        0.274       83.352       18.268        0.048      340.267       14.170      868.511
10/02/2014  11:15:00       29.476        8.245       17.537       29.792       25.377       28.927      887.573      643.969      836.783        0.181        0.118       30.608       20.778        0.461      340.737       14.964      868.501
10/02/2014  11:16:00       42.163       30.940       -0.183       17.722       20.860       26.770      314.069      435.144      716.631        0.210        0.073       52.298       14.064        0.072      340.242       14.128      868.498
10/02/2014  11:17:00       24.434       53.517       19.021       19.800       24.494       24.144      392.045      599.977      582.919        0.270        0.079       58.832       17.377        0.087      340.468       14.510      868.477
10/02/2014  11:18:00      -28.724       47.059      -19.845       17.567       27.160       14.023      308.606      737.689      196.640        0.234        0.062       55.133        3.694        0.004      340.350       14.309      868.471
10/02/2014  11:19:00      -25.051        9.780       21.216       15.946       20.526       25.289      254.280      421.326      639.546        0.124        0.066       26.893       15.922        0.351      341.060       15.511      868.441
10/02/2014  11:20:00      -31.669       -7.953       20.923       24.698       15.868       26.113      610.013      251.790      681.883        0.152        0.077       32.652       19.834        0.369      340.991       15.394      868.436
10/02/2014  11:21:00        4.164       59.910       16.441       35.478       38.906       27.359     1258.693     1513.660      748.505        0.370        0.176       60.054       25.003        0.173      341.170       15.696      868.427
10/02/2014  11:22:00       24.397       62.130       50.600       43.223       47.082       27.464     1868.219     2216.678      754.253        0.593        0.242       66.748       17.817        0.071      341.363       16.025      868.425
10/02/2014  11:23:00       62.815       39.258       13.629       36.230       21.324       33.259     1312.624      454.710     1106.147        0.427        0.144       74.074       18.219        0.060      340.846       15.149      868.425
10/02/2014  11:24:00        7.286       38.899       40.259       33.937       29.458       26.203     1151.743      867.752      686.581        0.295        0.135       39.576       21.203        0.287      341.402       16.090      868.419
10/02/2014  11:25:00       79.198       59.855       11.489       66.285       40.764       39.869     4393.729     1661.698     1589.548        0.881        0.382       99.272       29.213        0.087      341.098       15.577      868.412
10/02/2014  11:26:00       50.194       45.120       -9.774       38.136       31.873       26.571     1454.331     1015.884      705.996        0.391        0.159       67.492       11.545        0.029      341.045       15.486      868.404
10/02/2014  11:27:00       12.711       -2.474       26.126       28.865       42.670       27.018      833.173     1820.690      729.968        0.212        0.169       12.950       22.776        3.093      341.562       16.362      868.399
10/02/2014  11:28:00       26.493       15.238       18.006       22.506       26.304       33.720      506.542      691.901     1137.048        0.180        0.117       30.562       22.420        0.538      340.963       15.346      868.380
10/02/2014  11:29:00       14.078       34.892       14.603       21.618       28.138       23.760      467.321      791.771      564.546        0.173        0.091       37.625       13.995        0.138      341.183       15.719      868.365
10/02/2014  11:30:00       34.650       31.115       34.469       31.032       27.859       32.072      963.003      776.133     1028.608        0.306        0.138       46.570       19.033        0.167      341.484       16.229      868.358
10/02/2014  11:31:00       34.967       -3.820       34.562       44.701       56.405       41.491     1998.165     3181.575     1721.526        0.467        0.345       35.175       25.944        0.544      341.397       16.081      868.345
10/02/2014  11:32:00       38.243      -90.037        5.507       52.492       70.592       45.995     2755.420     4983.164     2115.542        0.973        0.493       97.822       34.031        0.121      340.998       15.406      868.337
10/02/2014  11:33:00       58.745      -37.668       17.621       46.973       76.747       45.990     2206.499     5890.061     2115.100        0.769        0.511       69.784       57.530        0.680      341.107       15.591      868.328
10/02/2014  11:34:00       53.696       68.231       49.287       73.664       52.420       43.231     5426.351     2747.818     1868.929        1.000        0.502       86.825       31.882        0.135      341.283       15.888      868.319
10/02/2014  11:35:00       72.187       77.789       82.573       67.071       62.022       44.101     4498.460     3846.772     1944.857        1.418        0.515      106.123       32.006        0.091      341.300       15.917      868.309
10/02/2014  11:36:00      140.902       68.211       38.210       57.591       58.022       65.419     3316.751     3366.609     4279.707        1.846        0.548      156.544       40.737        0.068      340.902       15.243      868.302
10/02/2014  11:37:00       81.943       97.436       -2.781       49.555       42.801       38.971     2455.716     1831.889     1518.718        1.101        0.290      127.312       25.983        0.042      340.941       15.309      868.289
10/02/2014  11:38:00       50.444       23.048       29.672       38.856       54.356       31.653     1509.795     2954.611     1001.933        0.471        0.273       55.460       19.626        0.125      340.975       15.367      868.289
10/02/2014  11:39:00       94.457       74.949        8.097       47.461       30.892       33.084     2252.538      954.322     1094.554        0.945        0.215      120.580        5.424        0.002      341.089       15.561      868.279
10/02/2014  11:40:00       59.945       23.689       30.924       54.535       43.117       49.779     2974.072     1859.039     2477.992        0.621        0.366       64.456       25.547        0.157      341.260       15.850      868.283
10/02/2014  11:41:00       87.261       72.152       11.565       40.214       18.863       42.167     1617.202      355.831     1778.047        0.835        0.188      113.227       30.225        0.071      340.599       14.731      868.288
10/02/2014  11:42:00      -82.612        5.705      -24.791       62.396       32.207       21.023     3893.267     1037.277      441.979        0.642        0.269       82.809        4.802        0.003      340.629       14.784      868.287
10/02/2014  11:43:00      -33.673       16.678       -0.615       22.110       15.999       18.000      488.842      255.981      324.016        0.124        0.053       37.578       14.105        0.141      341.012       15.429      868.270
10/02/2014  11:44:00      -21.916      -46.380       -0.760       43.710       61.130       28.443     1910.602     3736.908      809.015        0.454        0.323       51.297       26.418        0.265      341.043       15.480      868.251
10/02/2014  11:45:00      -12.390      -69.116       -2.555       22.728       28.429       20.166      516.553      808.204      406.683        0.333        0.087       70.218       15.839        0.051      340.979       15.373      868.238
10/02/2014  11:46:00       79.741       32.982        6.287       32.151       33.764       29.604     1033.697     1139.983      876.397        0.527        0.153       86.293       16.322        0.036      341.171       15.699      868.230
10/02/2014  11:47:00       45.079        8.482       -4.535       23.339       39.294       27.081      544.709     1544.035      733.388        0.247        0.141       45.870       19.146        0.174      341.073       15.533      868.226
10/02/2014  11:48:00       -4.666      -33.792       17.011       30.532       30.618       33.262      932.194      937.446     1106.392        0.221        0.149       34.112       13.497        0.157      341.226       15.792      868.205
10/02/2014  11:49:00       56.341      -23.133       26.115       43.398       67.341       32.965     1883.397     4534.794     1086.717        0.595        0.375       60.905       14.042        0.053      340.845       15.148      868.207
10/02/2014  11:50:00      -33.585       64.207      -22.641       36.407       28.870       18.776     1325.490      833.459      352.544        0.414        0.126       72.460       13.632        0.035      340.806       15.082      868.202
10/02/2014  11:51:00      -49.014      128.466      -14.294       35.282       36.084       32.401     1244.846     1302.040     1049.844        1.135        0.180      137.499       24.610        0.032      341.133       15.635      868.184
10/02/2014  11:52:00      -74.029       36.877       -5.965       40.788       31.158       27.279     1663.659      970.852      744.136        0.513        0.169       82.706       18.858        0.052      341.390       16.070      868.185
10/02/2014  11:53:00       -3.853       -6.769       -1.641       34.252       33.212       25.921     1173.223     1103.045      671.893        0.151        0.147        7.788       19.804        6.465      341.383       16.059      868.181
10/02/2014  11:54:00       17.927       21.350       31.837       41.366       64.180       43.681     1711.150     4119.062     1908.057        0.476        0.387       27.879       40.397        2.100      341.437       16.150      868.178
10/02/2014  11:55:00       32.663       53.084       68.235       64.921       46.406       34.242     4214.709     2153.531     1172.541        0.804        0.377       62.327       25.442        0.167      341.815       16.791      868.155
10/02/2014  11:56:00       29.498       69.531       91.582       54.468       46.027       33.337     2966.714     2118.453     1111.354        1.014        0.310       75.530       23.293        0.095      342.049       17.188      868.149
10/02/2014  11:57:00      101.692       83.065       33.153       62.432       45.828       40.310     3897.806     2100.166     1624.862        1.298        0.381      131.306        8.359        0.004      341.435       16.144      868.133
10/02/2014  11:58:00      160.554      125.541       13.485       59.167       29.332       28.193     3500.785      860.376      794.826        2.344        0.258      203.809       12.665        0.004      341.088       15.554      868.133
10/02/2014  11:59:00       36.854       83.433       -9.446       37.434       40.962       30.623     1401.318     1677.864      937.743        0.621        0.201       91.210       22.537        0.061      341.325       15.960      868.123
10/02/2014  12:00:00       50.686       42.113       12.969       50.761       48.079       34.753     2576.670     2311.558     1207.795        0.530        0.305       65.898       27.337        0.172      341.727       16.641      868.121
10/02/2014  12:01:00       84.029       71.997       26.953       35.544       23.403       32.142     1263.381      547.688     1033.081        0.791        0.142      110.654       16.987        0.024      341.258       15.848      868.126
10/02/2014  12:02:00       -9.687       25.467        8.328       34.194       19.586       24.631     1169.227      383.629      606.689        0.149        0.108       27.247       17.132        0.395      341.510       16.272      868.120
10/02/2014  12:03:00       -7.708       36.558       10.345       30.582       39.182       24.679      935.263     1535.218      609.071        0.229        0.154       37.361       21.660        0.336      341.960       17.037      868.112
10/02/2014  12:04:00      -44.929       11.334       17.041       35.855       24.666       23.856     1285.598      608.435      569.112        0.245        0.123       46.337       20.762        0.201      341.942       17.006      868.092
10/02/2014  12:05:00      -13.773      -24.997       15.105       23.617       32.970       20.507      557.753     1087.022      420.541        0.155        0.103       28.541       16.310        0.327      341.844       16.839      868.087
10/02/2014  12:06:00       -1.564       21.502       27.643       31.215       23.080       15.110      974.400      532.688      228.315        0.148        0.087       21.559       12.589        0.341      341.955       17.028      868.077
10/02/2014  12:07:00       55.595       14.112        1.365       50.296       28.788       34.532     2529.643      828.743     1192.429        0.392        0.228       57.359       30.052        0.274      341.924       16.976      868.084
10/02/2014  12:08:00        1.586      112.466      -12.094       32.519       36.850       25.814     1057.506     1357.951      666.348        0.794        0.154      112.478       21.851        0.038      341.551       16.344      868.075
10/02/2014  12:09:00       53.516       33.418       17.856       31.528       26.243       25.942      994.039      688.684      672.990        0.333        0.118       63.093       11.809        0.035      341.664       16.534      868.086
10/02/2014  12:10:00       47.468       46.362       -0.285       40.573       27.638       27.394     1646.197      763.887      750.423        0.378        0.158       66.353       10.419        0.025      341.641       16.494      868.083
10/02/2014  12:11:00      -26.458      -28.906       14.890       34.197       52.856       27.130     1169.445     2793.725      736.045        0.323        0.235       39.187       22.408        0.327      342.140       17.342      868.087
10/02/2014  12:12:00        8.829        8.966       20.392       27.970       24.007       27.008      782.316      576.354      729.451        0.133        0.104       12.583       16.723        1.766      342.377       17.744      868.083
10/02/2014  12:13:00      -10.638        9.062       23.852       28.260       22.689       17.620      798.624      514.797      310.452        0.119        0.081       13.974       17.234        1.521      342.696       18.287      868.090
10/02/2014  12:14:00        6.091       26.837       -3.682       27.240       26.009       24.335      742.014      676.443      592.188        0.139        0.101       27.519       12.080        0.193      342.188       17.423      868.080
10/02/2014  12:15:00       -1.381       42.690        4.075       56.860       58.532       37.642     3233.065     3426.029     1416.883        0.496        0.404       42.712       25.136        0.346      342.117       17.303      868.087
10/02/2014  12:16:00       67.599       90.839       18.092       41.480       37.897       44.629     1720.571     1436.179     1991.728        0.915        0.257      113.231       27.783        0.060      342.003       17.108      868.078
10/02/2014  12:17:00       80.035       55.671       12.972       41.978       37.371       40.240     1762.194     1396.602     1619.244        0.722        0.239       97.493       16.782        0.030      341.769       16.711      868.083
10/02/2014  12:18:00      139.528       80.219       34.760       49.537       35.921       33.298     2453.897     1290.352     1108.738        1.598        0.243      160.945       25.287        0.025      341.610       16.442      868.083
10/02/2014  12:19:00      191.404      135.230       39.858       48.480       44.335       42.022     2350.334     1965.550     1765.821        3.130        0.304      234.356       14.318        0.004      341.492       16.237      868.071
10/02/2014  12:20:00       92.214       58.427       15.062       77.687       92.172       35.725     6035.313     8495.620     1276.254        1.397        0.790      109.166       34.819        0.102      341.772       16.715      868.061
10/02/2014  12:21:00      112.774       72.158       36.037       57.160       35.912       38.166     3267.314     1289.652     1456.624        1.262        0.301      133.883       21.055        0.025      342.052       17.191      868.056
10/02/2014  12:22:00       16.949      -17.179       50.562       46.165       79.451       38.803     2131.219     6312.490     1505.694        0.654        0.497       24.133       49.344        4.181      342.365       17.723      868.057
10/02/2014  12:23:00       36.254        6.726       58.765       58.013       62.684       46.524     3365.509     3929.306     2164.493        0.713        0.473       36.873       47.864        1.685      342.276       17.573      868.031
10/02/2014  12:24:00       14.443      -80.668       32.288       44.734       79.467       39.697     2001.093     6315.065     1575.884        0.882        0.495       81.951       40.850        0.248      342.120       17.307      868.041
10/02/2014  12:25:00       70.241      -11.086        5.183       58.557       41.355       40.613     3428.961     1710.260     1649.445        0.593        0.339       71.110       27.692        0.152      341.708       16.609      868.046
10/02/2014  12:26:00       38.595      -46.730       19.688       50.562       31.879       35.408     2556.543     1016.297     1253.728        0.444        0.241       60.608       20.468        0.114      341.706       16.604      868.040
10/02/2014  12:27:00       21.979      -66.991       20.414       26.170       72.887       35.426      684.871     5312.523     1255.034        0.632        0.363       70.505       33.863        0.231      341.792       16.751      868.024
10/02/2014  12:28:00       39.580      -48.171       18.077       37.151       54.919       30.114     1380.179     3016.076      906.881        0.476        0.265       62.346       29.419        0.223      341.646       16.504      868.019
10/02/2014  12:29:00       41.493       -8.322       30.372       29.871       33.344       25.485      892.264     1111.853      649.492        0.268        0.133       42.320       18.332        0.188      341.693       16.583      868.013
10/02/2014  12:30:00       19.698       30.980       25.178       41.503       40.956       29.994     1722.523     1677.383      899.650        0.314        0.215       36.712       24.183        0.434      342.123       17.312      867.997
10/02/2014  12:31:00       30.612       50.277       19.805       38.378       54.636       33.770     1472.842     2985.118     1140.421        0.473        0.280       58.863       31.991        0.295      342.348       17.697      867.992
10/02/2014  12:32:00       11.027       37.167       10.449       36.147       26.583       23.777     1306.633      706.639      565.342        0.209        0.129       38.768       14.715        0.144      342.642       18.194      867.980
10/02/2014  12:33:00       10.187       -2.321      -10.514       38.738       32.450       25.241     1500.655     1053.031      637.095        0.170        0.160       10.448       21.416        4.202      342.108       17.288      867.960
10/02/2014  12:34:00      -25.584      -35.170       -1.825       51.124       44.613       31.627     2613.619     1990.350     1000.285        0.375        0.280       43.491       15.629        0.129      342.291       17.597      867.952
10/02/2014  12:35:00       -8.082        0.946       15.469       50.131       30.936       31.211     2513.080      957.052      974.138        0.237        0.222        8.137       11.915        2.144      342.611       18.142      867.921
10/02/2014  12:36:00      -39.815      -45.984        6.104       48.217       39.383       28.834     2324.888     1551.014      831.379        0.422        0.235       60.826       20.787        0.117      342.354       17.706      867.921
10/02/2014  12:37:00      -29.801      -78.085        0.590       48.533       31.918       29.045     2355.497     1018.744      843.621        0.560        0.211       83.579       19.340        0.054      342.232       17.496      867.912
10/02/2014  12:38:00       -3.154      -12.235       24.488       24.831       41.991       33.881      616.555     1763.215     1147.946        0.214        0.176       12.635       32.763        6.724      342.508       17.967      867.912
10/02/2014  12:39:00       18.344       21.769       11.418       19.562       19.076       30.841      382.673      363.908      951.140        0.132        0.085       28.467       15.022        0.278      342.110       17.290      867.917
10/02/2014  12:40:00      -26.873        2.362        3.775       36.264       17.448       21.292     1315.113      304.428      453.331        0.141        0.104       26.976       13.109        0.236      342.402       17.786      867.906
10/02/2014  12:41:00       16.138       30.460       36.395       32.708       26.995       30.340     1069.821      728.743      920.520        0.262        0.136       34.471       21.309        0.382      342.928       18.682      867.905
10/02/2014  12:42:00       36.975       42.408        7.423       28.707       23.387       27.480      824.100      546.956      755.148        0.267        0.106       56.263       21.011        0.139      342.471       17.905      867.894
10/02/2014  12:43:00       -2.300        5.065       18.657       22.703       16.019       23.837      515.441      256.593      568.185        0.086        0.067        5.563       16.587        8.890      342.892       18.621      867.879
10/02/2014  12:44:00       10.027       20.532       13.361       30.247       25.424       18.109      914.909      646.361      327.932        0.129        0.094       22.849       16.870        0.545      342.883       18.605      867.877
10/02/2014  12:45:00       10.332       35.816       -4.936       28.250       43.041       24.763      798.050     1852.556      613.195        0.234        0.163       37.276       20.410        0.300      342.581       18.091      867.868
10/02/2014  12:46:00       26.397      -13.451       -0.966       27.869       32.610       21.380      776.672     1063.396      457.113        0.159        0.115       29.627       18.473        0.389      342.809       18.479      867.856
10/02/2014  12:47:00      116.667       50.143       34.138       79.202       65.154       38.226     6272.983     4244.986     1461.250        1.463        0.599      126.986       28.915        0.052      342.418       17.812      867.855
10/02/2014  12:48:00      176.724       92.848       33.271       65.515       61.041       49.108     4292.258     3726.032     2411.605        2.569        0.521      199.630       25.902        0.017      342.264       17.550      867.840
10/02/2014  12:49:00      187.762      120.840       34.100       50.013       45.645       42.125     2501.287     2083.486     1774.500        2.869        0.318      223.287       18.618        0.007      342.102       17.273      867.846
10/02/2014  12:50:00      143.717       99.044       12.218       67.248       38.350       40.849     4522.236     1470.694     1668.615        1.914        0.383      174.540       21.617        0.015      342.349       17.696      867.844
10/02/2014  12:51:00       78.734       27.821      -18.774       34.636       38.022       26.471     1199.658     1445.705      700.696        0.534        0.167       83.505       18.454        0.049      342.182       17.412      867.845
10/02/2014  12:52:00      111.745       68.137        5.634       45.159       43.568       31.396     2039.319     1898.182      985.683        1.104        0.246      130.880       22.365        0.029      342.154       17.365      867.839
10/02/2014  12:53:00       33.000       40.225        1.545       30.625       32.933       24.644      937.921     1084.573      607.319        0.267        0.131       52.030       20.031        0.148      342.333       17.668      867.827
10/02/2014  12:54:00       72.663       59.605       10.393       49.585       45.148       35.880     2458.717     2038.322     1287.340        0.736        0.289       93.982       22.932        0.060      342.527       17.999      867.817
10/02/2014  12:55:00       62.849       67.320       20.069       55.300       52.074       39.737     3058.060     2711.723     1579.038        0.812        0.367       92.098       31.861        0.120      342.791       18.448      867.807
10/02/2014  12:56:00       53.490       75.821        2.911       55.301       52.430       34.918     3058.185     2748.859     1219.278        0.782        0.351       92.791       25.828        0.077      342.849       18.547      867.810
10/02/2014  12:57:00       28.977       86.835        2.612       34.356       46.401       34.957     1180.322     2153.048     1222.024        0.647        0.228       91.542       29.024        0.101      342.521       17.988      867.797
10/02/2014  12:58:00        3.534       54.263       16.489       34.469       62.362       34.220     1188.145     3889.076     1171.039        0.474        0.312       54.378       36.071        0.440      342.941       18.703      867.795
10/02/2014  12:59:00       19.081       42.204       12.134       38.621       33.311       24.373     1491.568     1109.602      594.050        0.274        0.160       46.317       11.742        0.064      343.111       18.993      867.783
10/02/2014  13:00:00        9.218        0.681       21.727       20.674       29.170       19.280      427.431      850.890      371.728        0.110        0.083        9.243       17.151        3.443      343.213       19.166      867.777
10/02/2014  13:01:00       45.056       27.104        8.464       55.413       39.036       32.089     3070.640     1523.815     1029.699        0.423        0.281       52.580       24.541        0.218      342.995       18.795      867.772
10/02/2014  13:02:00       27.242       35.512       10.563       40.120       41.970       30.166     1609.619     1761.484      910.006        0.320        0.214       44.757       26.147        0.341      343.153       19.064      867.759
10/02/2014  13:03:00       17.650       -8.450       17.923       29.489       46.929       26.193      869.589     2202.295      686.080        0.223        0.188       19.568       20.749        1.124      343.119       19.007      867.743
10/02/2014  13:04:00       70.235      -93.354      -11.908       38.265       40.273       29.843     1464.189     1621.928      890.603        0.888        0.199      116.824       21.967        0.035      342.557       18.050      867.722
10/02/2014  13:05:00       25.914      -19.355       13.322       38.271       27.587       26.122     1464.681      761.029      682.377        0.207        0.145       32.344       23.714        0.538      342.955       18.728      867.697
10/02/2014  13:06:00       37.985       13.724       21.928       42.364       45.279       32.415     1794.668     2050.189     1050.717        0.350        0.245       40.388       17.686        0.192      343.168       19.091      867.687
10/02/2014  13:07:00       77.062       58.212       21.335       68.534       60.085       49.959     4696.843     3610.216     2495.939        1.029        0.540       96.578       32.870        0.116      343.016       18.832      867.668
10/02/2014  13:08:00      212.131      105.781       39.854      101.117       74.320       59.438    10224.586     5523.487     3532.926        3.853        0.964      237.042       25.037        0.011      342.736       18.351      867.634
10/02/2014  13:09:00      106.707       91.813       -8.061       73.534       64.267       55.857     5407.305     4130.297     3120.052        1.627        0.633      140.769       25.579        0.033      342.736       18.354      867.642
10/02/2014  13:10:00       25.738      123.842       -0.377       41.723       65.515       39.385     1740.831     4292.151     1551.190        1.179        0.379      126.488       36.748        0.084      342.726       18.337      867.633
10/02/2014  13:11:00       -9.163      113.185       -8.769       23.635       46.918       26.953      558.629     2201.269      726.445        0.823        0.174      113.555       25.151        0.049      342.801       18.464      867.634
10/02/2014  13:12:00      -34.307      120.428       -0.552       24.744       48.103       34.040      612.256     2313.897     1158.739        0.988        0.204      125.219       28.380        0.051      342.900       18.633      867.620
10/02/2014  13:13:00        5.050       58.299        3.515       27.337       48.105       29.023      747.322     2314.135      842.333        0.367        0.195       58.517       29.608        0.256      343.171       19.095      867.619
10/02/2014  13:14:00       36.030       15.593        7.148       51.636       43.875       31.573     2666.258     1925.049      996.836        0.359        0.279       39.260       18.983        0.234      343.149       19.058      867.606
10/02/2014  13:15:00       35.382       41.765       17.407       72.452       62.138       40.202     5249.221     3861.169     1616.193        0.701        0.536       54.737       21.932        0.161      343.030       18.854      867.588
10/02/2014  13:16:00      110.878       63.325        6.943       98.838       44.673       42.345     9768.974     1995.721     1793.081        1.495        0.678      127.687       32.755        0.066      342.844       18.538      867.579
10/02/2014  13:17:00       48.625      -19.878       20.857       69.374       54.496       45.431     4812.773     2969.852     2064.003        0.652        0.492       52.532       42.068        0.641      342.897       18.627      867.565
10/02/2014  13:18:00        3.517       26.806       39.152       30.269       51.739       31.341      916.238     2676.949      982.249        0.342        0.229       27.036       29.405        1.183      343.340       19.382      867.548
10/02/2014  13:19:00       56.107       48.545       85.453       52.451       94.784       55.779     2751.064     8983.931     3111.247        1.382        0.742       74.193       63.001        0.721      343.083       18.943      867.551
10/02/2014  13:20:00       63.300       84.220       77.099       66.892       55.870       51.267     4474.597     3121.458     2628.345        1.363        0.511      105.356       39.629        0.141      343.000       18.803      867.539
10/02/2014  13:21:00       67.998       45.079       40.587       69.432       54.103       32.298     4820.846     2927.124     1043.168        0.855        0.440       81.583       20.546        0.063      342.940       18.702      867.542
10/02/2014  13:22:00      100.367       86.916       22.460       58.072       42.072       46.394     3372.335     1770.080     2152.364        1.271        0.365      132.770       19.849        0.022      343.081       18.942      867.528
10/02/2014  13:23:00      121.278       26.850       32.946       92.280      126.263       61.728     8515.553    15942.433     3810.328        2.239        1.413      124.215       66.598        0.287      343.273       19.266      867.513
10/02/2014  13:24:00      163.871     -183.611      -57.808       64.775       77.220       32.995     4195.740     5962.914     1088.643        3.758        0.562      246.103       18.819        0.006      342.711       18.309      867.509
10/02/2014  13:25:00      111.783      -78.116       -5.865       54.289       79.891       53.442     2947.326     6382.560     2856.058        1.541        0.609      136.373       51.071        0.140      342.986       18.779      867.500
10/02/2014  13:26:00       35.336       -8.038       43.913       35.807       58.721       40.761     1282.116     3448.129     1661.499        0.482        0.320       36.239       44.521        1.509      343.040       18.873      867.493
10/02/2014  13:27:00       54.575      -36.804       -0.294       28.048       51.377       27.805      786.688     2639.615      773.141        0.427        0.210       65.825       33.445        0.258      342.782       18.432      867.489
10/02/2014  13:28:00       22.243        7.654       34.227       25.659       21.573       19.668      658.401      465.414      386.813        0.162        0.076       23.523       15.039        0.409      343.028       18.851      867.466
10/02/2014  13:29:00       29.972      -60.367       19.806       31.731       55.396       33.514     1006.886     3068.743     1123.200        0.507        0.260       67.398       38.720        0.330      342.873       18.590      867.454
10/02/2014  13:30:00       44.827       -0.819       17.416       50.075       43.992       28.041     2507.523     1935.255      786.272        0.377        0.261       44.834       18.294        0.166      342.999       18.802      867.442
10/02/2014  13:31:00        6.525       35.795      -10.695       34.870       48.797       22.772     1215.939     2381.108      518.546        0.278        0.206       36.385       22.154        0.371      343.163       19.082      867.433
10/02/2014  13:32:00       15.565       33.779        5.484       33.848       42.448       25.172     1145.712     1801.791      633.618        0.250        0.179       37.193       16.299        0.192      343.435       19.546      867.421
10/02/2014  13:33:00       16.818      -12.826       21.549       40.400       61.199       47.934     1632.120     3745.285     2297.695        0.429        0.384       21.151       47.509        5.045      343.413       19.507      867.402
10/02/2014  13:34:00      -98.090      -73.537        2.482       46.717       44.202       29.817     2182.519     1953.798      889.081        1.003        0.251      122.594       24.372        0.040      343.232       19.198      867.395
10/02/2014  13:35:00      -45.017      -49.716        6.707       63.889       54.309       29.085     4081.766     2949.417      845.911        0.621        0.394       67.069       35.567        0.281      343.464       19.595      867.374
10/02/2014  13:36:00      -64.424      -75.280        4.990       80.637       51.614       39.533     6502.307     2663.964     1562.841        1.028        0.536       99.083       44.550        0.202      343.292       19.300      867.360
10/02/2014  13:37:00     -150.593      -84.481       -7.493       55.329       32.179       25.203     3061.327     1035.515      635.169        1.730        0.237      172.672       13.847        0.006      342.909       18.650      867.334
10/02/2014  13:38:00      -83.592      -25.002       -1.866       64.792       34.543       28.247     4198.034     1193.218      797.886        0.690        0.309       87.251       31.142        0.127      343.314       19.339      867.320
10/02/2014  13:39:00      -93.236      -24.808        7.826       86.081       52.172       27.196     7409.940     2721.946      739.607        1.012        0.544       96.480       32.278        0.112      343.380       19.451      867.321
10/02/2014  13:40:00      -62.733      -28.116        0.408       50.846       33.396       25.725     2585.277     1115.308      661.763        0.454        0.218       68.745       25.479        0.137      343.416       19.513      867.298
10/02/2014  13:41:00      -49.238       12.546       23.836       48.373       49.197       38.733     2339.987     2420.343     1500.227        0.470        0.313       50.811       34.998        0.474      343.770       20.117      867.289
10/02/2014  13:42:00      -40.426       -8.100       11.829       62.289       42.911       31.723     3879.887     1841.376     1006.363        0.428        0.336       41.230       29.716        0.519      343.742       20.069      867.284
10/02/2014  13:43:00      -11.750        7.484        3.587       39.759       26.175       30.188     1580.760      685.115      911.331        0.169        0.159       13.931       13.440        0.931      343.778       20.131      867.268
10/02/2014  13:44:00      -49.014       34.717       11.918       54.749       37.741       38.133     2997.414     1424.414     1454.154        0.481        0.294       60.063       28.776        0.230      343.635       19.887      867.270
10/02/2014  13:45:00       -8.745       13.998       38.115       66.274       43.921       42.066     4392.203     1929.091     1769.542        0.491        0.405       16.505       36.185        4.807      343.549       19.740      867.267
10/02/2014  13:46:00      107.233       81.820       -8.801       51.398       43.079       31.314     2641.712     1855.830      980.542        1.187        0.274      134.883       23.829        0.031      343.101       18.976      867.250
10/02/2014  13:47:00       46.216      -51.744       -3.402       44.944       28.184       28.359     2019.945      794.312      804.232        0.422        0.181       69.378       10.435        0.023      342.951       18.720      867.250
10/02/2014  13:48:00       54.641      -12.354       22.203       49.339       47.593       29.074     2434.362     2265.091      845.307        0.459        0.277       56.020       24.516        0.192      343.189       19.126      867.217
10/02/2014  13:49:00       38.775       83.251       11.466       41.097       44.967       35.744     1688.988     2022.032     1277.624        0.678        0.249       91.838       29.378        0.102      343.320       19.350      867.213
10/02/2014  13:50:00      -23.316       96.978      -22.601       30.691       33.783       16.021      941.918     1141.260      256.687        0.640        0.117       99.741       10.405        0.011      343.101       18.976      867.190
10/02/2014  13:51:00      -41.551       86.514      -19.815       24.329       37.606       15.921      591.894     1414.224      253.468        0.593        0.113       95.975       13.456        0.020      343.198       19.140      867.167
10/02/2014  13:52:00      -47.749       81.907       -7.067       29.620       33.792       29.152      877.336     1141.884      849.825        0.595        0.143       94.809       18.784        0.039      343.483       19.627      867.141
10/02/2014  13:53:00      -41.547      110.545      -18.589       40.386       33.026       26.384     1631.029     1090.695      696.100        0.885        0.171      118.094       17.223        0.021      343.183       19.115      867.126
10/02/2014  13:54:00       38.628       35.414        3.246       29.556       36.206       20.143      873.555     1310.883      405.729        0.267        0.130       52.405       16.835        0.103      343.427       19.531      867.117
10/02/2014  13:55:00       26.531       47.368       -7.794       41.816       38.199       24.730     1748.585     1459.195      611.592        0.341        0.191       54.292       17.511        0.104      343.479       19.620      867.088
10/02/2014  13:56:00       15.395       41.953      -12.179       43.481       49.188       20.986     1890.582     2419.477      440.392        0.345        0.238       44.688       19.571        0.192      343.596       19.818      867.073
10/02/2014  13:57:00       36.629      -97.707        3.665       74.134       72.846       65.994     5495.824     5306.530     4355.170        1.303        0.758      104.347       61.170        0.344      343.819       20.199      867.056
10/02/2014  13:58:00        2.176       13.846       96.460       43.244       66.496       39.415     1870.009     4421.784     1553.506        0.867        0.392       14.016       35.574        6.442      344.071       20.630      867.042
10/02/2014  13:59:00      116.514      -88.073       15.976       79.102      104.851       60.709     6257.099    10993.731     3685.584        2.126        1.047      146.056       70.974        0.236      343.848       20.247      867.052
10/02/2014  14:00:00       67.361      -81.115       32.394       71.046      107.918       62.771     5047.590    11646.376     3940.221        1.640        1.032      105.438       72.451        0.472      343.958       20.436      867.031
10/02/2014  14:01:00       76.084      -23.150       43.184       59.078      128.359       55.406     3490.224    16476.062     3069.803        1.561        1.152       79.528       61.151        0.591      343.587       19.801      867.024
10/02/2014  14:02:00      127.385       81.786       95.717       89.272       64.974       65.708     7969.442     4221.572     4317.523        2.429        0.825      151.380       35.107        0.054      343.415       19.509      867.006
10/02/2014  14:03:00       96.689        4.246       47.447       85.406       58.313       49.538     7294.117     3400.462     2454.048        1.238        0.657       96.782       39.509        0.167      343.287       19.292      867.009
10/02/2014  14:04:00       27.820       14.624       17.162       28.817       32.540       21.144      830.401     1058.853      447.062        0.181        0.117       31.429       14.269        0.206      343.611       19.844      867.014
10/02/2014  14:05:00       85.540       58.101       23.255       50.111       41.734       36.145     2511.161     1741.694     1306.442        0.840        0.278      103.406       25.402        0.060      343.574       19.781      867.004
10/02/2014  14:06:00       27.840       52.783      -20.788       47.858       18.555       25.872     2290.374      344.271      669.347        0.365        0.165       59.675       20.177        0.114      343.361       19.419      867.012
10/02/2014  14:07:00       16.718        7.351       17.506       30.637       33.763       23.383      938.602     1139.934      546.788        0.163        0.131       18.263       16.417        0.808      343.913       20.359      866.999
10/02/2014  14:08:00       58.692      -89.272        8.625       49.389       80.882       43.268     2439.275     6541.838     1872.096        1.117        0.543      106.838       40.489        0.144      343.805       20.174      866.990
10/02/2014  14:09:00       50.641      -18.825       45.210       69.647       59.939       39.293     4850.695     3592.709     1543.915        0.747        0.499       54.027       46.792        0.750      343.939       20.405      866.990
10/02/2014  14:10:00       20.384       39.486       43.116       43.439       39.342       26.609     1886.958     1547.830      708.064        0.399        0.207       44.437       18.563        0.175      343.662       19.931      867.000
10/02/2014  14:11:00      147.727       56.213        8.610       66.670       69.941       42.994     4444.915     4891.731     1848.527        1.812        0.559      158.061       25.153        0.025      343.768       20.111      867.001
10/02/2014  14:12:00       55.000      -12.008        9.463       51.332       49.346       38.601     2635.019     2434.998     1490.042        0.491        0.328       56.296       26.857        0.228      344.038       20.574      867.005
10/02/2014  14:13:00       80.177       26.324       19.779       90.044       45.980       39.324     8107.966     2114.125     1546.350        0.964        0.588       84.388       24.069        0.081      344.006       20.519      867.002
10/02/2014  14:14:00        1.856       41.583       17.612       42.347       37.425       29.265     1793.235     1400.608      856.423        0.305        0.203       41.624        7.645        0.034      344.093       20.667      866.994
10/02/2014  14:15:00       56.604       10.220       43.285       71.128       62.581       65.042     5059.198     3916.364     4230.412        0.919        0.660       57.519       62.061        1.164      343.798       20.164      866.979
10/02/2014  14:16:00      139.380       72.342       62.078       59.547       54.209       66.315     3545.902     2938.652     4397.616        1.970        0.544      157.036       49.498        0.099      343.425       19.528      866.980
10/02/2014  14:17:00       69.270       42.610       21.517       61.912       44.199       30.694     3833.102     1953.512      942.097        0.690        0.336       81.326       22.482        0.076      343.423       19.523      866.974
10/02/2014  14:18:00      116.319       53.967       12.591       57.798       44.820       42.015     3340.593     2008.826     1765.281        1.186        0.356      128.228       37.024        0.083      343.589       19.805      866.965
10/02/2014  14:19:00       50.936      -39.353       -6.354       38.440       40.726       29.051     1477.669     1658.630      843.939        0.408        0.199       64.367       22.263        0.120      343.365       19.427      866.949
10/02/2014  14:20:00        3.830       31.269        2.784       20.624       15.862       18.939      425.332      251.616      358.702        0.102        0.052       31.503       15.442        0.240      343.634       19.884      866.920
10/02/2014  14:21:00       45.281        9.788       20.183       26.301       18.979       19.135      691.721      360.217      366.145        0.199        0.071       46.327        8.336        0.032      343.342       19.387      866.905
10/02/2014  14:22:00       75.826      -21.155       15.010       67.304       73.359       49.249     4529.847     5381.615     2425.451        0.938        0.617       78.722       50.408        0.410      343.410       19.503      866.896
10/02/2014  14:23:00       88.433       84.839       80.711       61.516       51.360       53.219     3784.210     2637.866     2832.238        1.539        0.463      122.548       35.255        0.083      343.356       19.410      866.882
10/02/2014  14:24:00       76.648       75.415       50.331       36.115       32.717       34.209     1304.311     1070.372     1170.278        0.882        0.177      107.528       27.062        0.063      343.648       19.907      866.855
10/02/2014  14:25:00       15.403       -4.046       10.983       40.719       46.640       22.764     1658.074     2175.330      518.215        0.236        0.218       15.925       14.436        0.822      343.782       20.136      866.836
10/02/2014  14:26:00       42.279      -61.534       -0.331       27.559       45.958       29.836      759.484     2112.130      890.187        0.467        0.188       74.659       27.809        0.139      343.868       20.285      866.806
10/02/2014  14:27:00       51.951      -63.025       -0.197       32.842       34.328       23.939     1078.571     1178.404      573.084        0.475        0.142       81.676       15.271        0.035      343.647       19.906      866.787
10/02/2014  14:28:00       -0.641       10.616       24.993       30.396       27.154       25.159      923.900      737.342      632.994        0.152        0.115       10.635       20.203        3.609      344.299       21.019      866.771
10/02/2014  14:29:00       38.334       16.123        5.461       45.412       34.293       27.869     2062.232     1176.029      776.685        0.289        0.201       41.586       25.416        0.374      344.272       20.974      866.756
10/02/2014  14:30:00       17.111       -4.869        5.119       21.129       22.095       15.488      446.453      488.201      239.883        0.076        0.059       17.791       12.715        0.511      344.055       20.603      866.739
10/02/2014  14:31:00       25.226       54.690      -19.165       31.934       31.293       14.081     1019.803      979.259      198.270        0.310        0.110       60.227       11.923        0.039      344.217       20.879      866.740
10/02/2014  14:32:00       75.068       62.772       12.616       33.551       29.445       31.718     1125.662      866.984     1006.052        0.637        0.150       97.854       12.724        0.017      343.960       20.440      866.745
10/02/2014  14:33:00       59.675       48.595        2.304       33.195       27.620       22.914     1101.900      762.881      525.061        0.416        0.119       76.958       12.576        0.027      343.928       20.386      866.753
10/02/2014  14:34:00       -4.769       -2.031      -17.096       20.773       40.745       14.726      431.532     1660.170      216.863        0.131        0.115        5.184       10.233        3.897      344.188       20.829      866.744
10/02/2014  14:35:00       -8.995      -83.988      -15.497       38.242       35.737       27.635     1462.425     1277.147      763.678        0.544        0.175       84.469       23.298        0.076      344.232       20.906      866.723
10/02/2014  14:36:00       32.070      -18.297       31.644       30.392       25.393       23.129      923.676      644.800      534.947        0.223        0.105       36.923       18.152        0.242      344.130       20.731      866.721
10/02/2014  14:37:00       29.908      -32.989       -0.067       24.127       24.744       22.618      582.106      612.248      511.579        0.184        0.085       44.528       10.245        0.053      343.632       19.883      866.724
10/02/2014  14:38:00       42.535       22.917       -2.750       23.474       20.432       12.172      551.010      417.465      148.153        0.173        0.056       48.316        7.391        0.023      343.908       20.351      866.708
10/02/2014  14:39:00       48.885      -18.669        2.167       25.147       21.758       18.466      632.383      473.416      340.976        0.209        0.072       52.329        8.651        0.027      343.805       20.176      866.706
10/02/2014  14:40:00       69.316      -38.198       11.940       82.299      101.493       36.526     6773.051    10300.917     1334.163        1.240        0.920       79.144       32.860        0.172      344.256       20.945      866.700
10/02/2014  14:41:00      123.547      -73.665       14.567       62.527       88.586       58.357     3909.612     7847.395     3405.555        1.803        0.758      143.841       60.251        0.175      343.988       20.486      866.700
10/02/2014  14:42:00       68.768      -47.830       20.708       97.404      110.946       72.049     9487.505    12308.975     5191.020        1.721        1.349       83.766       93.705        1.251      344.307       21.032      866.690
10/02/2014  14:43:00       57.077      -25.512       48.287       53.875      121.053       53.330     2902.543    14653.857     2844.050        1.332        1.020       62.519       64.953        1.079      344.321       21.057      866.670
10/02/2014  14:44:00       23.252       45.138       57.228       34.874       48.161       30.967     1216.218     2319.442      958.977        0.517        0.225       50.775       27.195        0.287      344.454       21.284      866.693
10/02/2014  14:45:00       85.737       58.712       37.551       46.438       48.335       30.317     2156.512     2336.301      919.099        0.881        0.271      103.913       29.526        0.081      344.247       20.931      866.696
10/02/2014  14:46:00       70.600       70.614       57.773       66.440       53.945       45.062     4414.273     2910.100     2030.621        1.133        0.468       99.853       39.342        0.155      344.509       21.377      866.678
10/02/2014  14:47:00       44.958      -12.967       10.835       56.858       78.211       39.522     3232.845     6117.034     1562.009        0.661        0.546       46.790       31.516        0.454      343.920       20.373      866.682
10/02/2014  14:48:00       36.873      -46.035        6.567       31.954       21.910       25.213     1021.048      480.061      635.719        0.283        0.107       58.982       12.779        0.047      343.747       20.078      866.685
10/02/2014  14:49:00       32.958        5.436       11.262       41.374       39.841       32.488     1711.841     1587.343     1055.482        0.280        0.218       33.403       13.841        0.172      343.857       20.265      866.668
10/02/2014  14:50:00       54.082       35.157       10.952       26.227       24.675       21.211      687.849      608.848      449.916        0.301        0.087       64.505       11.488        0.032      344.207       20.862      866.649
10/02/2014  14:51:00       35.855      -23.452        8.441       39.219       80.853       33.891     1538.092     6537.166     1148.631        0.556        0.461       42.844       43.903        1.050      343.989       20.490      866.644
10/02/2014  14:52:00       19.321      -23.356       35.775       25.441       55.514       28.476      647.255     3081.803      810.888        0.337        0.227       30.311       26.324        0.754      344.011       20.527      866.644
10/02/2014  14:53:00       23.031        1.669       29.965       27.826       61.667       26.662      774.293     3802.778      710.851        0.336        0.264       23.091       15.498        0.450      344.116       20.706      866.633
10/02/2014  14:54:00       42.138       36.071       13.409       41.870       41.291       31.502     1753.078     1704.917      992.397        0.385        0.223       55.468       21.942        0.156      344.233       20.906      866.616
10/02/2014  14:55:00       68.975       40.892        7.186       20.441       21.944       18.533      417.843      481.559      343.481        0.386        0.062       80.186       10.489        0.017      343.972       20.462      866.611
10/02/2014  14:56:00      102.958       68.996       39.972       41.658       46.925       36.630     1735.405     2201.922     1341.765        1.112        0.264      123.939       24.167        0.038      344.016       20.535      866.607
10/02/2014  14:57:00        6.118      -33.099       10.818       33.971       57.905       33.235     1154.019     3353.035     1104.584        0.343        0.281       33.660       30.558        0.824      344.354       21.112      866.600
10/02/2014  14:58:00       -3.641     -123.517       -5.391       74.178       53.427       39.915     5502.382     2854.467     1593.220        1.262        0.498      123.571       25.687        0.043      344.351       21.108      866.610
10/02/2014  14:59:00      -20.409      -32.050       10.605       52.044       68.744       39.541     2708.545     4725.785     1563.470        0.528        0.450       37.996       36.427        0.919      344.605       21.540      866.588
10/02/2014  15:00:00        4.265      -37.687       -0.468       29.254       43.331       25.791      855.799     1877.557      665.190        0.242        0.170       37.928       25.399        0.448      344.706       21.716      866.580
10/02/2014  15:01:00      -13.353       37.502        2.760       25.273       39.414       31.279      638.738     1553.429      978.364        0.238        0.159       39.808       15.559        0.153      344.411       21.211      866.575
10/02/2014  15:02:00        6.035       -0.461       15.843       42.123       26.700       17.486     1774.363      712.909      305.748        0.154        0.140        6.052       13.646        5.083      344.258       20.950      866.582
10/02/2014  15:03:00       11.526       16.015       23.762       32.484       29.275       29.278     1055.202      857.035      857.208        0.186        0.138       19.732       27.371        1.924      344.220       20.885      866.569
10/02/2014  15:04:00      -25.822        7.916        0.896       40.446       28.934       29.587     1635.847      837.196      875.395        0.204        0.167       27.008        8.657        0.103      344.764       21.815      866.557
10/02/2014  15:05:00       10.677      -26.133       18.053       34.468       48.652       26.536     1188.055     2366.998      704.163        0.269        0.213       28.230       29.070        1.060      344.921       22.082      866.566
10/02/2014  15:06:00      -28.296        4.597       20.913       37.561       27.669       20.586     1410.797      765.590      423.801        0.193        0.130       28.667       22.689        0.626      344.931       22.101      866.568
10/02/2014  15:07:00      -52.289       23.909       15.278       45.802       35.821       31.777     2097.807     1283.164     1009.788        0.396        0.220       57.496       31.522        0.301      344.897       22.042      866.568
10/02/2014  15:08:00       22.232       17.410       62.001       44.295       24.783       28.282     1962.038      614.215      799.871        0.401        0.169       28.238       18.753        0.441      344.866       21.990      866.572
10/02/2014  15:09:00       70.018       66.683       17.854       57.377       49.765       38.096     3292.102     2476.513     1451.304        0.844        0.361       96.691       38.633        0.160      344.597       21.529      866.580
10/02/2014  15:10:00       94.276       69.268       22.688       78.069       33.619       43.747     6094.842     1130.241     1913.778        1.167        0.457      116.987       37.599        0.103      344.563       21.471      866.579
10/02/2014  15:11:00       45.632       57.384       76.618       68.656       46.933       42.441     4713.678     2202.729     1801.202        0.998        0.436       73.316       37.687        0.264      344.527       21.410      866.566
10/02/2014  15:12:00       87.073       77.900       70.430       76.431       58.925       46.282     5841.662     3472.192     2142.028        1.503        0.573      116.834       41.032        0.123      344.420       21.225      866.564
10/02/2014  15:13:00       91.460       48.535       39.108       57.315       45.732       36.943     3285.066     2091.396     1364.796        0.949        0.337      103.540       24.255        0.055      344.647       21.615      866.577
10/02/2014  15:14:00       40.966       32.083        9.982       45.027       40.074       34.617     2027.421     1605.887     1198.337        0.382        0.242       52.034       16.942        0.106      344.697       21.699      866.585
10/02/2014  15:15:00      -17.873       52.214      -15.729       31.099       27.893       21.137      967.123      778.045      446.782        0.274        0.110       55.188       19.933        0.130      344.651       21.621      866.580
10/02/2014  15:16:00       18.098       43.466       -7.482       26.586       30.474       19.047      706.812      928.649      362.777        0.214        0.100       47.083       18.755        0.159      344.677       21.666      866.565
10/02/2014  15:17:00       27.520       58.880        1.162       29.089       30.219       27.893      846.184      913.185      778.028        0.338        0.127       64.994       16.027        0.061      344.637       21.596      866.569
10/02/2014  15:18:00       19.852       10.127       18.915       27.148       12.883       15.428      737.001      165.966      238.013        0.100        0.057       22.286        9.102        0.167      344.492       21.350      866.571
10/02/2014  15:19:00       29.451       -9.460       14.764       30.790       18.435       24.465      948.053      339.839      598.545        0.153        0.094       30.933       13.554        0.192      344.470       21.310      866.577
10/02/2014  15:20:00        3.820      -34.578       24.518       27.104       36.228       28.049      734.617     1312.441      786.770        0.232        0.142       34.789       18.073        0.270      344.667       21.650      866.558
10/02/2014  15:21:00        7.672      -17.162        8.980       61.006       39.086       28.765     3721.773     1527.721      827.412        0.325        0.304       18.799       24.100        1.643      344.209       20.866      866.557
10/02/2014  15:22:00       11.755       14.619       40.830       30.182       35.644       30.291      910.974     1270.522      917.519        0.256        0.155       18.759       23.619        1.585      344.792       21.863      866.553
10/02/2014  15:23:00       45.626       27.535       45.748       48.910       43.499       32.755     2392.161     1892.185     1072.885        0.514        0.268       53.291       27.798        0.272      344.514       21.386      866.560
10/02/2014  15:24:00       33.194      -20.085        0.623       19.319       16.709       18.318      373.207      279.190      335.559        0.125        0.049       38.797       10.938        0.079      344.539       21.430      866.546
10/02/2014  15:25:00       58.671      -13.779        7.446       23.332       15.994       20.868      544.399      255.808      435.488        0.246        0.062       60.267       11.619        0.037      344.295       21.013      866.537
10/02/2014  15:26:00       31.555       45.924        5.265       41.231       37.846       34.361     1700.021     1432.334     1180.659        0.372        0.216       55.720       29.258        0.276      344.602       21.536      866.525
10/02/2014  15:27:00       34.052       77.280      -12.105       37.118       32.452       24.587     1377.758     1053.162      604.517        0.516        0.152       84.450       19.111        0.051      344.755       21.798      866.524
10/02/2014  15:28:00      -31.696       91.892      -29.922       77.520       59.838       32.243     6009.338     3580.590     1039.580        1.048        0.531       97.204       37.991        0.153      344.586       21.510      866.523
10/02/2014  15:29:00      -79.480      -12.443       -6.511       24.012       27.175       22.275      576.564      738.463      496.155        0.416        0.091       80.448       11.691        0.021      344.807       21.887      866.502
10/02/2014  15:30:00        9.160       17.711       17.080       58.842       34.667       26.693     3462.325     1201.788      712.533        0.303        0.269       19.940       20.436        1.050      344.703       21.709      866.493
10/02/2014  15:31:00       61.386       44.499       27.545       55.707       51.228       33.795     3103.257     2624.310     1142.101        0.669        0.343       75.819       35.399        0.218      344.579       21.496      866.500
10/02/2014  15:32:00      105.059       69.452       12.889       46.291       36.271       24.434     2142.863     1315.601      597.036        1.004        0.203      125.940       13.049        0.011      344.684       21.677      866.503
10/02/2014  15:33:00       31.057       38.866       52.635       53.185       44.809       34.878     2828.689     2007.862     1216.482        0.565        0.303       49.750       24.395        0.240      344.515       21.388      866.504
10/02/2014  15:34:00       81.618       56.092       50.851       62.246       38.804       53.625     3874.574     1505.765     2875.615        1.032        0.413       99.034       35.688        0.130      344.296       21.015      866.510
10/02/2014  15:35:00       23.948       -7.718       32.266       35.777       30.107       34.057     1279.966      906.407     1159.850        0.251        0.167       25.160       20.416        0.658      344.402       21.195      866.507
10/02/2014  15:36:00       58.384       15.875       49.269       59.199       55.743       32.401     3504.472     3107.305     1049.837        0.687        0.383       60.504       32.480        0.288      344.504       21.370      866.511
10/02/2014  15:37:00       24.258       25.315       29.600       26.184       45.031       35.085      685.624     2027.830     1230.964        0.302        0.197       35.062       23.305        0.442      344.567       21.477      866.503
10/02/2014  15:38:00       89.938       93.807       39.525       71.518       39.985       36.978     5114.757     1598.798     1367.402        1.326        0.404      129.957       38.324        0.087      344.773       21.829      866.496
10/02/2014  15:39:00      143.532       67.108       29.056       70.943       43.941       44.970     5032.857     1930.815     2022.303        1.747        0.449      158.446       28.953        0.033      344.783       21.845      866.498
10/02/2014  15:40:00      179.408      107.305       16.107       51.356       47.431       37.835     2637.449     2249.742     1431.456        2.514        0.316      209.049       19.477        0.009      344.741       21.772      866.493
10/02/2014  15:41:00       73.179       28.955        3.419       54.040       65.356       38.618     2920.284     4271.419     1491.381        0.744        0.434       78.699       24.932        0.100      344.716       21.731      866.473
10/02/2014  15:42:00       32.727        0.040       19.584       25.839       34.732       14.962      667.656     1206.284      223.859        0.178        0.105       32.727       15.934        0.237      344.887       22.024      866.465
10/02/2014  15:43:00        9.379      -49.728       -3.019       20.297       21.633       17.429      411.961      467.999      303.766        0.188        0.059       50.604       14.280        0.080      344.756       21.802      866.453
10/02/2014  15:44:00       56.674       45.536       20.847       33.527       45.418       31.497     1124.089     2062.771      992.032        0.495        0.209       72.702       13.138        0.033      344.844       21.950      866.444
10/02/2014  15:45:00      131.163       99.220       12.811       52.185       37.298       31.279     2723.306     1391.161      978.385        1.615        0.255      164.464       24.111        0.021      344.927       22.093      866.445
10/02/2014  15:46:00      145.894      100.813       17.071       50.544       42.572       47.402     2554.728     1812.384     2246.953        1.918        0.331      177.337       32.986        0.035      344.775       21.833      866.445
10/02/2014  15:47:00       83.140       51.922        8.636       45.981       38.512       25.711     2114.273     1483.191      661.071        0.697        0.213       98.021       17.761        0.033      344.767       21.819      866.442
10/02/2014  15:48:00       23.117       -4.491       11.118       40.784       13.223       22.657     1663.305      174.849      513.334        0.151        0.118       23.549       23.245        0.974      344.502       21.367      866.438
10/02/2014  15:49:00       39.042       17.399       11.706       28.367       21.064       21.500      804.685      443.702      462.266        0.184        0.086       42.743       12.666        0.088      344.426       21.236      866.436
10/02/2014  15:50:00       39.043       30.213        9.133       25.422       17.908       23.073      646.282      320.683      532.351        0.201        0.075       49.368        8.391        0.029      344.410       21.208      866.434
10/02/2014  15:51:00       20.342       25.510       -9.081       22.489       10.204       17.810      505.759      104.124      317.192        0.104        0.046       32.627        8.271        0.064      344.858       21.975      866.426
10/02/2014  15:52:00      -19.500       15.144      -11.189       11.882       20.915       11.987      141.171      437.449      143.686        0.073        0.036       24.689       11.743        0.226      345.045       22.296      866.416
10/02/2014  15:53:00        0.995        1.798       16.321       23.329       17.869       14.778      544.222      319.306      218.375        0.068        0.054        2.055       14.581       50.346      345.374       22.859      866.396
10/02/2014  15:54:00      -48.623        3.424        2.406       51.965       25.881       27.338     2700.351      669.841      747.357        0.325        0.206       48.744       31.871        0.428      345.182       22.529      866.386
10/02/2014  15:55:00       44.749       11.808       15.884       30.873       24.467       21.307      953.164      598.637      453.988        0.220        0.100       46.281       16.399        0.126      344.347       21.101      866.386
10/02/2014  15:56:00       44.351      118.452        5.451       60.200       59.775       47.693     3624.041     3573.042     2274.625        1.275        0.474      126.483       30.510        0.058      344.767       21.820      866.374
10/02/2014  15:57:00        7.294      145.105      -35.251       33.249       45.950       22.553     1105.529     2111.380      508.629        1.304        0.186      145.288       15.737        0.012      344.889       22.029      866.361
10/02/2014  15:58:00      -20.444      112.890       -7.947       35.491       41.085       20.800     1259.606     1687.957      432.634        0.830        0.169      114.727        4.867        0.002      344.992       22.205      866.336
10/02/2014  15:59:00       33.880       34.997       -6.060       25.599       22.556       16.392      655.300      508.758      268.683        0.192        0.072       48.710       11.010        0.051      345.135       22.451      866.325
10/02/2014  16:00:00      126.243       91.699       21.788       98.238       80.626       32.299     9650.656     6500.472     1043.234        2.100        0.860      156.032       14.640        0.009      345.137       22.450      866.310
10/02/2014  16:01:00      159.146      101.086        6.607       54.694       55.304       37.342     2991.460     3058.479     1394.437        2.152        0.372      188.536       23.849        0.016      345.025       22.260      866.304
10/02/2014  16:02:00       99.221       36.475       22.774       46.227       57.285       33.003     2136.979     3281.543     1089.219        0.910        0.325      105.713       11.793        0.012      345.253       22.651      866.301
10/02/2014  16:03:00       59.674       20.791       22.195       51.123       38.776       26.572     2613.547     1503.616      706.092        0.465        0.241       63.193       18.055        0.082      345.235       22.621      866.310
10/02/2014  16:04:00       48.110       50.800       -6.050       25.752       41.132       25.360      663.172     1691.821      643.112        0.396        0.150       69.966       23.584        0.114      344.929       22.096      866.306
10/02/2014  16:05:00       32.371       50.848       -4.425       44.990       36.166       23.413     2024.064     1307.949      548.168        0.377        0.194       60.278       17.963        0.089      344.973       22.173      866.304
10/02/2014  16:06:00      -13.848       75.545      -19.516       18.440       31.261       15.372      340.033      977.278      236.310        0.392        0.078       76.803       11.175        0.021      345.056       22.314      866.302
10/02/2014  16:07:00       -4.334       65.289       -5.786       31.502       49.775       26.819      992.366     2477.592      719.249        0.425        0.209       65.433       28.024        0.183      345.278       22.694      866.295
10/02/2014  16:08:00       22.467       52.863       33.344       37.093       38.977       36.433     1375.924     1519.171     1327.367        0.432        0.211       57.439       25.749        0.201      345.272       22.683      866.300
10/02/2014  16:09:00       63.177       57.105       16.366       24.171       34.988       26.632      584.223     1224.156      709.255        0.502        0.126       85.160       10.301        0.015      345.019       22.250      866.299
10/02/2014  16:10:00       21.173      -32.631        3.573       22.117       41.805       21.138      489.184     1747.695      446.821        0.210        0.134       38.899       18.620        0.229      345.185       22.535      866.302
10/02/2014  16:11:00       70.456       53.455       20.938       30.483       31.335       35.695      929.214      981.905     1274.113        0.572        0.159       88.439       12.482        0.020      345.081       22.358      866.304
10/02/2014  16:12:00       63.988       53.011       22.902       36.560       27.221       27.997     1336.632      740.960      783.811        0.514        0.143       83.094       18.577        0.050      345.233       22.618      866.296
10/02/2014  16:13:00       93.038       55.780        1.962       48.233       40.612       35.995     2326.432     1649.367     1295.612        0.852        0.264      108.478       20.833        0.037      345.230       22.611      866.312
10/02/2014  16:14:00       56.338        9.173        4.107       34.824       45.033       29.401     1212.723     2028.007      864.402        0.369        0.205       57.080       21.556        0.143      345.261       22.664      866.317
10/02/2014  16:15:00       79.621       31.418       18.592       69.221       41.054       34.300     4791.524     1685.458     1176.478        0.766        0.383       85.595       24.770        0.084      345.241       22.629      866.315
10/02/2014  16:16:00       96.927       61.744       36.362       43.530       44.995       46.546     1894.821     2024.537     2166.565        1.031        0.304      114.922       39.758        0.120      345.153       22.479      866.309
10/02/2014  16:17:00       39.517       30.791       31.922       41.948       27.913       24.554     1759.622      779.141      602.888        0.333        0.157       50.096       16.192        0.104      345.431       22.957      866.295
10/02/2014  16:18:00        8.449        5.340       22.981       36.433       40.180       26.378     1327.353     1614.417      695.803        0.213        0.182        9.995       12.652        1.602      345.626       23.292      866.283
10/02/2014  16:19:00       25.752       -2.711        2.933       37.327       41.571       22.982     1393.303     1728.139      528.170        0.216        0.182       25.894       16.197        0.391      345.549       23.159      866.293
10/02/2014  16:20:00       32.052       40.532       29.031       32.017       16.381       23.833     1025.106      268.340      568.017        0.269        0.093       51.674       14.026        0.074      345.351       22.818      866.292
10/02/2014  16:21:00       29.569       60.546      -10.119       26.010       52.163       18.008      676.533     2720.933      324.286        0.418        0.186       67.380       14.110        0.044      345.191       22.545      866.282
10/02/2014  16:22:00        3.304       39.173        0.250       16.132       30.974       17.940      260.246      959.395      321.853        0.154        0.077       39.313       16.780        0.182      345.262       22.667      866.274
10/02/2014  16:23:00      -23.176       84.397       -5.848       38.447       41.655       23.403     1478.161     1735.112      547.696        0.573        0.188       87.521       20.278        0.054      345.297       22.726      866.262
10/02/2014  16:24:00       26.418       86.799      -10.841       62.057       64.774       34.589     3851.129     4195.667     1196.405        0.879        0.462       90.730       31.667        0.122      345.243       22.634      866.253
10/02/2014  16:25:00       39.352       47.979       -2.422       42.447       56.464       35.552     1801.732     3188.165     1263.969        0.505        0.313       62.053       34.042        0.301      345.324       22.773      866.253
10/02/2014  16:26:00       19.585       63.330      -11.782       25.541       37.713       12.844      652.363     1422.287      164.968        0.339        0.112       66.289        7.438        0.013      345.148       22.471      866.249
10/02/2014  16:27:00        4.850       83.108       -9.957       23.392       45.156       19.331      547.195     2039.032      373.707        0.499        0.148       83.250       21.471        0.067      345.228       22.609      866.248
10/02/2014  16:28:00        3.296      130.507      -23.358       33.105       33.334       16.605     1095.951     1111.182      275.741        1.004        0.124      130.549       13.720        0.011      345.066       22.331      866.253
10/02/2014  16:29:00       -6.077       10.840       -0.178       23.063       64.768       26.732      531.923     4194.947      714.603        0.280        0.272       12.427       34.334        7.633      345.210       22.578      866.254
10/02/2014  16:30:00       27.615       28.421        4.723       24.212       23.787       18.535      586.235      565.824      343.563        0.154        0.075       39.628       13.030        0.108      345.241       22.630      866.253
10/02/2014  16:31:00       63.428       58.409       -7.442       28.865       42.712       27.493      833.194     1824.326      755.888        0.545        0.171       86.224       19.528        0.051      345.188       22.541      866.246
10/02/2014  16:32:00       37.610       53.283        3.407       47.349       28.317       31.647     2241.891      801.834     1001.544        0.415        0.202       65.219       24.325        0.139      345.239       22.628      866.241
10/02/2014  16:33:00      -47.893       50.035      -28.417       22.203       30.913       18.005      492.990      955.587      324.181        0.369        0.089       69.263        9.656        0.019      345.433       22.961      866.237
10/02/2014  16:34:00      -35.691       74.533      -12.675       27.057       31.923       22.951      732.102     1019.090      526.754        0.463        0.114       82.638       16.278        0.039      345.517       23.103      866.241
10/02/2014  16:35:00       12.492       65.400      -10.806       24.040       16.801       18.126      577.925      282.274      328.563        0.287        0.059       66.583        6.713        0.010      345.456       22.998      866.246
10/02/2014  16:36:00      -25.120      230.119      -32.310       58.719       75.390       32.093     3447.871     5683.691     1029.962        3.239        0.508      231.486       33.184        0.021      345.307       22.739      866.254
10/02/2014  16:37:00       44.032      201.605      -31.730       35.822       70.374       29.980     1283.234     4952.459      898.807        2.536        0.357      206.357       36.016        0.030      345.180       22.526      866.248
10/02/2014  16:38:00       12.674      105.293      -19.126       14.953       28.677       11.887      223.605      822.389      141.309        0.640        0.059      106.054        9.946        0.009      345.230       22.611      866.254
10/02/2014  16:39:00       50.885       70.924        7.092       42.145       35.586       31.898     1776.201     1266.331     1017.488        0.586        0.203       87.290       20.838        0.057      345.305       22.739      866.256
10/02/2014  16:40:00      109.847       56.582       25.789       89.681       52.317       46.809     8042.682     2737.049     2191.055        1.445        0.649      123.563       45.557        0.136      345.251       22.645      866.255
10/02/2014  16:41:00       11.534       30.191        7.761       48.791       24.846       26.744     2380.572      617.299      715.259        0.241        0.186       32.319       21.739        0.452      345.531       23.127      866.253
10/02/2014  16:42:00      116.844       73.039       10.075       82.796       52.690       38.664     6855.098     2776.187     1494.868        1.511        0.556      137.794       25.678        0.035      345.355       22.826      866.258
10/02/2014  16:43:00      195.157      144.440       23.033       64.085       49.723       45.151     4106.887     2472.425     2038.588        3.405        0.431      242.794       31.899        0.017      345.253       22.646      866.260
10/02/2014  16:44:00       92.850       69.875       23.362       45.826       36.378       35.083     2100.060     1323.365     1230.808        0.935        0.233      116.205       25.188        0.047      345.276       22.690      866.261
10/02/2014  16:45:00      112.654       65.417       22.063       63.872       43.395       42.755     4079.616     1883.102     1827.976        1.262        0.390      130.270       23.322        0.032      345.419       22.935      866.254
10/02/2014  16:46:00       48.774       64.339        6.249       41.407       47.968       31.903     1714.517     2300.918     1017.805        0.579        0.252       80.736       22.751        0.079      345.393       22.892      866.252
10/02/2014  16:47:00       20.072      135.807      -23.234       36.239       61.166       21.834     1313.256     3741.328      476.723        1.246        0.277      137.282       30.268        0.049      345.283       22.702      866.248
10/02/2014  16:48:00        5.742       94.912      -27.086       25.616       25.562       10.643      656.165      653.432      113.269        0.560        0.071       95.086        7.038        0.005      345.313       22.754      866.244
10/02/2014  16:49:00        2.932       50.151       -7.986       41.082       28.223       19.465     1687.694      796.541      378.878        0.272        0.143       50.237       18.029        0.129      345.362       22.838      866.240
10/02/2014  16:50:00       60.786       67.159        0.111       41.246       40.564       31.189     1701.245     1645.430      972.767        0.626        0.216       90.583       26.756        0.087      345.324       22.773      866.243
10/02/2014  16:51:00       76.535       54.833       18.716       50.340       31.267       21.131     2534.089      977.612      446.505        0.659        0.198       94.150       17.861        0.036      345.375       22.861      866.242
10/02/2014  16:52:00       89.617       37.207       25.756       47.683       35.593       28.311     2273.708     1266.832      801.539        0.721        0.217       97.034       27.124        0.078      345.423       22.942      866.230
10/02/2014  16:53:00       17.671       49.731       59.315       40.416       32.139       19.471     1633.447     1032.895      379.106        0.467        0.152       52.778       18.645        0.125      345.642       23.318      866.233
10/02/2014  16:54:00       81.339       46.866       33.707       62.490       33.102       36.978     3905.039     1095.721     1367.349        0.816        0.318       93.875       28.779        0.094      345.443       22.977      866.235
10/02/2014  16:55:00       20.558       13.802       15.738       27.660       21.314       16.466      765.056      454.268      271.115        0.118        0.075       24.761        8.910        0.129      345.455       22.998      866.234
10/02/2014  16:56:00       11.923        5.001       -1.517       12.816       19.680        7.919      164.251      387.302       62.716        0.039        0.031       12.929        5.470        0.179      345.411       22.921      866.234
10/02/2014  16:57:00        9.776        1.515        5.261        9.751        6.166        9.334       95.074       38.021       87.117        0.017        0.011        9.892        5.328        0.290      345.618       23.277      866.238
10/02/2014  16:58:00       19.384       12.809       15.882       18.182       19.266       18.567      330.581      371.160      344.734        0.092        0.052       23.234       10.781        0.215      345.575       23.202      866.242
10/02/2014  16:59:00       19.688       39.597       31.835       27.767       25.138       21.599      771.026      631.913      466.501        0.242        0.093       44.222       15.386        0.121      345.511       23.094      866.248
10/02/2014  17:00:00       -1.935      -14.089       37.296       20.738       37.225       23.560      430.085     1385.667      555.070        0.198        0.119       14.222       23.152        2.650      345.830       23.641      866.254
10/02/2014  17:01:00       12.316      -44.650       -4.475       18.780       26.628       20.554      352.674      709.070      422.463        0.182        0.074       46.318       13.426        0.084      345.616       23.274      866.264
10/02/2014  17:02:00       73.127       32.232       19.022       71.347       33.086       28.074     5090.374     1094.683      788.123        0.686        0.349       79.915       21.443        0.072      345.399       22.902      866.267
10/02/2014  17:03:00       66.489       31.679       12.837       44.438       36.343       36.523     1974.766     1320.803     1333.951        0.511        0.231       73.650       25.062        0.116      345.372       22.855      866.274
10/02/2014  17:04:00       47.213       38.748       15.900       34.828       26.865       26.130     1213.019      721.713      682.801        0.330        0.131       61.077       20.411        0.112      345.487       23.053      866.278
10/02/2014  17:05:00       60.067       17.207       32.373       43.017       27.015       20.728     1850.475      729.836      429.660        0.398        0.150       62.483       15.916        0.065      345.510       23.093      866.277
10/02/2014  17:06:00      159.092       49.012       31.801       63.707       54.729       40.712     4058.535     2995.213     1657.452        1.872        0.436      166.471       28.428        0.029      345.456       22.997      866.282
10/02/2014  17:07:00       92.913       36.662       31.740       41.128       31.616       35.936     1691.489      999.596     1291.385        0.748        0.199       99.884       16.230        0.026      345.373       22.856      866.290
10/02/2014  17:08:00       89.213       53.331        8.854       43.244       43.121       27.206     1870.085     1859.378      740.154        0.767        0.223      103.938       22.519        0.047      345.325       22.774      866.296
10/02/2014  17:09:00       41.916       51.265       57.903       57.872       49.782       41.179     3349.166     2478.201     1695.742        0.763        0.376       66.219       39.209        0.351      345.483       23.046      866.292
10/02/2014  17:10:00       70.654       76.252       67.471       65.603       58.636       52.774     4303.811     3438.182     2785.091        1.294        0.526      103.954       44.877        0.186      345.456       22.999      866.291
10/02/2014  17:11:00       69.865        5.951       50.977       55.498       63.768       57.481     3080.076     4066.416     3304.108        0.898        0.523       70.117       49.109        0.491      345.447       22.985      866.286
10/02/2014  17:12:00      104.377       20.838       13.810       92.264       74.371       50.754     8512.611     5531.027     2575.928        1.407        0.831      106.436       43.265        0.165      345.382       22.871      866.287
10/02/2014  17:13:00       55.616       52.843       26.937       50.871       43.825       35.836     2587.902     1920.647     1284.201        0.620        0.290       76.718       29.276        0.146      345.411       22.922      866.295
10/02/2014  17:14:00       57.817       61.082       29.204       30.588       20.673       29.623      935.647      427.352      877.506        0.508        0.112       84.106       13.508        0.026      345.403       22.907      866.300
10/02/2014  17:15:00       37.013      -36.584       -5.239       15.120       26.156       15.721      228.612      684.161      247.143        0.195        0.058       52.042       16.491        0.100      345.487       23.051      866.308
10/02/2014  17:16:00       49.427        5.466       20.090       50.469       27.123       25.844     2547.136      735.674      667.937        0.341        0.198       49.728       14.743        0.088      345.563       23.182      866.317
10/02/2014  17:17:00       96.942       32.194        6.035       58.503       43.751       32.748     3422.563     1914.110     1072.420        0.844        0.320      102.148       31.034        0.092      345.456       22.999      866.323
10/02/2014  17:18:00       61.274       31.712       20.497       33.525       31.642       32.773     1123.930     1001.231     1074.050        0.419        0.160       68.994       20.200        0.086      345.477       23.036      866.327
10/02/2014  17:19:00       52.898       12.038       26.183       37.062       26.203       22.190     1373.558      686.605      492.375        0.309        0.128       54.251        9.139        0.028      345.560       23.178      866.326
10/02/2014  17:20:00       85.818       33.326       17.070       66.961       65.375       36.623     4483.727     4273.914     1341.262        0.943        0.505       92.062       38.954        0.179      345.548       23.156      866.333
10/02/2014  17:21:00      102.476       60.109       22.642       37.378       35.981       34.511     1397.127     1294.605     1191.030        0.925        0.194      118.804       27.408        0.053      345.480       23.040      866.341
10/02/2014  17:22:00       30.020       40.950       27.317       29.830       27.536       18.406      889.824      758.205      338.794        0.266        0.099       50.775       16.210        0.102      345.558       23.176      866.347
10/02/2014  17:23:00       47.642       45.244       14.346       33.235       31.437       27.112     1104.597      988.299      735.057        0.367        0.141       65.702       21.130        0.103      345.499       23.073      866.353
10/02/2014  17:24:00       57.329       34.103       -0.661       26.324       18.137       16.862      692.931      328.967      284.316        0.288        0.065       66.706        9.149        0.019      345.491       23.059      866.361
10/02/2014  17:25:00       82.466       29.685        7.700       30.396       21.971       19.661      923.927      482.739      386.570        0.477        0.090       87.646       13.136        0.022      345.469       23.023      866.370
10/02/2014  17:26:00       15.851       38.617       14.997       31.826       30.868       21.087     1012.868      952.845      444.649        0.219        0.121       41.744       13.758        0.109      345.556       23.171      866.370
10/02/2014  17:27:00       35.046       56.093        3.757       42.988       42.558       28.996     1847.934     1811.206      840.754        0.444        0.225       66.141       26.899        0.165      345.455       22.997      866.369
10/02/2014  17:28:00       88.371       88.031       -2.455       48.301       43.114       30.368     2333.027     1858.795      922.206        1.034        0.256      124.735       23.257        0.035      345.441       22.972      866.374
10/02/2014  17:29:00       75.044       67.398        6.263       66.184       49.098       33.909     4380.335     2410.640     1149.786        0.908        0.397      100.867       21.028        0.043      345.429       22.950      866.375
10/02/2014  17:30:00       91.266       55.100        8.141       51.462       33.433       24.997     2648.354     1117.783      624.861        0.791        0.220      106.609       23.232        0.047      345.378       22.864      866.382
10/02/2014  17:31:00      103.796       39.796       25.575       70.559       62.877       41.928     4978.575     3953.516     1757.955        1.185        0.535      111.163       33.717        0.092      345.403       22.907      866.388
10/02/2014  17:32:00       71.382       27.509        9.411       57.331       47.588       35.683     3286.858     2264.586     1273.261        0.638        0.341       76.499       28.042        0.134      345.425       22.946      866.385
10/02/2014  17:33:00       70.494       35.806       16.491       36.497       36.029       25.662     1332.021     1298.062      658.536        0.491        0.164       79.066        9.497        0.014      345.464       23.013      866.390
10/02/2014  17:34:00        5.177        4.075       -3.174       27.227       11.219        6.807      741.323      125.877       46.337        0.048        0.046        6.588        3.569        0.293      345.574       23.200      866.391
10/02/2014  17:35:00       24.336       23.926        4.002       24.339       14.601       18.617      592.404      213.184      346.595        0.117        0.058       34.128       16.048        0.221      345.568       23.192      866.379
10/02/2014  17:36:00       31.938       26.348       22.393       25.484       33.037       20.470      649.444     1091.472      419.037        0.219        0.108       41.404       17.120        0.171      345.502       23.078      866.375
10/02/2014  17:37:00       85.882       32.547       24.287       41.780       30.282       26.299     1745.606      916.995      691.649        0.619        0.168       91.843       15.141        0.027      345.383       22.874      866.380
10/02/2014  17:38:00      126.683       63.559       23.287       60.493       50.526       38.501     3659.390     2552.877     1482.345        1.416        0.385      141.733       25.511        0.032      345.445       22.978      866.386
10/02/2014  17:39:00      116.370       59.423       26.130       67.874       57.702       38.041     4606.902     3329.528     1447.128        1.357        0.469      130.664       26.801        0.042      345.464       23.011      866.389
10/02/2014  17:40:00       91.097       68.251       13.478       70.193       57.942       39.765     4927.036     3357.238     1581.258        1.150        0.493      113.828       29.567        0.067      345.432       22.957      866.389
10/02/2014  17:41:00      100.962       67.230       12.212       32.993       30.444       30.041     1088.559      926.860      902.479        0.889        0.146      121.298       14.805        0.015      345.395       22.895      866.403
10/02/2014  17:42:00       88.321       79.949       -2.394       39.046       32.043       24.513     1524.560     1026.771      600.899        0.867        0.158      119.132       19.688        0.027      345.393       22.891      866.406
10/02/2014  17:43:00      113.751       55.366        8.774       38.592       37.758       29.353     1489.333     1425.693      861.598        0.993        0.189      126.509       19.724        0.024      345.398       22.900      866.420
10/02/2014  17:44:00      112.979       71.216       13.346       43.961       37.825       36.322     1932.567     1430.755     1319.322        1.135        0.234      133.551       26.914        0.041      345.363       22.840      866.424
10/02/2014  17:45:00       68.267       21.772       33.026       76.696       43.921       40.999     5882.290     1929.064     1680.901        0.786        0.475       71.655       40.095        0.313      345.442       22.975      866.430
10/02/2014  17:46:00       80.961       41.304       23.481       42.056       29.233       34.232     1768.725      854.570     1171.820        0.630        0.190       90.889       26.918        0.088      345.370       22.851      866.435
10/02/2014  17:47:00       87.006       77.294       17.741       56.461       44.436       36.748     3187.872     1974.514     1350.398        1.018        0.326      116.380       24.302        0.044      345.348       22.813      866.443
10/02/2014  17:48:00      139.918      125.157        1.785       69.303       63.224       53.789     4802.946     3997.323     2893.278        2.347        0.585      187.727       31.275        0.028      345.315       22.756      866.453
10/02/2014  17:49:00       92.296       48.426       13.666       69.639       41.774       34.503     4849.631     1745.034     1190.443        0.942        0.389      104.229       21.733        0.043      345.298       22.729      866.453
10/02/2014  17:50:00      114.517       88.180       11.207       64.634       48.496       44.099     4177.508     2351.879     1944.757        1.474        0.424      144.533       30.770        0.045      345.261       22.665      866.459
10/02/2014  17:51:00      122.396       93.520        5.365       71.061       51.472       42.352     5049.685     2649.406     1793.696        1.662        0.475      154.035       33.766        0.048      345.291       22.716      866.466
10/02/2014  17:52:00      121.385       76.516        6.302       56.533       43.775       41.208     3195.962     1916.266     1698.134        1.372        0.341      143.489       29.579        0.042      345.265       22.672      866.470
10/02/2014  17:53:00       46.035       57.817       -0.211       41.323       36.740       26.909     1707.568     1349.845      724.116        0.462        0.189       73.906       17.482        0.056      345.183       22.531      866.470
10/02/2014  17:54:00      101.613       74.160        9.077       56.202       46.980       39.824     3158.631     2207.075     1585.917        1.143        0.348      125.797       29.250        0.054      345.202       22.563      866.482
10/02/2014  17:55:00       58.437       60.340       12.622       63.426       39.026       37.902     4022.799     1523.046     1436.593        0.710        0.349       83.999       25.885        0.095      345.186       22.535      866.491
10/02/2014  17:56:00       77.368       31.164        5.858       44.029       32.631       27.131     1938.545     1064.796      736.094        0.536        0.187       83.409        7.545        0.008      345.129       22.437      866.488
10/02/2014  17:57:00      104.221       39.000       17.780       53.707       38.539       29.711     2884.493     1485.289      882.723        0.897        0.263      111.279       23.769        0.046      345.156       22.485      866.485
10/02/2014  17:58:00      120.480       84.490       19.326       34.432       38.978       34.000     1185.567     1519.322     1155.968        1.294        0.193      147.153       20.057        0.019      345.174       22.516      866.479
10/02/2014  17:59:00      133.273       71.621       20.352       58.696       63.231       51.827     3445.258     3998.108     2686.076        1.672        0.506      151.298       32.952        0.047      345.143       22.461      866.475
10/02/2014  18:00:00      129.599       75.202       32.925       55.931       45.058       46.759     3128.250     2030.246     2186.436        1.544        0.367      149.837       21.103        0.020      345.149       22.472      866.471
10/02/2014  18:01:00      129.358       85.103       20.511       32.590       34.535       32.518     1062.122     1192.676     1057.425        1.385        0.166      154.842       16.681        0.012      345.125       22.432      866.464
10/02/2014  18:02:00       83.875       33.566       18.984       39.162       49.185       28.194     1533.624     2419.152      794.920        0.663        0.237       90.342        6.810        0.006      345.085       22.364      866.463
10/02/2014  18:03:00       60.729       42.290        9.118       34.103       29.129       28.157     1162.984      848.503      792.839        0.418        0.140       74.002       18.067        0.060      345.063       22.327      866.459
10/02/2014  18:04:00      108.410       64.113       35.432       51.297       49.147       33.467     2631.376     2415.380     1120.066        1.164        0.308      125.949       28.625        0.052      345.037       22.282      866.450
10/02/2014  18:05:00      122.395       39.497       20.222       50.304       53.618       32.036     2530.534     2874.838     1026.334        1.169        0.322      128.610       18.557        0.021      345.098       22.386      866.443
10/02/2014  18:06:00       62.160       22.694       30.449       56.313       54.545       36.345     3171.136     2975.175     1320.994        0.639        0.373       66.173       28.479        0.185      345.019       22.252      866.440
10/02/2014  18:07:00      115.071       62.444       28.589       54.295       36.204       39.329     2947.990     1310.699     1546.755        1.188        0.290      130.922       27.340        0.044      345.000       22.219      866.452
10/02/2014  18:08:00       96.453       63.210       25.106       48.587       31.325       27.883     2360.685      981.239      777.444        0.902        0.206      115.319       17.213        0.022      344.999       22.217      866.469
10/02/2014  18:09:00       87.099       54.029        9.420       25.879       23.821       21.217      669.727      567.441      450.156        0.614        0.084      102.496        6.615        0.004      344.927       22.093      866.476
10/02/2014  18:10:00      103.918       32.395        8.395       29.892       33.842       21.342      893.546     1145.272      455.486        0.721        0.125      108.850        8.711        0.006      344.936       22.109      866.478
10/02/2014  18:11:00       96.824       59.397       16.417       27.374       25.606       20.060      749.316      655.668      402.389        0.749        0.090      113.591       10.156        0.008      345.019       22.252      866.479
10/02/2014  18:12:00       83.271       56.759        5.170       19.149       20.463       18.410      366.701      418.752      338.920        0.565        0.056      100.776       10.034        0.010      344.945       22.125      866.489
10/02/2014  18:13:00       80.663       31.455        9.631       41.049       23.682       21.274     1684.987      560.824      452.571        0.514        0.135       86.579       10.696        0.015      344.992       22.206      866.511
10/02/2014  18:14:00       49.499       23.874        2.766       27.941       25.184       20.704      780.677      634.247      428.670        0.244        0.092       54.956       15.451        0.079      344.915       22.073      866.513
10/02/2014  18:15:00       35.720       14.826       14.960       19.891       19.407       13.979      395.649      376.629      195.411        0.134        0.048       38.674       11.342        0.086      344.885       22.022      866.508
10/02/2014  18:16:00       60.584       23.046       14.731       19.322       16.141       16.486      373.358      260.537      271.774        0.266        0.045       64.819        4.717        0.005      344.854       21.969      866.508
10/02/2014  18:17:00       64.918       34.937       -1.538       28.787       20.140       20.059      828.701      405.605      402.376        0.354        0.082       73.723       12.920        0.031      344.890       22.030      866.516
10/02/2014  18:18:00       55.275       37.161       12.152       18.906       13.239       13.546      357.430      175.262      183.505        0.265        0.036       66.605       11.228        0.028      344.845       21.953      866.515
10/02/2014  18:19:00       70.525       34.438        3.631       23.814       19.945       17.131      567.127      397.794      293.468        0.372        0.063       78.484       10.956        0.019      344.789       21.859      866.514
10/02/2014  18:20:00       88.455       49.619        9.128       22.359       22.357       16.942      499.944      499.833      287.015        0.583        0.064      101.422        8.784        0.008      344.862       21.983      866.516
10/02/2014  18:21:00       77.753       56.310       15.453       34.850       26.204       24.919     1214.525      686.671      620.958        0.599        0.126       96.002       17.748        0.034      344.818       21.908      866.530
10/02/2014  18:22:00      123.481       73.018       25.962       25.538       27.658       30.249      652.191      764.950      915.016        1.179        0.117      143.455       21.723        0.023      344.886       22.024      866.533
10/02/2014  18:23:00      104.919       70.682       14.551       29.321       29.535       33.991      859.748      872.289     1155.412        0.955        0.144      126.507       21.034        0.028      344.806       21.886      866.528
10/02/2014  18:24:00      104.651       58.657       32.879       24.910       25.792       20.041      620.519      665.236      401.656        0.858        0.084      119.969       16.244        0.018      344.794       21.866      866.536
10/02/2014  18:25:00       78.175       53.397       12.946       23.549       20.130       17.735      554.537      405.237      314.536        0.520        0.064       94.671       12.571        0.018      344.638       21.599      866.545
10/02/2014  18:26:00       59.113       32.396        5.163       32.486       19.808       17.137     1055.339      392.353      293.675        0.316        0.087       67.408       10.665        0.025      344.595       21.526      866.548
10/02/2014  18:27:00       59.520       20.017        9.672       30.382       18.140       13.531      923.068      329.075      183.101        0.274        0.072       62.795       10.240        0.027      344.537       21.427      866.549
10/02/2014  18:28:00       50.501       20.800        3.556       20.798       14.582       11.611      432.569      212.648      134.827        0.189        0.039       54.617        9.216        0.028      344.497       21.357      866.553
10/02/2014  18:29:00       90.307       55.844       15.722       35.079       15.869       16.409     1230.532      251.834      269.254        0.664        0.088      106.179       15.846        0.022      344.621       21.570      866.565
10/02/2014  18:30:00       98.243       69.469       10.309       27.867       30.079       24.226      776.547      904.774      586.917        0.843        0.113      120.323       15.926        0.018      344.637       21.597      866.571
10/02/2014  18:31:00      110.425       83.294       38.118       43.077       34.968       35.282     1855.609     1222.784     1244.828        1.245        0.216      138.317       15.507        0.013      344.569       21.482      866.573
10/02/2014  18:32:00      135.617       81.341       17.585       47.635       34.846       30.943     2269.119     1214.266      957.462        1.488        0.222      158.140       15.701        0.010      344.584       21.505      866.583
10/02/2014  18:33:00      164.972       88.534       29.956       27.849       22.739       22.346      775.579      517.075      499.353        1.887        0.090      187.227        9.965        0.003      344.609       21.549      866.594
10/02/2014  18:34:00       86.625       40.005       10.876       38.829       37.623       25.738     1507.717     1415.476      662.422        0.640        0.179       95.417       18.512        0.038      344.458       21.291      866.600
10/02/2014  18:35:00       83.981       49.687       -1.566       31.419       33.920       23.692      987.158     1150.585      561.307        0.611        0.135       97.579       15.599        0.026      344.418       21.224      866.620
10/02/2014  18:36:00       80.958       58.628       17.515       37.930       29.339       25.531     1438.670      860.761      651.854        0.662        0.148       99.957       12.993        0.017      344.366       21.134      866.620
10/02/2014  18:37:00      116.341       91.392       17.199       55.886       34.887       32.344     3123.299     1217.136     1046.145        1.378        0.269      147.945       19.135        0.017      344.522       21.400      866.626
10/02/2014  18:38:00       95.666       78.952       12.279       37.688       38.332       36.281     1420.400     1469.380     1316.325        0.987        0.210      124.038       25.590        0.043      344.399       21.189      866.639
10/02/2014  18:39:00       59.295       50.781        9.381       45.852       32.411       27.758     2102.431     1050.485      770.490        0.505        0.196       78.068       21.263        0.074      344.298       21.017      866.643
10/02/2014  18:40:00       49.998       49.714        8.646       33.337       29.682       25.197     1111.370      881.019      634.886        0.384        0.131       70.507       21.830        0.096      344.284       20.994      866.659
10/02/2014  18:41:00       81.036       62.721        6.779       71.144       42.549       32.845     5061.519     1810.459     1078.784        0.925        0.398      102.473       28.300        0.076      344.315       21.047      866.667
10/02/2014  18:42:00       52.815       80.501        0.064       39.347       44.795       31.519     1548.149     2006.634      993.438        0.691        0.227       96.280       27.893        0.084      344.253       20.940      866.667
10/02/2014  18:43:00       31.629       96.445       -7.072       43.205       44.286       31.060     1866.696     1961.271      964.715        0.757        0.240      101.499       27.405        0.073      344.194       20.839      866.691
10/02/2014  18:44:00       40.998       63.528        5.592       39.286       46.796       35.465     1543.394     2189.891     1257.755        0.537        0.250       75.608       29.592        0.153      344.145       20.755      866.697
10/02/2014  18:45:00       28.793       92.790       -2.091       45.477       56.613       37.650     2068.184     3204.980     1417.550        0.807        0.335       97.155       37.424        0.148      344.105       20.686      866.712
10/02/2014  18:46:00       40.681      151.534      -21.058       31.924       44.125       26.925     1019.157     1947.033      724.972        1.438        0.185      156.899       23.512        0.022      344.104       20.687      866.708
10/02/2014  18:47:00       33.077      171.389      -29.608       30.832       32.503       18.725      950.613     1056.456      350.621        1.685        0.118      174.551       16.475        0.009      344.083       20.650      866.721
10/02/2014  18:48:00       37.401      212.064      -32.860       35.683       54.316       25.207     1273.243     2950.265      635.372        2.615        0.243      215.337       20.168        0.009      344.051       20.594      866.727
10/02/2014  18:49:00       25.403      142.841       -0.152       59.860       62.847       48.242     3583.161     3949.758     2327.325        1.545        0.493      145.082       46.067        0.101      343.902       20.340      866.730
10/02/2014  18:50:00       48.412       90.632       12.412       57.746       72.090       49.126     3334.569     5196.954     2413.316        1.083        0.547      102.751       40.651        0.157      343.874       20.292      866.738
10/02/2014  18:51:00       37.004      137.847      -15.413       51.737       88.854       44.599     2676.688     7894.964     1989.033        1.658        0.628      142.727       50.918        0.127      343.863       20.273      866.753
10/02/2014  18:52:00       43.569      166.499      -25.010       48.417       90.037       40.397     2344.163     8106.629     1631.945        2.116        0.604      172.106       50.202        0.085      343.836       20.225      866.768
10/02/2014  18:53:00       43.842      126.208       -7.732       52.124       58.044       44.094     2716.885     3369.065     1944.259        1.297        0.402      133.606       34.921        0.068      343.769       20.113      866.768
10/02/2014  18:54:00      118.834      100.768       18.087       93.098       60.721       51.472     8667.329     3687.016     2649.399        1.980        0.750      155.807       34.460        0.049      343.895       20.329      866.777
10/02/2014  18:55:00      103.715       98.774        5.326       69.542       59.887       52.180     4836.146     3586.503     2722.773        1.584        0.557      143.223       39.021        0.074      343.820       20.202      866.784
10/02/2014  18:56:00      115.791       76.471       14.093       63.406       51.053       31.260     4020.271     2606.393      977.158        1.353        0.380      138.764       33.217        0.057      343.768       20.112      866.789
10/02/2014  18:57:00      120.364       77.841       26.317       48.953       43.575       36.751     2396.375     1898.798     1350.609        1.344        0.282      143.341       24.059        0.028      343.752       20.084      866.800
10/02/2014  18:58:00       69.805       67.144        4.039       48.847       38.533       33.829     2386.052     1484.801     1144.429        0.721        0.251       96.856       22.683        0.055      343.703       20.003      866.822
10/02/2014  18:59:00       68.291       56.298        8.361       45.252       25.990       27.119     2047.714      675.478      735.436        0.568        0.173       88.505       18.073        0.042      343.714       20.020      866.831
10/02/2014  19:00:00      110.701       95.454        1.249       65.042       46.616       39.239     4230.470     2173.014     1539.733        1.465        0.397      146.172       29.402        0.040      343.740       20.064      866.861
10/02/2014  19:01:00      135.912      104.660       -1.191       52.824       45.373       40.085     2790.347     2058.734     1606.794        1.794        0.323      171.539       28.686        0.028      343.762       20.102      866.872
10/02/2014  19:02:00      102.283       81.138       24.794       41.205       34.635       33.068     1697.811     1199.574     1093.521        1.082        0.200      130.557       23.525        0.032      343.702       20.001      866.902
10/02/2014  19:03:00       75.402       91.021       -2.622       49.074       53.612       35.982     2408.233     2874.225     1294.721        1.028        0.329      118.196       30.615        0.067      343.687       19.973      866.914
10/02/2014  19:04:00       69.651       65.480        4.932       53.700       33.700       27.206     2883.738     1135.703      740.140        0.696        0.238       95.597       20.722        0.047      343.674       19.951      866.936
10/02/2014  19:05:00       76.977       73.474       -3.223       47.372       32.996       29.634     2244.102     1088.756      878.200        0.777        0.211      106.414       19.429        0.033      343.645       19.902      866.953
10/02/2014  19:06:00       35.144       59.332       -1.054       33.103       39.258       26.804     1095.831     1541.191      718.429        0.406        0.168       68.959       20.932        0.092      343.616       19.853      866.966
10/02/2014  19:07:00       31.001       61.245        3.539       36.173       38.622       33.598     1308.498     1491.643     1128.800        0.433        0.196       68.644       26.594        0.150      343.562       19.760      866.979
10/02/2014  19:08:00       29.296      101.469       -6.418       40.084       55.272       31.194     1606.738     3055.044      973.064        0.841        0.282      105.613       31.690        0.090      343.580       19.790      866.987
10/02/2014  19:09:00       19.722      128.815      -19.125       26.210       33.190       19.817      686.963     1101.558      392.730        0.976        0.109      130.316       17.662        0.018      343.626       19.870      867.006
10/02/2014  19:10:00       -0.376      163.434      -28.937       34.285       33.057       18.169     1175.476     1092.740      330.103        1.507        0.130      163.435       19.449        0.014      343.627       19.872      867.018
10/02/2014  19:11:00       -8.455      207.666      -31.868       37.047       65.828       20.792     1372.480     4333.370      432.314        2.517        0.307      207.838       26.812        0.017      343.628       19.869      867.044
10/02/2014  19:12:00       27.287      201.172      -28.767       37.224       56.024       32.365     1385.613     3138.634     1047.481        2.381        0.279      203.014       34.173        0.028      343.528       19.700      867.065
10/02/2014  19:13:00      -10.917      180.436      -24.514       29.676       42.731       19.653      880.666     1825.901      386.255        1.818        0.155      180.766       21.074        0.014      343.548       19.736      867.084
10/02/2014  19:14:00      -63.000      142.828      -25.554       29.196       71.317       22.615      852.388     5086.173      511.418        1.573        0.322      156.106       26.522        0.029      343.595       19.816      867.105
10/02/2014  19:15:00      -74.010       72.631      -23.116       37.319       61.679       24.295     1392.707     3804.297      590.266        0.854        0.289      103.695       25.962        0.063      343.581       19.794      867.118
10/02/2014  19:16:00     -115.969      117.302      -23.900       44.924       67.809       32.606     2018.201     4598.090     1063.128        1.773        0.384      164.950       30.975        0.035      343.583       19.796      867.132
10/02/2014  19:17:00     -109.590       82.819      -24.864       39.331       47.580       26.870     1546.901     2263.827      722.021        1.201        0.227      137.364       23.391        0.029      343.607       19.837      867.145
10/02/2014  19:18:00      -80.242      157.258      -27.787       57.326       51.280       26.030     3286.243     2629.673      677.552        1.927        0.330      176.546       23.676        0.018      343.559       19.755      867.161
10/02/2014  19:19:00      -53.452       64.757      -12.741       25.898       35.933       18.319      670.686     1291.208      335.587        0.475        0.115       83.967       12.917        0.024      343.444       19.559      867.163
10/02/2014  19:20:00     -107.160       72.893      -23.618       43.290       60.856       24.584     1874.034     3703.445      604.359        1.177        0.309      129.602       22.809        0.031      343.479       19.618      867.179
10/02/2014  19:21:00      -72.802       85.562       -9.890       41.659       58.848       28.124     1735.457     3463.073      790.939        0.935        0.299      112.344       35.291        0.099      343.388       19.465      867.187
10/02/2014  19:22:00      -97.756       87.518      -27.420       38.218       40.589       21.674     1460.654     1647.428      469.758        1.077        0.179      131.208       26.993        0.042      343.450       19.571      867.199
10/02/2014  19:23:00      -83.661       84.243      -14.801       46.832       68.190       35.838     2193.228     4649.874     1284.337        1.122        0.406      118.727       33.178        0.078      343.444       19.560      867.203
10/02/2014  19:24:00      -38.905       47.162      -10.266       29.717       34.722       15.088      883.126     1205.583      227.638        0.308        0.116       61.138       16.219        0.070      343.347       19.395      867.212
10/02/2014  19:25:00      -67.054       42.847      -14.608       30.058       36.592       18.058      903.508     1338.994      326.074        0.456        0.128       79.574       20.442        0.066      343.454       19.577      867.231
10/02/2014  19:26:00      -98.287      122.665      -27.368       42.088       61.838       29.473     1771.371     3823.882      868.635        1.596        0.323      157.185       34.507        0.048      343.489       19.634      867.247
10/02/2014  19:27:00      -55.353       84.733      -19.009       41.237       45.372       24.385     1700.499     2058.624      594.607        0.748        0.218      101.211       25.415        0.063      343.445       19.561      867.270
10/02/2014  19:28:00     -100.747       73.150      -23.601       40.372       31.570       18.536     1629.878      996.655      343.584        0.951        0.149      124.502       23.257        0.035      343.461       19.589      867.282
10/02/2014  19:29:00      -40.116       68.610      -13.609       20.768       43.615       17.548      431.322     1902.311      307.935        0.457        0.132       79.477       18.447        0.054      343.493       19.645      867.303
10/02/2014  19:30:00      -40.968       51.359      -16.965       33.985       37.325       18.306     1154.996     1393.144      335.125        0.374        0.144       65.697       13.359        0.041      343.462       19.592      867.310
10/02/2014  19:31:00      -37.516       56.296       -5.646       48.221       34.635       29.282     2325.307     1199.609      857.455        0.449        0.219       67.651       23.497        0.121      343.459       19.586      867.313
10/02/2014  19:32:00      -32.093      118.047      -19.335       66.082       51.779       26.678     4366.832     2681.019      711.741        1.155        0.388      122.332       27.267        0.050      343.519       19.687      867.326
10/02/2014  19:33:00      -18.336       20.346      -11.287       28.971       52.745       11.391      839.333     2782.004      129.759        0.231        0.188       27.390       11.282        0.170      343.349       19.399      867.328
10/02/2014  19:34:00      -70.178       11.097      -12.004       24.844       16.706       13.735      617.201      279.101      188.644        0.314        0.054       71.050       12.204        0.030      343.264       19.255      867.342
10/02/2014  19:35:00      -90.055       11.296      -17.747       16.441       39.562       11.564      270.297     1565.177      133.721        0.526        0.098       90.761       10.384        0.013      343.360       19.419      867.342
10/02/2014  19:36:00      -89.664       67.913      -23.962       35.828       44.300       21.661     1283.646     1962.526      469.205        0.847        0.186      112.480       23.689        0.044      343.370       19.433      867.351
10/02/2014  19:37:00      -36.384       66.697        4.173       39.104       52.357       26.779     1529.145     2741.229      717.109        0.539        0.249       75.975       26.063        0.118      343.257       19.242      867.351
10/02/2014  19:38:00      -95.240       71.808      -26.901       26.700       63.757       20.984      712.870     4064.959      440.316        1.008        0.261      119.277       28.623        0.058      343.220       19.177      867.365
10/02/2014  19:39:00      -97.866       54.260      -17.806       32.138       24.671       18.664     1032.840      608.643      348.331        0.741        0.099      111.902        9.570        0.007      343.227       19.189      867.371
10/02/2014  19:40:00      -61.355       57.806      -15.123       26.021       37.477       17.290      677.076     1404.512      298.959        0.486        0.119       84.297       20.995        0.062      343.169       19.092      867.385
10/02/2014  19:41:00      -62.384       58.808      -21.506       32.495       23.865       12.627     1055.952      569.545      159.437        0.480        0.089       85.733       14.687        0.029      343.220       19.179      867.401
10/02/2014  19:42:00      -34.151       44.584      -13.583       26.889       24.411        9.606      722.996      595.890       92.270        0.237        0.071       56.161       10.986        0.038      343.126       19.018      867.413
10/02/2014  19:43:00        5.033       17.534       -1.148       11.507        7.479        7.459      132.408       55.932       55.631        0.029        0.012       18.242        3.815        0.044      343.128       19.022      867.429
10/02/2014  19:44:00      -15.823       26.013       -6.850        9.567        8.331        5.934       91.531       69.412       35.214        0.059        0.010       30.447        5.184        0.029      343.189       19.127      867.445
10/02/2014  19:45:00       -0.524       49.277      -11.305       22.632       22.886       10.253      512.205      523.789      105.134        0.185        0.057       49.280        6.852        0.019      343.152       19.062      867.463
10/02/2014  19:46:00       -5.773      112.110      -19.801       33.042       28.769       19.857     1091.795      827.667      394.305        0.765        0.116      112.258        5.876        0.003      343.083       18.945      867.480
10/02/2014  19:47:00        1.976       84.030      -14.253       25.318       22.101       20.597      640.992      488.462      424.228        0.441        0.078       84.053       15.280        0.033      343.001       18.804      867.487
10/02/2014  19:48:00      -12.243      113.588      -19.071       26.601       42.778       20.660      707.623     1829.967      426.852        0.819        0.148      114.246       13.547        0.014      342.910       18.650      867.502
10/02/2014  19:49:00      -35.489      140.853      -23.558       37.227       63.687       25.013     1385.831     4056.014      625.640        1.386        0.303      145.255       26.937        0.034      342.883       18.603      867.508
10/02/2014  19:50:00      -86.207      101.982       -8.974       54.393       71.838       34.796     2958.581     5160.676     1210.754        1.362        0.467      133.536       39.183        0.086      342.833       18.518      867.526
10/02/2014  19:51:00      -97.254       94.700      -19.593       38.423       50.894       26.030     1476.356     2590.207      677.556        1.178        0.237      135.744       21.742        0.026      342.823       18.502      867.536
10/02/2014  19:52:00     -126.665      114.124      -29.452       49.834       69.782       34.003     2483.455     4869.594     1156.208        1.922        0.425      170.494       37.933        0.050      342.845       18.538      867.551
10/02/2014  19:53:00      -60.125      107.312      -13.871       37.904       61.896       29.256     1436.721     3831.080      855.896        1.072        0.306      123.008       28.997        0.056      342.816       18.490      867.568
10/02/2014  19:54:00      -96.493       54.666      -18.354       54.343       40.737       22.065     2953.205     1659.504      486.843        0.887        0.255      110.902       21.826        0.039      342.836       18.524      867.571
10/02/2014  19:55:00     -175.505       68.603      -15.353       53.512       52.073       38.532     2863.579     2711.561     1484.692        2.140        0.353      188.436       26.683        0.020      342.827       18.508      867.585
10/02/2014  19:56:00     -133.840       71.237      -19.290       31.573       66.029       27.802      996.846     4359.804      772.935        1.474        0.306      151.617       28.299        0.035      342.850       18.548      867.594
10/02/2014  19:57:00      -84.324       22.199       -7.075       47.919       47.808       25.807     2296.257     2285.603      666.027        0.645        0.262       87.197       26.078        0.089      342.836       18.525      867.603
10/02/2014  19:58:00     -139.079      -50.074      -12.734       50.357       35.452       27.502     2535.847     1256.809      756.377        1.328        0.227      147.818       20.010        0.018      342.783       18.435      867.596
10/02/2014  19:59:00      -97.399       16.721       -6.662       45.574       30.876       19.439     2076.946      953.358      377.871        0.661        0.170       98.824       18.308        0.034      342.748       18.374      867.607
10/02/2014  20:00:00     -132.059      -11.112      -16.183       49.631       33.919       25.290     2463.266     1150.516      639.572        1.104        0.213      132.525       22.405        0.029      342.733       18.350      867.613
10/02/2014  20:01:00      -91.801       69.819      -24.491       33.893       53.515       22.335     1148.764     2863.842      498.852        0.921        0.226      115.335       20.435        0.031      342.865       18.574      867.621
10/02/2014  20:02:00     -128.551       91.648      -28.698       35.439       34.741       22.331     1255.940     1206.923      498.684        1.435        0.148      157.875       23.865        0.023      342.934       18.691      867.640
10/02/2014  20:03:00     -121.078       86.660      -26.224       35.782       35.883       26.921     1280.383     1287.601      724.753        1.307        0.165      148.896       20.460        0.019      343.016       18.832      867.633
10/02/2014  20:04:00     -102.870       84.550      -29.019       48.297       50.614       25.670     2332.622     2561.765      658.955        1.206        0.278      133.157       29.126        0.048      343.165       19.085      867.650
10/02/2014  20:05:00      -93.420      111.591      -24.265       56.343       48.699       32.618     3174.552     2371.634     1063.922        1.419        0.331      145.533       28.323        0.038      343.068       18.920      867.654
10/02/2014  20:06:00      -94.541       91.229      -24.992       34.415       59.820       27.953     1184.396     3578.416      781.395        1.171        0.277      131.380       26.449        0.041      343.065       18.915      867.676
10/02/2014  20:07:00      -92.073      162.259      -28.160       38.216       41.999       27.460     1460.493     1763.893      754.061        1.979        0.199      186.562       17.742        0.009      342.965       18.743      867.678
10/02/2014  20:08:00      -83.196      104.016      -21.245       58.058       45.951       29.442     3370.753     2111.484      866.843        1.227        0.317      133.195       35.772        0.072      342.927       18.679      867.697
10/02/2014  20:09:00      -17.382       67.900       -8.398       33.697       38.407       17.902     1135.486     1475.074      320.469        0.396        0.147       70.090       15.764        0.051      342.888       18.614      867.708
10/02/2014  20:10:00      -88.086       72.915      -16.660       25.080       26.665       13.492      628.993      711.048      182.033        0.744        0.076      114.349       12.691        0.012      342.848       18.546      867.727
10/02/2014  20:11:00     -101.378       68.835      -18.655       29.693       33.418       20.179      881.663     1116.756      407.188        0.888        0.120      122.538       15.467        0.016      342.692       18.280      867.743
10/02/2014  20:12:00      -73.029       52.781      -12.065       40.975       26.611       20.358     1678.934      708.141      414.459        0.553        0.140       90.106       16.079        0.032      342.700       18.292      867.771
10/02/2014  20:13:00     -105.483       97.787      -29.155       34.121       41.969       22.563     1164.226     1761.391      509.110        1.249        0.172      143.836       19.834        0.019      342.726       18.337      867.789
10/02/2014  20:14:00      -96.223       80.467      -22.077       33.957       37.768       23.610     1153.095     1426.399      557.444        0.968        0.157      125.435       23.168        0.034      342.642       18.195      867.806
10/02/2014  20:15:00      -91.936       85.352      -22.351       25.974       40.668       22.227      674.640     1653.896      494.030        0.953        0.141      125.448       18.171        0.021      342.649       18.207      867.827
10/02/2014  20:16:00     -126.140       66.003      -22.716       37.435       40.480       28.542     1401.411     1638.629      814.624        1.232        0.193      142.365       23.519        0.027      342.668       18.239      867.839
10/02/2014  20:17:00     -106.400       70.434      -24.437       42.122       39.477       26.899     1774.279     1558.416      723.565        1.047        0.203      127.601       17.627        0.019      342.609       18.138      867.842
10/02/2014  20:18:00      -84.915       34.066      -28.331       29.012       30.632       25.524      841.722      938.321      651.478        0.580        0.122       91.494       12.408        0.018      342.638       18.187      867.864
10/02/2014  20:19:00      -81.016      115.459      -21.873       31.016       53.741       26.787      962.021     2888.140      717.545        1.247        0.228      141.047       27.363        0.038      342.635       18.183      867.877
10/02/2014  20:20:00      -69.348       52.736      -10.701       39.535       51.529       22.533     1562.983     2655.263      507.753        0.621        0.236       87.122       17.196        0.039      342.582       18.093      867.893
10/02/2014  20:21:00      -75.167       43.324      -10.513       31.522       25.448       19.468      993.643      647.576      379.020        0.483        0.101       86.758       12.195        0.020      342.533       18.009      867.913
10/02/2014  20:22:00      -71.338       23.322       -4.674       40.318       28.710       23.814     1625.519      824.257      567.124        0.434        0.151       75.053       22.720        0.092      342.532       18.007      867.922
10/02/2014  20:23:00      -83.012       41.946      -19.508       26.921       42.628       23.446      724.717     1817.155      549.735        0.606        0.155       93.008       15.358        0.027      342.477       17.914      867.944
10/02/2014  20:24:00     -115.797       58.232      -18.117       55.666       47.780       26.114     3098.659     2282.955      681.928        1.159        0.303      129.614       24.605        0.036      342.493       17.941      867.961
10/02/2014  20:25:00     -129.333      102.776      -24.418       51.091       47.128       28.416     2610.297     2221.054      807.465        1.676        0.282      165.196       17.701        0.011      342.535       18.011      867.977
10/02/2014  20:26:00     -122.395       67.871      -19.097       41.606       39.904       33.297     1731.060     1592.332     1108.707        1.219        0.222      139.953       33.372        0.057      342.516       17.981      867.997
10/02/2014  20:27:00      -92.919       87.436      -24.312       32.859       36.841       24.823     1079.684     1357.258      616.157        0.996        0.153      127.589       24.564        0.037      342.502       17.957      868.007
10/02/2014  20:28:00      -72.973       89.395      -18.505       19.571       51.480       15.225      383.023     2650.181      231.789        0.846        0.163      115.397        8.359        0.005      342.485       17.928      868.025
10/02/2014  20:29:00      -59.972       68.069      -18.781       21.524       43.118       16.283      463.294     1859.186      265.126        0.558        0.129       90.719       14.187        0.024      342.456       17.877      868.034
10/02/2014  20:30:00      -80.470        7.075       -7.030       23.888       24.672       16.983      570.646      608.701      288.431        0.402        0.073       80.780       13.231        0.027      342.398       17.779      868.037
10/02/2014  20:31:00      -85.333       15.860      -13.626       34.557       33.322       17.442     1194.209     1110.349      304.230        0.516        0.130       86.794       13.149        0.023      342.486       17.929      868.046
10/02/2014  20:32:00      -77.197        1.359      -16.840       22.573       28.657       16.514      509.527      821.215      272.718        0.392        0.080       77.209       11.088        0.021      342.367       17.727      868.048
10/02/2014  20:33:00      -58.708        1.187       -9.594       21.955       27.448       15.622      482.033      753.393      244.038        0.251        0.074       58.720        9.943        0.029      342.353       17.702      868.060
10/02/2014  20:34:00      -94.385       49.849      -20.137       32.587       37.110       24.075     1061.880     1377.150      579.604        0.741        0.151      106.740       15.970        0.022      342.396       17.777      868.067
10/02/2014  20:35:00      -89.349       53.288      -18.449       24.740       42.500       18.871      612.049     1806.249      356.110        0.697        0.139      104.033       21.899        0.044      342.371       17.734      868.086
10/02/2014  20:36:00     -108.717       -9.676      -14.800       31.857       19.214       18.239     1014.881      369.171      332.663        0.692        0.086      109.147       15.656        0.021      342.310       17.628      868.082
10/02/2014  20:37:00     -109.194      -17.950      -12.708       28.537       43.436       14.114      814.369     1886.646      199.209        0.765        0.145      110.660       18.610        0.028      342.160       17.376      868.093
10/02/2014  20:38:00     -124.104       -4.980      -13.498       24.654       32.037       16.765      607.810     1026.340      281.078        0.876        0.096      124.204       11.634        0.009      342.177       17.404      868.113
10/02/2014  20:39:00     -137.725      -12.007      -15.210       26.045       23.117       14.881      678.333      534.418      221.455        1.039        0.072      138.247       12.683        0.008      342.187       17.420      868.113
10/02/2014  20:40:00      -88.477        1.277      -14.900       28.101       34.870       16.555      789.690     1215.902      274.054        0.517        0.114       88.486       12.416        0.020      342.146       17.351      868.129
10/02/2014  20:41:00      -98.511      -16.185       -4.217       25.600       21.821       19.619      655.357      476.137      384.892        0.575        0.076       99.832       13.519        0.018      342.102       17.277      868.153
10/02/2014  20:42:00     -102.033      -17.552       -6.958       36.670       30.138       21.352     1344.659      908.302      455.906        0.674        0.135      103.532       22.182        0.046      341.977       17.066      868.159
10/02/2014  20:43:00     -131.203       -5.091      -15.731       23.378       18.200       13.643      546.519      331.248      186.141        0.928        0.053      131.301       13.563        0.011      342.036       17.166      868.168
10/02/2014  20:44:00     -136.853       -1.316      -17.401       13.369       16.290       10.602      178.728      265.354      112.408        0.979        0.028      136.860        5.331        0.002      342.003       17.109      868.192
10/02/2014  20:45:00     -136.245        5.640      -14.614       29.518       21.717       14.383      871.340      471.649      206.882        1.018        0.077      136.362       12.977        0.009      341.976       17.063      868.196
10/02/2014  20:46:00     -146.171        2.802      -19.589       23.971       17.883       14.708      574.608      319.807      216.337        1.143        0.056      146.198       10.760        0.005      341.972       17.057      868.199
10/02/2014  20:47:00      -72.869       11.750       -8.524       35.517       23.902       16.037     1261.471      571.324      257.182        0.380        0.104       73.811       13.821        0.035      342.035       17.162      868.209
10/02/2014  20:48:00     -119.490        6.188      -15.907       24.766       18.763       13.727      613.334      352.066      188.423        0.786        0.058      119.650       11.196        0.009      341.972       17.056      868.222
10/02/2014  20:49:00     -103.670      -10.505       -9.285       20.604       18.013       15.469      424.511      324.452      239.277        0.597        0.049      104.201       13.504        0.017      341.899       16.933      868.233
10/02/2014  20:50:00      -87.805        3.323      -12.172       22.367       26.102       17.340      500.289      681.330      300.693        0.468        0.074       87.868       13.417        0.023      341.984       17.078      868.244
10/02/2014  20:51:00      -91.292        3.653      -15.692       26.063       24.257       13.836      679.254      588.418      191.445        0.503        0.073       91.365       12.084        0.017      342.041       17.175      868.247
10/02/2014  20:52:00      -94.741       45.945      -13.947       24.319       28.064       21.892      591.402      787.567      479.276        0.657        0.093      105.294       10.349        0.010      342.099       17.273      868.256
10/02/2014  20:53:00      -97.757       54.247      -20.299       24.405       45.018       19.961      595.600     2026.665      398.444        0.797        0.151      111.800       19.528        0.031      342.051       17.189      868.263
10/02/2014  20:54:00     -102.235       59.623      -11.881       37.042       38.716       28.418     1372.140     1498.942      807.561        0.891        0.184      118.351       27.747        0.055      342.104       17.281      868.269
10/02/2014  20:55:00      -95.364       94.491      -22.950       43.842       36.367       25.914     1922.147     1322.587      671.551        1.123        0.196      134.250       27.855        0.043      342.156       17.368      868.279
10/02/2014  20:56:00      -90.927       63.194      -17.689       27.857       33.437       20.445      776.038     1118.036      417.993        0.744        0.116      110.730       16.738        0.023      342.118       17.302      868.288
10/02/2014  20:57:00      -96.513       37.959       -8.887       35.920       29.015       24.427     1290.249      841.853      596.699        0.678        0.136      103.709       22.197        0.046      342.199       17.441      868.289
10/02/2014  20:58:00      -81.601       25.522      -13.677       22.264       26.738       13.907      495.707      714.910      193.394        0.445        0.070       85.499        7.829        0.008      342.048       17.185      868.297
10/02/2014  20:59:00      -66.980        6.668      -12.970       16.995       16.688       12.066      288.844      278.477      145.581        0.271        0.036       67.311        7.196        0.011      341.894       16.923      868.304
10/02/2014  21:00:00      -64.317        4.219       -8.368       20.766       17.955       19.156      431.215      322.398      366.940        0.267        0.056       64.455       10.999        0.029      341.801       16.764      868.313
10/02/2014  21:01:00      -84.193        2.509      -12.263       33.035       24.519       17.608     1091.291      601.158      310.054        0.462        0.100       84.230       16.018        0.036      341.835       16.823      868.328
10/02/2014  21:02:00      -72.903       -2.459       -1.824       40.552       26.436       18.357     1644.461      698.866      336.965        0.400        0.134       72.944       20.639        0.080      341.636       16.486      868.331
10/02/2014  21:03:00      -78.353        8.223      -10.882       24.421       24.241       20.440      596.390      587.634      417.790        0.396        0.080       78.783       13.064        0.027      341.626       16.469      868.355
10/02/2014  21:04:00      -76.175       11.929      -15.826       19.273       25.020       14.123      371.443      625.985      199.471        0.370        0.060       77.104        8.144        0.011      341.758       16.694      868.351
10/02/2014  21:05:00      -84.640       21.364      -19.174       19.726       23.883       16.222      389.107      570.417      263.153        0.461        0.061       87.295       11.551        0.018      341.851       16.850      868.355
10/02/2014  21:06:00      -70.291        8.963      -13.036       20.198       22.812       12.718      407.959      520.401      161.756        0.314        0.055       70.860        9.405        0.018      341.760       16.697      868.373
10/02/2014  21:07:00      -67.353        1.598      -16.865       23.592       20.080       11.500      556.589      403.198      132.253        0.296        0.055       67.372        8.777        0.017      341.662       16.530      868.375
10/02/2014  21:08:00      -82.313       29.841      -15.947       24.510       26.915       14.806      600.742      724.433      219.209        0.473        0.077       87.555        7.694        0.008      341.790       16.749      868.380
10/02/2014  21:09:00      -65.611       19.655      -16.077       16.776       23.902       16.083      281.422      571.323      258.676        0.303        0.056       68.492       10.138        0.022      341.884       16.907      868.391
10/02/2014  21:10:00      -93.179       29.633      -12.991       37.621       24.368       20.435     1415.319      593.800      417.605        0.608        0.121       97.777       19.481        0.040      342.031       17.157      868.388
10/02/2014  21:11:00      -91.271       30.496      -13.862       23.301       32.993       19.465      542.918     1088.543      378.901        0.573        0.101       96.231        9.488        0.010      341.839       16.830      868.401
10/02/2014  21:12:00      -94.375       14.231      -20.398       27.464       32.987       16.181      754.273     1088.168      261.841        0.581        0.105       95.442        5.999        0.004      341.692       16.582      868.400
10/02/2014  21:13:00      -89.714       18.582      -20.539       18.817       36.279       15.504      354.081     1316.149      240.362        0.536        0.096       91.619       14.073        0.024      341.656       16.521      868.420
10/02/2014  21:14:00      -74.914       -2.136      -10.398       21.654       20.481       18.764      468.886      419.477      352.106        0.348        0.062       74.945       10.098        0.018      341.564       16.362      868.425
10/02/2014  21:15:00      -79.499        1.716      -20.974       33.571       21.229       15.491     1127.035      450.650      239.972        0.429        0.091       79.518        8.346        0.011      341.489       16.236      868.442
10/02/2014  21:16:00      -69.183       -4.045      -15.583       35.222       27.147       17.826     1240.602      736.980      317.762        0.367        0.115       69.301       14.959        0.047      341.406       16.097      868.450
10/02/2014  21:17:00      -73.350      -31.549      -18.974       28.133       26.584       12.494      791.486      706.706      156.102        0.419        0.083       79.847        7.407        0.009      341.355       16.009      868.453
10/02/2014  21:18:00      -70.327      -15.096      -12.485       23.303       27.950       18.396      543.039      781.184      338.426        0.350        0.083       71.929       11.782        0.027      341.422       16.124      868.465
10/02/2014  21:19:00      -70.203       -5.555      -14.140       22.815       24.908       14.734      520.531      620.412      217.099        0.326        0.068       70.422       10.768        0.023      341.392       16.073      868.484
10/02/2014  21:20:00      -78.186      -10.213       -8.978       29.820       20.750       15.127      889.209      430.562      228.820        0.392        0.077       78.850        8.791        0.012      341.373       16.039      868.503
10/02/2014  21:21:00     -103.451      -25.917       -9.465       22.419       27.044       16.117      502.624      731.382      259.767        0.648        0.075      106.648       13.817        0.017      341.290       15.899      868.506
10/02/2014  21:22:00      -89.582      -18.512       -9.968       41.518       24.138       16.615     1723.783      582.644      276.060        0.552        0.129       91.475       14.539        0.025      341.238       15.812      868.510
10/02/2014  21:23:00      -81.778      -22.894      -19.754       32.786       27.715       16.391     1074.906      768.144      268.680        0.486        0.106       84.922       14.350        0.029      341.263       15.854      868.517
10/02/2014  21:24:00     -100.728      -38.732        2.778       35.883       32.707       20.365     1287.618     1069.727      414.725        0.721        0.139      107.918       19.062        0.031      341.198       15.745      868.525
10/02/2014  21:25:00      -78.896      -33.218       -5.207       31.792       28.865       20.440     1010.712      833.163      417.774        0.481        0.113       85.604       16.699        0.038      341.135       15.639      868.540
10/02/2014  21:26:00      -57.940      -34.569       -8.124       41.889       27.567       19.867     1754.706      759.924      394.706        0.376        0.145       67.469        7.626        0.013      341.115       15.603      868.542
10/02/2014  21:27:00      -42.192       -9.004       -2.882       32.934       30.637       17.151     1084.661      938.606      294.146        0.209        0.116       43.142       15.182        0.124      341.124       15.620      868.539
10/02/2014  21:28:00      -60.586      -15.542        2.580       27.587       31.330       20.722      761.061      981.592      429.393        0.305        0.109       62.547       14.220        0.052      341.073       15.532      868.538
10/02/2014  21:29:00      -48.863      -14.941       -0.295       39.452       20.952       23.654     1556.478      439.004      559.490        0.258        0.128       51.096       20.622        0.163      341.154       15.670      868.544
10/02/2014  21:30:00      -97.787      -16.544       -9.551       26.451       34.787       18.674      699.635     1210.120      348.730        0.609        0.113       99.176       15.998        0.026      341.102       15.583      868.541
10/02/2014  21:31:00     -102.152      -33.898      -14.500       24.895       20.873       16.122      619.770      435.664      259.933        0.655        0.066      107.629        9.415        0.008      341.059       15.510      868.540
10/02/2014  21:32:00     -102.876      -33.021      -21.685       23.517       28.815       18.018      553.038      830.332      324.655        0.693        0.085      108.045       10.787        0.010      341.043       15.483      868.539
10/02/2014  21:33:00     -106.913      -61.339      -18.267       24.604       26.393       17.351      605.344      696.576      301.049        0.856        0.080      123.260       14.961        0.015      340.953       15.329      868.528
10/02/2014  21:34:00      -56.650      -54.670       -4.037       30.063       31.014       23.251      903.763      961.868      540.629        0.431        0.120       78.728       17.364        0.049      340.885       15.215      868.531
10/02/2014  21:35:00     -132.685      -55.530      -17.963       31.261       24.448       21.058      977.256      597.723      443.425        1.151        0.101      143.837       20.258        0.020      340.879       15.203      868.532
10/02/2014  21:36:00     -153.251      -48.763      -19.951       17.670       15.938       15.893      312.230      254.030      252.587        1.354        0.041      160.822       14.168        0.008      340.910       15.257      868.532
10/02/2014  21:37:00     -140.516      -51.220      -11.894       24.778       20.916       15.380      613.935      437.495      236.543        1.190        0.064      149.560       14.660        0.010      340.970       15.357      868.532
10/02/2014  21:38:00     -113.664      -40.282       -5.849       19.336       19.930       13.964      373.899      397.195      194.995        0.777        0.048      120.591       11.840        0.010      340.973       15.362      868.537
10/02/2014  21:39:00     -100.648      -18.319      -11.786       20.770       17.306       15.064      431.403      299.486      226.932        0.578        0.048      102.302       13.301        0.017      341.011       15.430      868.539
10/02/2014  21:40:00      -97.280      -21.674       -6.489       14.623       24.187       12.612      213.823      584.988      159.063        0.547        0.048       99.666        5.279        0.003      340.996       15.403      868.530
10/02/2014  21:41:00      -70.210      -39.048       -6.047       22.823       16.783       14.400      520.893      281.666      207.373        0.375        0.050       80.338       12.303        0.023      340.929       15.290      868.549
10/02/2014  21:42:00      -96.479      -45.561      -13.517       17.179       12.088       15.052      295.112      146.114      226.558        0.612        0.033      106.696       10.537        0.010      340.973       15.362      868.546
10/02/2014  21:43:00      -89.612      -50.270       -9.758       15.549       21.834        9.593      241.773      476.705       92.030        0.573        0.041      102.749        6.528        0.004      340.940       15.309      868.565
10/02/2014  21:44:00      -98.647      -55.535       -8.618       20.659       16.051       14.916      426.775      257.637      222.493        0.690        0.045      113.205        7.592        0.004      340.896       15.234      868.567
10/02/2014  21:45:00      -45.216      -49.077        3.898       33.598       26.148       17.576     1128.804      683.723      308.920        0.329        0.106       66.731       14.205        0.045      340.861       15.172      868.582
10/02/2014  21:46:00      -40.620      -42.759        4.723       35.958       25.637       17.743     1292.984      657.263      314.814        0.288        0.113       58.978       18.575        0.099      340.765       15.011      868.592
10/02/2014  21:47:00      -61.271      -64.263       -3.275       34.244       27.332       17.136     1172.684      747.020      293.636        0.505        0.111       88.791       17.864        0.040      340.747       14.981      868.596
10/02/2014  21:48:00      -83.596      -67.397      -13.043       27.818       23.204       16.952      773.839      538.438      287.363        0.665        0.080      107.381        9.009        0.007      340.801       15.074      868.608
10/02/2014  21:49:00      -93.684      -64.460       -5.313       33.928       21.008       18.132     1151.105      441.356      328.772        0.744        0.096      113.718       17.097        0.023      340.780       15.036      868.604
10/02/2014  21:50:00      -83.419      -58.819       -1.805       32.070       24.779       19.562     1028.454      614.022      382.664        0.622        0.101      102.070       15.428        0.023      340.743       14.975      868.607
10/02/2014  21:51:00     -103.974      -61.444       -6.984       29.526       22.526       19.285      871.758      507.401      371.917        0.819        0.088      120.773       15.276        0.016      340.715       14.927      868.610
10/02/2014  21:52:00      -93.958      -66.504       -4.840       29.370       23.736       22.215      862.600      563.392      493.507        0.760        0.096      115.113       14.412        0.016      340.665       14.843      868.616
10/02/2014  21:53:00     -101.292      -66.542      -14.266       28.080       23.384       14.085      788.495      546.827      198.389        0.821        0.077      121.194        6.075        0.003      340.666       14.844      868.626
10/02/2014  21:54:00     -100.230      -58.992       -7.399       24.141       21.516       12.227      582.772      462.954      149.495        0.739        0.060      116.302       10.946        0.009      340.572       14.686      868.627
10/02/2014  21:55:00     -104.903      -44.967      -16.107       13.815       21.427       13.446      190.852      459.126      180.800        0.706        0.042      114.134        9.385        0.007      340.554       14.657      868.643
10/02/2014  21:56:00     -123.686      -35.646       -6.459       20.680       17.876       13.310      427.665      319.561      177.153        0.877        0.046      128.720       12.282        0.009      340.596       14.725      868.647
10/02/2014  21:57:00     -141.736      -47.356      -16.820       16.283       14.648       10.391      265.139      214.555      107.969        1.160        0.029      149.437        5.216        0.001      340.557       14.660      868.664
10/02/2014  21:58:00     -122.493      -63.247       -5.812       27.403       23.405       17.136      750.937      547.813      293.653        1.032        0.080      137.858       15.769        0.013      340.468       14.510      868.669
10/02/2014  21:59:00     -119.287      -53.274        3.217       27.034       27.281       16.723      730.842      744.263      279.643        0.942        0.088      130.642       14.859        0.013      340.356       14.321      868.673
10/02/2014  22:00:00     -105.554      -70.510       -8.797       23.613       17.082       15.121      557.584      291.802      228.633        0.863        0.054      126.938        9.965        0.006      340.406       14.405      868.689
10/02/2014  22:01:00     -109.068      -59.879       -7.266       22.976       14.635       14.420      527.912      214.174      207.929        0.824        0.048      124.424       11.703        0.009      340.361       14.327      868.694
10/02/2014  22:02:00     -118.161      -48.489       -6.289       22.446       19.449       17.912      503.835      378.248      320.851        0.878        0.060      127.723       15.400        0.015      340.344       14.299      868.709
10/02/2014  22:03:00     -107.459      -35.564       -9.835       21.642       18.072       14.356      468.392      326.606      206.101        0.695        0.050      113.191       13.002        0.013      340.373       14.348      868.727
10/02/2014  22:04:00      -93.066      -46.993       -4.940       20.065       14.259       13.072      402.587      203.311      170.866        0.584        0.039      104.257       10.708        0.011      340.456       14.488      868.721
10/02/2014  22:05:00      -72.731      -48.760       -3.710       22.304       20.001       10.645      497.448      400.025      113.320        0.435        0.051       87.563       10.748        0.015      340.463       14.498      868.729
10/02/2014  22:06:00      -56.547      -41.099       -2.446       14.959       16.606       12.431      223.774      275.753      154.525        0.277        0.033       69.905       11.192        0.026      340.527       14.610      868.732
10/02/2014  22:07:00      -77.076      -47.256       -5.948       13.074       17.773        8.701      170.941      315.897       75.709        0.439        0.028       90.409        4.944        0.003      340.561       14.666      868.730
10/02/2014  22:08:00      -76.032      -51.596       -4.738       25.492       14.682       11.416      649.845      215.573      130.336        0.473        0.050       91.886       12.156        0.018      340.531       14.617      868.745
10/02/2014  22:09:00      -88.522      -42.220       -7.404       14.261       16.371       10.070      203.365      268.016      101.397        0.512        0.029       98.075        5.338        0.003      340.516       14.590      868.738
10/02/2014  22:10:00      -90.265      -57.291      -14.059       21.355       19.735       14.059      456.050      389.481      197.653        0.634        0.052      106.912        5.568        0.003      340.469       14.510      868.737
10/02/2014  22:11:00     -107.631      -66.567       -8.829       16.653       15.522       10.635      277.318      240.917      113.113        0.836        0.032      126.553        5.060        0.002      340.476       14.521      868.743
10/02/2014  22:12:00     -112.022      -72.268      -15.802       21.769       19.280       13.136      473.884      371.719      172.545        0.952        0.051      133.310        6.973        0.003      340.456       14.487      868.738
10/02/2014  22:13:00      -77.687      -57.581       -2.474       25.522       22.095       19.914      651.386      488.199      396.578        0.545        0.077       96.700       16.291        0.028      340.249       14.140      868.742
10/02/2014  22:14:00      -87.338      -58.133      -10.356       20.124       15.681       14.845      404.982      245.900      220.368        0.599        0.044      104.916        3.373        0.001      340.350       14.309      868.754
10/02/2014  22:15:00      -88.174      -60.961       -7.978       18.846       19.991       15.366      355.165      399.620      236.116        0.627        0.050      107.196       10.148        0.009      340.339       14.291      868.753
10/02/2014  22:16:00      -87.298      -57.887      -10.396       16.297       19.786       11.736      265.595      391.471      137.728        0.594        0.040      104.747        6.236        0.004      340.379       14.359      868.759
10/02/2014  22:17:00      -82.743      -49.381      -14.592       10.618       14.981       12.244      112.734      224.429      149.915        0.499        0.024       96.358        6.339        0.004      340.377       14.354      868.768
10/02/2014  22:18:00      -89.003      -47.427      -15.721       13.000       13.754        9.037      169.003      189.169       81.665        0.543        0.022      100.850        3.932        0.002      340.366       14.337      868.767
10/02/2014  22:19:00      -98.010      -53.706       -8.036       15.861       16.014       12.617      251.576      256.451      159.189        0.661        0.033      111.760        7.749        0.005      340.277       14.186      868.776
10/02/2014  22:20:00      -86.865      -48.273      -11.092       22.070       15.475       14.219      487.080      239.465      202.175        0.546        0.046       99.377       10.675        0.012      340.249       14.138      868.773
10/02/2014  22:21:00      -80.721      -39.992      -12.326       16.737       16.099       10.860      280.135      259.171      117.943        0.446        0.033       90.085        7.562        0.007      340.230       14.108      868.781
10/02/2014  22:22:00      -89.683      -37.328       -8.984       13.652       15.466        9.143      186.381      239.210       83.587        0.501        0.025       97.141        4.174        0.002      340.229       14.104      868.793
10/02/2014  22:23:00      -99.597      -35.214       -8.706       12.658       16.718       10.199      160.230      279.506      104.012        0.589        0.027      105.639        4.507        0.002      340.162       13.991      868.807
10/02/2014  22:24:00      -92.559      -37.975       -8.416       19.553       20.089       13.624      382.309      403.563      185.612        0.553        0.049      100.046       10.064        0.010      340.168       14.003      868.827
10/02/2014  22:25:00      -77.512      -46.786       -7.738       19.249       18.419       12.243      370.524      339.252      149.886        0.456        0.043       90.538        9.691        0.011      340.199       14.054      868.836
10/02/2014  22:26:00      -71.353      -33.280       -5.369       20.937       20.732       12.129      438.370      429.836      147.114        0.362        0.051       78.732        6.699        0.007      340.170       14.004      868.853
10/02/2014  22:27:00      -58.145      -28.276       -9.631       28.027       17.585       11.792      785.530      309.229      139.061        0.275        0.062       64.656       10.906        0.028      340.219       14.087      868.867
10/02/2014  22:28:00      -76.964      -33.060      -15.185       21.521       17.354       10.108      463.134      301.153      102.169        0.406        0.043       83.764        4.867        0.003      340.233       14.111      868.866
10/02/2014  22:29:00      -64.655      -22.444       -8.106       25.505       15.355       11.575      650.525      235.765      133.987        0.288        0.051       68.440        8.465        0.015      340.207       14.070      868.877
10/02/2014  22:30:00      -34.517       -8.470       -9.550       22.874       18.683        8.973      523.239      349.066       80.509        0.115        0.048       35.541        6.317        0.032      340.134       13.945      868.882
10/02/2014  22:31:00      -30.706       -9.982       -2.155       20.805       13.860       11.308      432.834      192.108      127.872        0.090        0.038       32.288       12.639        0.153      340.166       13.998      868.880
10/02/2014  22:32:00      -28.189      -14.195       -6.773       21.617       14.819       14.245      467.311      219.588      202.914        0.097        0.044       31.562        8.991        0.081      340.163       13.994      868.898
10/02/2014  22:33:00      -13.601      -24.585       -5.377       26.100       19.160       13.764      681.202      367.122      189.441        0.103        0.062       28.096       13.699        0.238      340.162       13.991      868.892
10/02/2014  22:34:00      -71.297      -35.612       -7.148       17.514       15.537       10.124      306.756      241.388      102.505        0.353        0.033       79.696        7.609        0.009      340.249       14.139      868.887
10/02/2014  22:35:00      -89.947      -27.262      -13.976        9.250       13.211       10.161       85.556      174.542      103.247        0.470        0.018       93.988        6.225        0.004      340.226       14.101      868.876
10/02/2014  22:36:00      -71.298      -36.961       -5.738       12.933       12.322        9.759      167.275      151.831       95.242        0.345        0.021       80.309        5.401        0.005      340.297       14.219      868.872
10/02/2014  22:37:00      -71.095      -38.417       -9.194        8.212        9.886        7.307       67.445       97.735       53.390        0.342        0.011       80.811        2.359        0.001      340.293       14.211      868.878
10/02/2014  22:38:00      -66.230      -27.704       -5.632        6.130        5.080        4.675       37.577       25.805       21.860        0.264        0.004       71.791        2.654        0.001      340.308       14.238      868.872
10/02/2014  22:39:00      -70.337      -30.620       -8.168        6.420        6.105        5.089       41.222       37.272       25.898        0.303        0.005       76.713        2.176        0.001      340.321       14.261      868.879
10/02/2014  22:40:00      -69.166      -29.717       -7.796        6.066        6.349        4.939       36.796       40.313       24.394        0.291        0.005       75.279        2.363        0.001      340.212       14.076      868.882
10/02/2014  22:41:00      -75.401      -46.307       -5.174       17.923        9.290        6.983      321.244       86.308       48.766        0.416        0.023       88.485        4.239        0.002      340.225       14.098      868.873
10/02/2014  22:42:00      -64.081      -43.159       -4.147       13.831       11.926        8.857      191.287      142.225       78.451        0.320        0.021       77.259        6.874        0.008      340.232       14.109      868.885
10/02/2014  22:43:00      -47.661      -21.013       -1.733       14.213        9.846        9.638      202.021       96.948       92.897        0.155        0.020       52.088        7.176        0.019      340.166       14.000      868.884
10/02/2014  22:44:00      -63.400      -29.786       -7.538       12.022        4.863        4.120      144.530       23.651       16.974        0.257        0.009       70.049        1.752        0.001      340.291       14.211      868.880
10/02/2014  22:45:00      -85.090      -29.615      -11.580       11.098       11.196        7.558      123.161      125.344       57.128        0.428        0.015       90.097        1.818        0.000      340.071       13.839      868.873
10/02/2014  22:46:00      -95.009      -45.863      -13.959       12.615        9.847        8.083      159.139       96.959       65.328        0.582        0.016      105.499        3.260        0.001      340.147       13.966      868.873
10/02/2014  22:47:00     -103.200      -44.905      -16.656        8.730       11.000        8.084       76.207      121.003       65.352        0.660        0.013      112.546        4.046        0.001      340.050       13.803      868.865
10/02/2014  22:48:00      -91.150      -36.329      -13.670        7.038        8.889        7.744       49.540       79.019       59.967        0.500        0.009       98.123        2.071        0.000      339.920       13.583      868.867
10/02/2014  22:49:00      -96.504      -19.411      -11.752        9.337       13.437        8.637       87.183      180.551       74.596        0.509        0.017       98.436        5.986        0.004      339.847       13.462      868.870
10/02/2014  22:50:00     -102.709      -30.454      -21.297       11.130       11.766        8.645      123.881      138.431       74.742        0.613        0.017      107.129        2.850        0.001      339.869       13.497      868.862
10/02/2014  22:51:00     -106.170      -23.010      -21.033        9.826       11.617        7.990       96.548      134.965       63.838        0.627        0.015      108.635        4.569        0.002      339.855       13.475      868.861
10/02/2014  22:52:00      -92.600      -26.439      -14.028        8.523       10.214        9.283       72.648      104.322       86.176        0.487        0.013       96.300        4.037        0.002      339.841       13.451      868.870
10/02/2014  22:53:00      -79.591      -25.027      -16.730       13.555       11.278        8.593      183.741      127.195       73.844        0.381        0.019       83.433        6.558        0.006      339.867       13.495      868.869
10/02/2014  22:54:00      -55.896      -17.433      -10.037       15.592       14.977       12.154      243.097      224.309      147.729        0.207        0.031       58.551        9.790        0.028      339.940       13.618      868.876
10/02/2014  22:55:00      -57.899      -12.198       -5.775       16.110       13.151       11.120      259.533      172.937      123.657        0.205        0.028       59.170        8.608        0.021      339.879       13.516      868.884
10/02/2014  22:56:00      -75.553      -20.280      -14.376       13.748       14.392        9.187      189.010      207.133       84.407        0.340        0.024       78.228        4.863        0.004      339.871       13.503      868.887
10/02/2014  22:57:00      -77.621      -23.751      -15.226       12.996       14.104       10.924      168.895      198.932      119.330        0.365        0.024       81.173        9.613        0.014      339.905       13.558      868.881
10/02/2014  22:58:00      -64.413      -35.237      -11.079       15.303       12.347       10.333      234.196      152.458      106.765        0.300        0.025       73.421        5.048        0.005      339.873       13.506      868.889
10/02/2014  22:59:00      -57.380      -30.113      -11.806       12.192       12.360        8.677      148.643      152.762       75.291        0.236        0.019       64.802        7.150        0.012      339.862       13.486      868.896
10/02/2014  23:00:00      -61.578      -25.476      -18.817       10.106       10.234        6.646      102.134      104.737       44.173        0.252        0.013       66.639        3.134        0.002      339.800       13.383      868.896
10/02/2014  23:01:00      -69.021      -20.676      -10.766       12.082        9.950        9.037      145.983       99.004       81.663        0.282        0.016       72.052        7.023        0.009      339.796       13.375      868.905
10/02/2014  23:02:00      -80.505      -29.873      -10.470       10.495       11.938        6.613      110.143      142.514       43.729        0.389        0.015       85.869        3.204        0.001      339.871       13.502      868.904
10/02/2014  23:03:00      -85.948      -28.488      -10.553        9.574        9.640        6.256       91.668       92.928       39.142        0.427        0.011       90.546        2.406        0.001      339.823       13.423      868.902
10/02/2014  23:04:00      -94.513      -23.623      -10.929       11.404       12.066       10.211      130.042      145.585      104.273        0.499        0.019       97.420        6.703        0.005      339.781       13.350      868.910
10/02/2014  23:05:00      -94.448      -23.888      -13.145        9.016        9.086        8.832       81.297       82.560       78.011        0.495        0.012       97.422        3.575        0.001      339.714       13.236      868.910
10/02/2014  23:06:00      -94.706      -27.119      -12.930       10.949        8.181        6.523      119.874       66.923       42.548        0.505        0.011       98.512        2.552        0.001      339.766       13.325      868.911
10/02/2014  23:07:00      -91.825      -27.316      -13.250       11.817       18.586       14.470      139.635      345.426      209.390        0.502        0.035       95.802       11.459        0.014      339.683       13.185      868.927
10/02/2014  23:08:00      -55.450      -34.492      -10.266       20.694       14.304       13.856      428.256      204.617      191.991        0.260        0.041       65.302       10.113        0.024      339.659       13.145      868.928
10/02/2014  23:09:00      -51.366      -26.637       -7.840       19.761       10.389        9.094      390.495      107.940       82.694        0.200        0.029       57.862        8.726        0.023      339.589       13.027      868.931
10/02/2014  23:10:00      -81.515      -33.441       -7.031       12.812       11.192        9.895      164.153      125.259       97.914        0.410        0.019       88.108        4.845        0.003      339.643       13.117      868.940
10/02/2014  23:11:00      -54.067      -29.830       -5.144       21.376       11.485       10.736      456.913      131.900      115.270        0.227        0.035       61.751        7.814        0.016      339.625       13.087      868.949
10/02/2014  23:12:00      -52.500      -31.649        1.925       28.649       17.919       14.859      820.741      321.084      220.800        0.256        0.068       61.302        7.638        0.016      339.478       12.838      868.946
10/02/2014  23:13:00      -45.829      -30.196       -0.063       28.057       18.161       12.525      787.171      329.809      156.872        0.214        0.064       54.883        8.564        0.024      339.425       12.748      868.960
10/02/2014  23:14:00      -48.560      -22.945       -3.484       21.092       19.063       15.572      444.873      363.398      242.486        0.197        0.053       53.708       11.385        0.045      339.429       12.757      868.964
10/02/2014  23:15:00      -51.510      -52.332        0.138       30.774       24.284       15.513      947.010      589.728      240.649        0.358        0.089       73.430       14.255        0.038      339.449       12.789      868.959
10/02/2014  23:16:00      -49.783      -42.445        3.502       26.106       27.040       17.234      681.542      731.151      297.001        0.300        0.085       65.421       14.090        0.046      339.460       12.809      868.963
10/02/2014  23:17:00      -66.211      -58.966       -2.622       34.730       39.291       17.378     1206.172     1543.801      301.988        0.546        0.153       88.662        9.756        0.012      339.403       12.712      868.969
10/02/2014  23:18:00      -77.447      -47.311      -18.577       41.029       19.103       16.570     1683.381      364.919      274.574        0.545        0.116       90.754       12.246        0.018      339.376       12.666      868.961
10/02/2014  23:19:00      -71.612      -51.117        3.821       35.485       43.358       24.469     1259.202     1879.959      598.714        0.575        0.187       87.984       26.516        0.091      339.256       12.463      868.957
10/02/2014  23:20:00      -90.703      -37.772       -6.040       23.951       23.435       15.729      573.659      549.203      247.417        0.553        0.069       98.253        9.125        0.009      339.251       12.456      868.949
10/02/2014  23:21:00      -87.347      -32.825      -14.950       16.468       15.118       10.672      271.211      228.541      113.888        0.477        0.031       93.311        8.236        0.008      339.318       12.567      868.938
10/02/2014  23:22:00      -83.147      -37.865      -10.698       13.641        8.550        8.025      186.068       73.097       64.394        0.439        0.016       91.363        5.432        0.004      339.317       12.565      868.924
10/02/2014  23:23:00      -65.660      -28.831       -7.021       15.279       10.868       12.347      233.442      118.106      152.454        0.285        0.025       71.711       10.092        0.020      339.312       12.557      868.934
10/02/2014  23:24:00      -77.684      -26.049       -8.971       11.017        9.963        9.122      121.379       99.255       83.206        0.355        0.015       81.935        7.382        0.008      339.323       12.577      868.932
10/02/2014  23:25:00      -95.842      -18.849      -16.489        7.251        9.335        8.553       52.582       87.150       73.152        0.501        0.011       97.677        3.240        0.001      339.200       12.371      868.925
10/02/2014  23:26:00     -107.776      -16.603      -16.501       16.154       12.991       11.057      260.967      168.767      122.259        0.636        0.028      109.047        8.949        0.007      339.236       12.430      868.927
10/02/2014  23:27:00     -106.458      -21.307      -13.192       14.845       14.465       11.162      220.373      209.229      124.593        0.626        0.028      108.569        7.845        0.005      339.198       12.367      868.920
10/02/2014  23:28:00     -111.983      -26.570      -18.499       16.938       12.300       11.314      286.882      151.284      127.995        0.708        0.028      115.092        8.285        0.005      339.139       12.268      868.921
10/02/2014  23:29:00     -117.876      -28.486      -17.726       10.677       12.440        8.507      113.991      154.748       72.374        0.768        0.017      121.269        3.908        0.001      339.078       12.166      868.937
10/02/2014  23:30:00     -112.600      -29.792      -17.073       12.042       12.231        9.436      145.016      149.597       89.043        0.712        0.019      116.475        6.965        0.004      339.092       12.190      868.942
10/02/2014  23:31:00     -100.524      -38.032      -12.217       13.546       13.096       11.600      183.494      171.512      134.549        0.610        0.024      107.478        7.314        0.005      339.044       12.108      868.943
10/02/2014  23:32:00      -90.924      -35.007      -18.978       12.060       15.398       10.750      145.444      237.110      115.562        0.518        0.025       97.430        3.554        0.001      339.046       12.111      868.944
10/02/2014  23:33:00      -59.325      -52.776      -13.956       21.909       13.935       13.592      479.983      194.180      184.752        0.368        0.043       79.403       12.201        0.024      339.036       12.095      868.957
10/02/2014  23:34:00      -78.238      -33.241       -6.205       19.506       16.163       12.168      380.483      261.247      148.054        0.403        0.039       85.006        6.784        0.006      339.033       12.087      868.958
10/02/2014  23:35:00      -91.879      -32.596       -8.098       14.780       13.055       10.531      218.456      170.446      110.900        0.503        0.025       97.490        7.484        0.006      339.047       12.111      868.955
10/02/2014  23:36:00      -88.346      -44.511       -8.941       24.399       15.022       11.264      595.297      225.657      126.884        0.541        0.047       98.925        8.149        0.007      339.137       12.265      868.964
10/02/2014  23:37:00      -95.027      -59.588      -11.166       28.487       17.725       15.043      811.504      314.161      226.284        0.703        0.068      112.164       13.725        0.015      339.120       12.236      868.961
10/02/2014  23:38:00      -93.160      -48.052       -2.906       28.493       23.435       18.372      811.877      549.184      337.541        0.635        0.085      104.823       15.126        0.021      339.064       12.142      868.962
10/02/2014  23:39:00      -92.279      -50.300       -4.899       25.773       18.509       19.945      664.233      342.582      397.802        0.624        0.070      105.098       13.969        0.018      338.986       12.012      868.965
10/02/2014  23:40:00      -86.369      -51.204       -4.259       26.506       17.298       15.111      702.565      299.212      228.354        0.566        0.062      100.406       12.369        0.015      338.975       11.992      868.978
10/02/2014  23:41:00      -89.088      -52.189       -8.301       23.556       15.123       12.864      554.897      228.698      165.480        0.584        0.047      103.249       10.079        0.010      338.965       11.975      868.985
10/02/2014  23:42:00      -78.108      -36.991      -11.705       15.580       12.198        6.760      242.735      148.788       45.696        0.402        0.022       86.425        5.113        0.003      338.998       12.031      868.982
10/02/2014  23:43:00      -80.900      -41.748      -12.776       17.444       12.554       11.064      304.290      157.601      122.412        0.452        0.029       91.036        9.364        0.011      338.949       11.946      868.990
10/02/2014  23:44:00     -104.825      -42.636       -9.563       12.002       14.651       10.764      144.038      214.640      115.872        0.669        0.024      113.164        4.947        0.002      338.913       11.888      868.995
10/02/2014  23:45:00      -99.970      -35.545       -4.087       15.122       13.444       10.936      228.682      180.728      119.593        0.590        0.026      106.101        6.366        0.004      338.908       11.880      868.983
10/02/2014  23:46:00     -116.296      -46.853      -12.789       12.365       12.698       10.340      152.888      161.235      106.912        0.815        0.021      125.379        6.640        0.003      338.916       11.892      868.982
10/02/2014  23:47:00     -108.441      -35.798       -7.630        9.067       10.371        8.689       82.210      107.566       75.493        0.668        0.013      114.197        2.959        0.001      338.906       11.876      868.977
10/02/2014  23:48:00     -105.955      -59.652      -10.567       20.418       19.609       14.548      416.892      384.524      211.643        0.795        0.051      121.593       11.693        0.009      338.930       11.915      868.962
10/02/2014  23:49:00     -110.762      -69.047       -9.260       15.960       14.678       12.530      254.732      215.452      157.009        0.887        0.031      130.521        8.923        0.005      338.884       11.838      868.958
10/02/2014  23:50:00     -113.071      -63.629      -12.672       17.353       15.464       11.299      301.133      239.150      127.668        0.883        0.033      129.745        6.617        0.003      338.848       11.779      868.958
10/02/2014  23:51:00      -91.166      -50.309      -14.983       32.686       17.539       14.239     1068.402      307.611      202.743        0.632        0.079      104.126       12.022        0.013      338.768       11.644      868.948
10/02/2014  23:52:00      -98.105      -59.111      -14.344       20.411       17.125       13.363      416.615      293.274      178.561        0.711        0.044      114.537        7.343        0.004      338.775       11.656      868.958
10/02/2014  23:53:00      -92.882      -32.809      -12.899       10.442       14.346        9.976      109.032      205.822       99.516        0.514        0.021       98.506        2.618        0.001      338.756       11.622      868.975
10/02/2014  23:54:00      -99.933      -50.104      -14.500       13.902       15.390       11.529      193.275      236.848      132.909        0.664        0.028      111.790        5.964        0.003      338.829       11.746      868.975
10/02/2014  23:55:00     -108.394      -55.807      -14.861        9.823       16.072       11.664       96.498      258.298      136.040        0.779        0.025      121.917        6.420        0.003      338.841       11.766      868.969
10/02/2014  23:56:00     -105.882      -43.793      -18.010       13.258       12.712        8.949      175.773      161.583       80.086        0.694        0.021      114.581        3.880        0.001      338.743       11.601      868.969
10/02/2014  23:57:00      -91.677      -50.037      -11.542       13.968       12.780       10.225      195.098      163.327      104.541        0.575        0.023      104.443        5.485        0.003      338.718       11.560      868.977
10/02/2014  23:58:00      -81.466      -33.116       -9.424       14.931       13.221       11.118      222.935      174.796      123.619        0.417        0.026       87.940        6.212        0.005      338.711       11.547      868.977
10/02/2014  23:59:00      -71.445      -36.500       -7.201       15.822       20.460       11.857      250.344      418.632      140.587        0.365        0.040       80.229        7.161        0.008      338.763       11.636      868.978
